     2              OBSERVATION DATA    GPS                 RINEX VERSION / TYPE
ASHTORIN 03 - MAR - 99 13:33                                PGM / RUN BY / DATE
                                                            COMMENT
Original Marker Name: STG1                                  COMMENT
Campaign Name: rose canyon fault                            COMMENT
4-Character Station Name: STG1                              COMMENT
6-Character Antenna Code: DMRCHT                            COMMENT
Vertical Measurement Point: BPA                             COMMENT
Vertical Offset to Rinex Ref. Point: 0.0000                 COMMENT
Radial Measurement Point: RRP                               COMMENT
Radial Offset to Rinex Ref. Point: 0.0000                   COMMENT
Antenna Height from Field Measurement: 0.8900 m             COMMENT
Additional Antenna Identification Info.:                    COMMENT
Turborogue and Ashtech Choke Ring                           COMMENT
Original XYZ: 0.0000 0.0000 0.0000                          COMMENT
New XYZ position is based on association with SCEC monument COMMENT
E1C8O6J3+0011. Position of that monument is believed to be  COMMENT
valid to within 1 m horizontally; vertical accuracy         COMMENT
should be no worse than 3-times this value.                 COMMENT
                                                            COMMENT
Revised Rinex header created by UCSD GPS archive for        COMMENT
GSAC on 30-May-1999 (1999:150) 18:44:02 GMT                 COMMENT
For assistance contact dagnew@ucsd.edu or hjohnson@ucsd.edu COMMENT
                                                            COMMENT
STG1 1998 UCSD SIO IGPP                                     MARKER NAME
                                                            MARKER NUMBER
SJB SCRIPPS INSTITUTION OF OCEANOGRAPHY                     OBSERVER / AGENCY
LP03319 ASHTECH Z12-XII3 1F501D0                            REC # / TYPE / VERS
CR16409 DORNE-MARGOL. TYPE T                                ANT # / TYPE
 -2459960.0000 -4776498.0000  3425796.0000                  APPROX POSITION XYZ
        0.8900        0.0000        0.0000                  ANTENNA: DELTA H/E/N
     1     1     0                                          WAVELENGTH FACT L1/2
     7    L1    L2    C1    P1    P2    D1    D2            # / TYPES OF OBSERV
    30                                                      INTERVAL
  1999     3     4    17    21   30.000000                  TIME OF FIRST OBS
  1999     3     4    23    59   30.000000                  TIME OF LAST OBS
                                                            END OF HEADER
 99  3  4 17 21 30.0000000  0  7 19  2 31 27 18  7 13                0.000000000
    124000.416 9     89420.67052         0.000           0.0004          0.0005
        -0.000          -0.000
    -73895.985 9    -51944.51048  21580021.100    21580020.2234   21580028.9884
        -0.000          -0.000
    269772.149 9    193340.22246  23233304.169    23233303.5094   23233314.3634
        -0.000          -0.000
   -112851.417 9    -81953.18449  20782169.522    20782168.7644   20782176.7314
        -0.000          -0.000
    346685.473 9    251547.82646  23565635.566    23565635.2104   23565647.3284
        -0.000          -0.000
   -276758.084 9   -191846.76946  23231716.302    23231715.8784   23231729.3654
        -0.000          -0.000
     39718.213 9     29634.83649  20676771.544    20676771.5294   20676777.9294
        -0.000          -0.000
 99  3  4 17 22  0.0000000  0  7 19  2 31 27 18  7 13                0.000000107
   -500334.11719   -492512.96347         0.000           0.0005   21300808.0484
        -0.000          -0.000
   -761489.400 9   -587731.58649  21449176.769    21449175.6354   21449184.3844
        -0.000          -0.000
   -308107.285 9   -256955.58946  23123337.004    23123336.7874   23123347.5864
        -0.000          -0.000
   -813832.222 9   -628172.01149  20648777.327    20648776.6894   20648784.5074
        -0.000          -0.000
   -205651.981 9   -178845.28846  23460529.391    23460529.0044   23460541.2454
        -0.000          -0.000
  -1040816.019 9   -787216.46146  23086320.849    23086320.4634   23086333.9514
        -0.000          -0.000
   -611572.889 9   -477864.78149  20552834.908    20552834.8994   20552841.4324
        -0.000          -0.000
 99  3  4 17 22 30.0000000  0  7 19  2 31 27 18  7 13                0.000000047
   -461263.328 9   -462068.28048  21308234.920    21308234.7164   21308243.3514
        -0.000          -0.000
   -785733.181 9   -606622.82949  21444563.143    21444562.1794   21444570.9544
        -0.000          -0.000
   -222473.401 9   -190228.06246  23139632.935    23139632.5064   23139643.2524
        -0.000          -0.000
   -851471.529 9   -657501.34349  20641614.634    20641614.1384   20641622.0494
        -0.000          -0.000
    -94710.295 9    -92397.55346  23481640.940    23481640.4294   23481652.9024
        -0.000          -0.000
  -1141608.323 9   -865755.79746  23067141.291    23067140.3904   23067153.7714
        -0.000          -0.000
   -599143.051 9   -468179.25049  20555200.154    20555200.2114   20555206.8304
        -0.000          -0.000
 99  3  4 17 23  0.0000000  0  7 19  2 31 27 18  7 13                0.000000020
   -421822.086 9   -431334.95548  21315740.438    21315740.1104   21315748.9864
        -0.000          -0.000
   -809688.802 9   -625289.55349  21440004.498    21440003.6144   21440012.3764
        -0.000          -0.000
   -136384.345 9   -123145.85346  23156015.487    23156014.8744   23156025.5594
        -0.000          -0.000
   -888809.618 9   -686595.97849  20634509.462    20634508.9964   20634516.9114
        -0.000          -0.000
     16447.464 9     -5781.43246  23502793.491    23502793.1254   23502805.7054
        -0.000          -0.000
  -1242193.367 9   -944133.63946  23048000.671    23047999.8114   23048013.0294
        -0.000          -0.000
   -586057.225 9   -457982.56649  20557690.247    20557690.3374   20557697.0544
        -0.000          -0.000
 99  3  4 17 23 30.0000000  0  7 19  2 31 27 18  7 13                0.000000000
   -382036.507 9   -400333.28548  21323311.417    21323311.0794   21323320.0064
        -0.000          -0.000
   -833402.519 9   -643767.77749  21435491.902    21435491.0684   21435499.7984
        -0.000          -0.000
    -49881.868 9    -55741.47946  23172476.440    23172475.8294   23172486.5034
        -0.000          -0.000
   -925870.587 9   -715474.66049  20627457.048    20627456.5594   20627464.4884
        -0.000          -0.000
    127782.114 9     80972.48546  23523979.735    23523979.4784   23523992.1094
        -0.000          -0.000
  -1342590.223 9  -1022364.83646  23028895.692    23028894.9084   23028908.0794
        -0.000          -0.000
   -572352.613 9   -447303.70349  20560298.141    20560298.2724   20560305.0174
        -0.000          -0.000
 99  3  4 17 24  0.0000000  0  7 19  2 31 27 18  7 13               -0.000000003
   -341915.252 9   -369070.05248  21330946.179    21330945.8534   21330954.8904
        -0.000          -0.000
   -856874.282 9   -662057.46849  21431025.463    21431024.6204   21431033.2994
        -0.000          -0.000
     37028.135 9     11980.44246  23189014.849    23189014.2494   23189025.0294
        -0.000          -0.000
   -962663.010 9   -744144.09049  20620455.661    20620455.2464   20620463.1944
        -0.000          -0.000
    239268.776 9    167844.90346  23545195.212    23545194.8504   23545207.5234
        -0.000          -0.000
  -1442793.558 9  -1100445.24246  23009827.663    23009826.8184   23009839.8574
        -0.000          -0.000
   -558049.707 9   -436158.64549  20563019.957    20563020.0974   20563026.8204
        -0.000          -0.000
 99  3  4 17 24 30.0000000  0  7 19  2 31 27 18  7 13               -0.000000006
   -301492.427 9   -337571.84348  21338638.447    21338638.1584   21338647.2144
        -0.000          -0.000
   -880138.451 9   -680185.39149  21426598.412    21426597.5854   21426606.3294
        -0.000          -0.000
    124306.947 9     79989.74746  23205623.678    23205623.0414   23205633.7874
        -0.000          -0.000
   -999207.612 9   -772620.42249  20613501.512    20613501.0904   20613509.0114
        -0.000          -0.000
    350873.551 9    254809.34546  23566432.911    23566432.6684   23566445.4684
        -0.000          -0.000
  -1542814.497 9  -1178383.52546  22990794.226    22990793.5254   22990806.3404
        -0.000          -0.000
   -543177.827 9   -424570.23049  20565850.120    20565850.2284   20565856.9654
        -0.000          -0.000
 99  3  4 17 25  0.0000000  0  7 19  2 31 27 18  7 13               -0.000000005
   -260777.560 9   -305846.05548  21346386.416    21346386.1144   21346395.1434
        -0.000          -0.000
   -903196.222 9   -698152.49849  21422210.628    21422209.8334   21422218.6434
        -0.000          -0.000
    211946.306 9    148279.99446  23222301.202    23222300.5254   23222311.2644
        -0.000          -0.000
  -1035493.528 9   -800895.17349  20606596.485    20606596.1004   20606604.0484
        -0.000          -0.000
    462605.416 9    341872.81946  23587694.946    23587694.7584   23587707.6794
        -0.000          -0.000
  -1642638.254 9  -1256168.15846  22971798.391    22971797.7254   22971810.4004
        -0.000          -0.000
   -527725.638 9   -412529.62949  20568790.584    20568790.7124   20568797.4684
        -0.000          -0.000
 99  3  4 17 25 30.0000000  0  7 19  2 31 27 18  7 13                0.000000020
   -219767.713 9   -273890.41148  21354190.408    21354190.0724   21354199.1374
        -0.000          -0.000
   -926035.152 9   -715949.07949  21417864.504    21417863.7024   21417872.5374
        -0.000          -0.000
    299962.135 9    216863.59246  23239050.229    23239049.5114   23239060.3604
        -0.000          -0.000
  -1071521.256 9   -828968.75249  20599740.754    20599740.3464   20599748.2324
        -0.000          -0.000
    574473.344 9    429042.32546  23608982.941    23608982.7314   23608995.8064
        -0.000          -0.000
  -1742250.770 9  -1333788.20146  22952842.677    22952841.9594   22952854.7244
        -0.000          -0.000
   -511684.476 9   -400030.08349  20571843.133    20571843.2994   20571850.0164
        -0.000          -0.000
 99  3  4 17 26  0.0000000  0  7 19  2 31 27 18  7 13                0.000000054
   -178492.519 9   -241728.02248  21362044.794    21362044.4944   21362053.6434
        -0.000          -0.000
   -948686.994 9   -733599.87349  21413554.053    21413553.2554   21413562.0744
        -0.000          -0.000
    388331.426 9    285722.62146  23255866.476    23255865.7494   23255876.6704
        -0.000          -0.000
  -1107323.594 9   -856866.70149  20592927.769    20592927.3734   20592935.3074
        -0.000          -0.000
    686439.508 9    516288.36946  23630289.670    23630289.4514   23630302.7234
        -0.000          -0.000
  -1841685.469 9  -1411269.70746  22933920.614    22933919.9984   22933932.8794
        -0.000          -0.000
   -495092.857 9   -387101.61549  20575000.515    20575000.6634   20575007.3764
        -0.000          -0.000
 99  3  4 17 26 30.0000000  0  7 19  2 31 27 18  7 13                0.000000077
   -136940.180 9   -209349.66548  21369952.094    21369951.7304   21369960.9314
        -0.000          -0.000
   -971163.593 9   -751114.10549  21409277.017    21409276.2064   21409285.0044
        -0.000          -0.000
    477047.469 9    354851.83846  23272748.653    23272748.0514   23272758.9634
        -0.000          -0.000
  -1142899.131 9   -884587.91149  20586158.007    20586157.6194   20586165.5224
        -0.000          -0.000
    798504.431 9    603611.36846  23651615.210    23651614.8784   23651628.4074
        -0.000          -0.000
  -1940951.636 9  -1488619.85846  22915030.526    22915029.9954   22915043.1924
        -0.000          -0.000
   -477938.188 9   -373734.39649  20578264.993    20578265.1534   20578271.8724
        -0.000          -0.000
 99  3  4 17 27  0.0000000  0  7 19  2 31 27 18  7 13                0.000000108
    -95093.304 9   -176741.81548  21377915.416    21377914.9774   21377924.1894
        -0.000          -0.000
   -993431.127 9   -768465.45749  21405039.637    21405038.8504   21405047.6464
        -0.000          -0.000
    566136.698 9    424271.87046  23289701.907    23289701.3654   23289712.2804
        -0.000          -0.000
  -1178218.964 9   -912109.88949  20579436.886    20579436.4634   20579444.3734
        -0.000          -0.000
    910680.154 9    691020.68446  23672961.752    23672961.4684   23672975.1074
        -0.000          -0.000
  -2040035.725 9  -1565828.13746  22896175.314    22896174.8984   22896188.1614
        -0.000          -0.000
   -460195.987 9   -359909.37149  20581641.291    20581641.4464   20581648.1754
        -0.000          -0.000
 99  3  4 17 27 30.0000000  0  8 19  2 31 27 18  7 10 13             0.000000136
    -52966.484 9   -143915.80648  21385931.911    21385931.5184   21385940.7474
        -0.000          -0.000
  -1015503.677 9   -785664.86549  21400839.338    21400838.6084   21400847.4384
        -0.000          -0.000
    655577.088 9    493965.52446  23306721.929    23306721.3024   23306732.4384
        -0.000          -0.000
  -1213318.873 9   -939460.48349  20572757.567    20572757.1564   20572765.1384
        -0.000          -0.000
   1022933.895 9    778490.79146  23694323.222    23694322.8614   23694336.7374
        -0.000          -0.000
  -2138960.301 9  -1642912.11446  22877350.690    22877350.2004   22877363.3394
        -0.000          -0.000
   -559771.524 8   -442247.57952         0.000           0.0004          0.0005
        -0.000          -0.000
   -441903.862 9   -345655.82349  20585122.262    20585122.4364   20585129.1374
        -0.000          -0.000
 99  3  4 17 28  0.0000000  0  8 19  2 31 27 18  7 10 13            -0.000000082
    -10540.387 9   -110856.61648  21394005.425    21394005.0284   21394014.3484
        -0.000          -0.000
  -1037360.056 9   -802695.83149  21396680.258    21396679.5274   21396688.3534
        -0.000          -0.000
    745365.032 9    563930.00546  23323808.096    23323807.4744   23323818.7414
        -0.000          -0.000
  -1248182.140 9   -966626.68849  20566123.359    20566122.9594   20566130.9314
        -0.000          -0.000
   1135276.197 9    866029.89046  23715701.607    23715701.2014   23715715.0804
        -0.000          -0.000
  -2237717.547 9  -1719865.71146  22858557.789    22858557.2514   22858570.3114
        -0.000          -0.000
   -505810.70518   -400200.45044         0.000           0.0005   24480072.0034
        -0.000          -0.000
   -423046.050 9   -330961.48549  20588710.906    20588711.0524   20588717.7594
        -0.000          -0.000
 99  3  4 17 28 30.0000000  0  8 19  2 31 27 18  7 10 13            -0.000000085
     32265.439 9    -77501.54848  21402151.207    21402150.7994   21402160.1784
        -0.000          -0.000
  -1058925.196 9   -819499.86049  21392576.568    21392575.8484   21392584.7014
        -0.000          -0.000
    835563.611 9    634214.45146  23340972.525    23340971.8914   23340983.0484
        -0.000          -0.000
  -1282737.855 9   -993553.24849  20559547.614    20559547.2324   20559555.2954
        -0.000          -0.000
   1247777.097 9    953692.56446  23737109.922    23737109.6214   23737123.6444
        -0.000          -0.000
  -2336236.661 9  -1796633.75146  22839810.070    22839809.5094   22839822.6484
        -0.000          -0.000
   -451542.796 8   -357913.98545  24490384.301    24490384.5104   24490399.6984
        -0.000          -0.000
   -403539.391 9   -315761.55249  20592423.018    20592423.1624   20592429.8964
        -0.000          -0.000
 99  3  4 17 29  0.0000000  0  8 19  2 31 27 18  7 10 13            -0.000000052
     75443.209 9    -43856.63248  21410367.731    21410367.3514   21410376.7094
        -0.000          -0.000
  -1080218.278 9   -836091.88549  21388524.597    21388523.8834   21388532.7404
        -0.000          -0.000
    926162.208 9    704810.60346  23358213.203    23358212.5064   23358223.5914
        -0.000          -0.000
  -1317002.126 9  -1020252.70349  20553027.410    20553027.0554   20553035.0884
        -0.000          -0.000
   1360428.471 9   1041472.46646  23758546.942    23758546.7004   23758560.7984
        -0.000          -0.000
  -2434515.938 9  -1873214.91146  22821108.041    22821107.4764   22821120.6404
        -0.000          -0.000
   -396977.352 8   -315395.67745  24500768.662    24500769.8604   24500783.0774
        -0.000          -0.000
   -383406.398 9   -300073.55849  20596254.337    20596254.4504   20596261.2034
        -0.000          -0.000
 99  3  4 17 29 30.0000000  0  8 19  2 31 27 18  7 10 13            -0.000000015
    118959.331 9     -9948.07248  21418648.723    21418648.3484   21418657.6084
        -0.000          -0.000
  -1101301.892 9   -852520.70249  21384512.591    21384511.8604   21384520.6834
        -0.000          -0.000
   1017099.329 9    775670.51446  23375517.976    23375517.3064   23375528.4934
        -0.000          -0.000
  -1351028.583 9  -1046766.85449  20546552.512    20546552.1184   20546560.1354
        -0.000          -0.000
   1473188.038 9   1129336.68746  23780004.569    23780004.3954   23780018.5764
        -0.000          -0.000
  -2532590.750 9  -1949636.75446  22802445.036    22802444.4464   22802457.5364
        -0.000          -0.000
   -342154.543 8   -272676.80845  24511201.323    24511201.1884   24511215.6464
        -0.000          -0.000
   -362704.236 9   -283942.06649  20600193.870    20600193.9724   20600200.7624
        -0.000          -0.000
 99  3  4 17 30  0.0000000  0  8 19  2 31 27 18  7 10 13             0.000000016
    162788.554 9     24204.45848  21426989.340    21426988.9544   21426998.1924
        -0.000          -0.000
  -1122220.394 9   -868820.84149  21380531.957    21380531.2064   21380540.1054
        -0.000          -0.000
   1108343.200 9    846769.46646  23392880.978    23392880.4164   23392891.7464
        -0.000          -0.000
  -1384817.665 9  -1073096.03549  20540122.725    20540122.2994   20540130.2764
        -0.000          -0.000
   1586031.440 9   1217266.23146  23801478.355    23801478.1294   23801492.3984
        -0.000          -0.000
  -2630490.058 9  -2025921.84646  22783815.568    22783814.9334   22783827.6744
        -0.000          -0.000
   -287089.414 8   -229769.09745  24521680.099    24521679.8844   24521694.0254
        -0.000          -0.000
   -341459.007 9   -267387.40449  20604236.810    20604236.9034   20604243.6454
        -0.000          -0.000
 99  3  4 17 30 30.0000000  0  8 19  2 31 27 18  7 10 13             0.000000026
    206894.881 9     58572.88948  21435382.576    21435382.2144   21435391.5104
        -0.000          -0.000
  -1143010.557 9   -885020.98049  21376575.665    21376574.9654   21376583.9724
        -0.000          -0.000
   1199866.832 9    918086.40446  23410297.439    23410296.9584   23410308.2604
        -0.000          -0.000
  -1418392.621 9  -1099258.37349  20533733.642    20533733.2124   20533741.1504
        -0.000          -0.000
   1698929.158 9   1305238.10846  23822962.446    23822962.1854   23822976.4344
        -0.000          -0.000
  -2728235.776 9  -2102087.26146  22765215.151    22765214.5204   22765227.0994
        -0.000          -0.000
   -231815.411 8   -186698.59045  24532198.479    24532198.3924   24532212.3924
        -0.000          -0.000
   -319704.658 9   -250436.03049  20608376.609    20608376.6884   20608383.4264
        -0.000          -0.000
 99  3  4 17 31  0.0000000  0  8 19  2 31 27 18  7 10 13             0.000000034
    251297.248 9     93172.02748  21443832.147    21443831.7544   21443841.1194
        -0.000          -0.000
  -1163637.111 9   -901093.64949  21372650.615    21372649.9124   21372658.9014
        -0.000          -0.000
   1291701.039 9    989645.35646  23427773.070    23427772.6304   23427783.8854
        -0.000          -0.000
  -1451703.278 9  -1125214.75949  20527394.862    20527394.4704   20527402.4224
        -0.000          -0.000
   1811918.812 9   1393281.61246  23844464.079    23844463.7804   23844478.0094
        -0.000          -0.000
  -2825791.157 9  -2178104.36246  22746650.885    22746650.3414   22746662.7114
        -0.000          -0.000
   -176309.723 8   -143447.56845  24542761.095    24542761.1594   24542774.3114
        -0.000          -0.000
   -297418.770 9   -233070.46749  20612617.499    20612617.6124   20612624.4244
        -0.000          -0.000
 99  3  4 17 31 30.0000000  0  8 19  2 31 27 18  7 10 13             0.000000046
    295999.420 9    128004.76848  21452338.759    21452338.3754   21452347.7574
        -0.000          -0.000
  -1184071.179 9   -917016.32149  21368762.203    21368761.4944   21368770.4434
        -0.000          -0.000
   1383858.340 9   1061456.07646  23445310.265    23445309.7694   23445320.9924
        -0.000          -0.000
  -1484717.015 9  -1150939.77649  20521112.626    20521112.1904   20521120.0824
        -0.000          -0.000
   1925013.336 9   1481406.85546  23865985.681    23865985.3514   23865999.5964
        -0.000          -0.000
  -2923157.299 9  -2253974.00746  22728122.718    22728122.1884   22728134.5464
        -0.000          -0.000
   -120558.164 8   -100004.96645  24553370.523    24553370.2874   24553383.5444
        -0.000          -0.000
   -274578.062 9   -215272.58149  20616963.951    20616964.1034   20616970.9364
        -0.000          -0.000
 99  3  4 17 32  0.0000000  0  8 19  2 31 27 18  7 10 13             0.000000062
    340988.807 9    163061.31548  21460900.063    21460899.6584   21460909.0534
        -0.000          -0.000
  -1204304.914 9   -932782.88349  21364911.862    21364911.1404   21364920.1554
        -0.000          -0.000
   1476351.119 9   1133528.20146  23462911.372    23462910.8244   23462921.9724
        -0.000          -0.000
  -1517438.005 9  -1176436.68649  20514886.028    20514885.6304   20514893.5474
        -0.000          -0.000
   2038203.748 9   1569606.80346  23887525.473    23887525.1504   23887539.4064
        -0.000          -0.000
  -3020334.987 9  -2329696.80447  22709630.504    22709629.9114   22709642.3634
        -0.000          -0.000
    -64570.894 8    -56378.73045  24564024.653    24564024.1804   24564037.8444
        -0.000          -0.000
   -251169.959 9   -197032.56049  20621418.444    20621418.5894   20621425.4394
        -0.000          -0.000
 99  3  4 17 32 30.0000000  0  8 19  2 31 27 18  7 10 13             0.000000077
    386256.159 9    198334.45548  21469514.238    21469513.8554   21469523.2514
        -0.000          -0.000
  -1224337.173 9   -948392.45749  21361099.812    21361099.1394   21361108.1444
        -0.000          -0.000
   1569180.107 9   1205862.29246  23480576.357    23480575.7864   23480586.9304
        -0.000          -0.000
  -1549895.609 9  -1201728.35149  20508709.649    20508709.1964   20508717.1764
        -0.000          -0.000
   2151483.563 9   1657876.41546  23909082.149    23909081.8664   23909096.2304
        -0.000          -0.000
  -3117318.050 9  -2405267.93047  22691175.114    22691174.6174   22691187.1844
        -0.000          -0.000
     -8364.294 8    -12581.57345  24574720.152    24574719.8764   24574733.5574
        -0.000          -0.000
   -227184.453 9   -178342.62049  20625982.748    20625982.9094   20625989.8164
        -0.000          -0.000
 99  3  4 17 33  0.0000000  0  8 19  2 31 27 18  7 10 13             0.000000091
    431805.223 9    233827.11648  21478182.099    21478181.7244   21478191.0694
        -0.000          -0.000
  -1244159.223 9   -963838.24049  21357327.915    21357327.2104   21357336.1724
        -0.000          -0.000
   1662345.981 9   1278458.91046  23498305.323    23498304.9024   23498315.9914
        -0.000          -0.000
  -1582082.455 9  -1226809.04649  20502584.649    20502584.2064   20502592.3024
        -0.000          -0.000
   2264852.556 9   1746215.52946  23930655.764    23930655.4924   23930669.9464
        -0.000          -0.000
  -3214094.476 9  -2480678.04347  22672759.113    22672758.5164   22672771.2274
        -0.000          -0.000
     48051.916 8     31378.93645  24585456.094    24585455.7134   24585469.4854
        -0.000          -0.000
   -202613.432 9   -159196.43549  20630658.465    20630658.6724   20630665.6004
        -0.000          -0.000
 99  3  4 17 33 30.0000000  0  8 19  2 31 27 18  7 10 13             0.000000090
    477616.388 9    269524.01048  21486899.878    21486899.4794   21486908.7644
        -0.000          -0.000
  -1263790.910 9   -979135.67449  21353592.179    21353591.4164   21353600.4034
        -0.000          -0.000
   1755833.531 9   1351306.18446  23516095.500    23516095.0954   23516106.3394
        -0.000          -0.000
  -1614030.101 9  -1251703.34849  20496505.254    20496504.8354   20496512.9514
        -0.000          -0.000
   2378279.348 9   1834599.67346  23952240.410    23952240.1194   23952254.7084
        -0.000          -0.000
  -3310672.632 9  -2555933.67047  22654380.610    22654380.0904   22654392.8784
        -0.000          -0.000
    104647.959 8     75479.58445  24596226.275    24596225.6974   24596239.4884
        -0.000          -0.000
   -177474.115 9   -139607.41849  20635442.454    20635442.6104   20635449.5184
        -0.000          -0.000
 99  3  4 17 34  0.0000000  0  8 19  2 31 27 18  7 10 13             0.000000091
    523725.241 9    305452.86748  21495674.256    21495673.8644   21495683.1284
        -0.000          -0.000
  -1283194.765 9   -994255.58849  21349899.793    21349899.0524   21349907.9294
        -0.000          -0.000
   1849669.083 9   1424424.62346  23533951.976    23533951.5244   23533962.8754
        -0.000          -0.000
  -1645704.043 9  -1276384.37049  20490477.826    20490477.4184   20490485.5714
        -0.000          -0.000
   2491789.296 9   1923048.59046  23973840.889    23973840.6054   23973855.2814
        -0.000          -0.000
  -3406995.552 9  -2630990.42547  22636050.790    22636050.3294   22636062.9834
        -0.000          -0.000
    161451.313 8    119741.73345  24607035.416    24607035.1234   24607049.0364
        -0.000          -0.000
   -151732.271 9   -119548.90149  20640341.054    20640341.1494   20640348.0774
        -0.000          -0.000
 99  3  4 17 34 30.0000000  0  8 19  2 31 27 18  7 10 13             0.000000082
    570125.331 9    341608.66048  21504503.980    21504503.5724   21504512.9274
        -0.000          -0.000
  -1302387.131 9  -1009210.70849  21346247.638    21346246.9114   21346255.7974
        -0.000          -0.000
   1943821.998 9   1497790.34446  23551868.802    23551868.3314   23551879.8454
        -0.000          -0.000
  -1677098.094 9  -1300847.30849  20484503.789    20484503.4134   20484511.4904
        -0.000          -0.000
   2605369.442 9   2011552.21845  23995454.847    23995454.5524   23995469.1744
        -0.000          -0.000
  -3503083.697 9  -2705864.24347  22617765.776    22617765.3664   22617777.7754
        -0.000          -0.000
    218445.062 8    164152.25345  24617880.961    24617880.7354   24617894.8544
        -0.000          -0.000
   -125407.617 9    -99036.25649  20645350.461    20645350.6014   20645357.5794
        -0.000          -0.000
 99  3  4 17 35  0.0000000  0  8 19  2 31 27 18  7 10 13             0.000000079
    616836.084 9    378006.53248  21513392.737    21513392.3194   21513401.7764
        -0.000          -0.000
  -1321343.373 9  -1023981.80949  21342640.405    21342639.6784   21342648.6294
        -0.000          -0.000
   2038307.120 9   1571414.92746  23569848.766    23569848.3244   23569859.8154
        -0.000          -0.000
  -1708189.775 9  -1325074.61349  20478587.338    20478586.9394   20478594.9774
        -0.000          -0.000
   2719023.121 9   2100113.11745  24017082.831    24017082.5194   24017097.1894
        -0.000          -0.000
  -3598920.076 9  -2780541.88947  22599528.907    22599528.3824   22599540.5744
        -0.000          -0.000
    275661.492 8    208736.30945  24628769.181    24628768.8984   24628782.9334
        -0.000          -0.000
    -98496.394 9    -78066.53049  20650471.531    20650471.6764   20650478.7044
        -0.000          -0.000
 99  3  4 17 35 30.0000000  0  8 19  2 31 27 18  7 10 13             0.000000075
    663840.959 9    414633.57948  21522337.572    21522337.1164   21522346.6704
        -0.000          -0.000
  -1340088.977 9  -1038588.79449  21339073.387    21339072.6374   21339081.4554
        -0.000          -0.000
   2133102.881 9   1645281.56046  23587887.946    23587887.6444   23587898.9454
        -0.000          -0.000
  -1739006.465 9  -1349087.65149  20472723.174    20472722.7894   20472730.7574
        -0.000          -0.000
   2832724.010 8   2188710.80545  24038719.606    24038719.2904   24038734.1394
        -0.000          -0.000
  -3694526.868 9  -2855040.60547  22581335.447    22581334.9374   22581347.1704
        -0.000          -0.000
    333096.351 8    253490.53345  24639698.930    24639698.4814   24639712.7384
        -0.000          -0.000
    -71020.360 9    -56656.69849  20655700.137    20655700.2564   20655707.3284
        -0.000          -0.000
 99  3  4 17 36  0.0000000  0  8 19  2 31 27 18  7 10 13             0.000000064
    711137.131 9    451487.61948  21531337.809    21531337.3754   21531347.0184
        -0.000          -0.000
  -1358646.602 9  -1053049.29249  21335541.998    21335541.2124   21335550.0994
        -0.000          -0.000
   2228178.925 9   1719366.61646  23605980.311    23605980.0804   23605991.4264
        -0.000          -0.000
  -1769556.993 9  -1372893.28449  20466909.683    20466909.2444   20466917.3134
        -0.000          -0.000
   2946458.468 8   2277334.65045  24060362.858    24060362.5984   24060377.5934
        -0.000          -0.000
  -3789923.400 9  -2929375.47847  22563182.041    22563181.5344   22563193.8244
        -0.000          -0.000
    390748.791 9    298414.29745  24650670.187    24650669.6654   24650683.9134
        -0.000          -0.000
    -42998.908 9    -34821.86049  20661032.557    20661032.6744   20661039.7484
        -0.000          -0.000
 99  3  4 17 36 30.0000000  0  8 19  2 31 27 18  7 10 13             0.000000065
    758753.953 9    488591.51848  21540399.049    21540398.6424   21540408.3234
        -0.000          -0.000
  -1377001.165 9  -1067351.55949  21332049.166    21332048.4404   21332057.3994
        -0.000          -0.000
   2323561.237 9   1793690.28846  23624131.013    23624130.7654   23624142.1894
        -0.000          -0.000
  -1799832.546 9  -1396484.64949  20461148.385    20461148.0024   20461156.1554
        -0.000          -0.000
   3060245.220 8   2365999.23445  24082016.124    24082015.8374   24082030.9584
        -0.000          -0.000
  -3885101.247 9  -3003539.95147  22545070.269    22545069.7734   22545082.1244
        -0.000          -0.000
    448637.676 8    343522.33145  24661686.454    24661685.7004   24661700.0174
        -0.000          -0.000
    -14422.952 9    -12554.94249  20666470.487    20666470.6204   20666477.6684
        -0.000          -0.000
 99  3  4 17 37  0.0000000  0  8 19  2 31 27 18  7 10 13             0.000000064
    806660.402 9    525921.08548  21549515.494    21549515.0714   21549524.7144
        -0.000          -0.000
  -1395175.040 9  -1081513.04349  21328590.890    21328590.1644   21328599.0184
        -0.000          -0.000
   2419231.024 9   1868237.99046  23642336.615    23642336.2214   23642347.7974
        -0.000          -0.000
  -1829864.912 9  -1419886.50749  20455433.479    20455433.0484   20455441.1954
        -0.000          -0.000
   3174057.485 8   2454683.71545  24103674.211    24103673.8034   24103689.1054
        -0.000          -0.000
  -3980076.499 9  -3077546.56447  22526997.076    22526996.6344   22527008.9874
        -0.000          -0.000
    506731.767 8    388790.27345  24672741.690    24672740.9564   24672755.0924
        -0.000          -0.000
     14679.996 9     10122.61749  20672008.668    20672008.7664   20672015.8444
        -0.000          -0.000
 99  3  4 17 37 30.0000000  0  8 19  2 31 27 18  7 10 13             0.000000053
    854862.552 9    563481.08448  21558688.182    21558687.7714   21558697.3354
        -0.000          -0.000
  -1413172.860 9  -1095537.32649  21325166.042    21325165.2854   21325174.1994
        -0.000          -0.000
   2515177.371 9   1943001.19246  23660594.811    23660594.3614   23660606.0524
        -0.000          -0.000
  -1859636.404 9  -1443085.09749  20449768.129    20449767.7304   20449775.9324
        -0.000          -0.000
   3287909.108 8   2543398.84045  24125339.654    24125339.4344   24125354.6694
        -0.000          -0.000
  -4074852.147 9  -3151397.63547  22508961.925    22508961.4704   22508973.8244
        -0.000          -0.000
    565013.061 8    434204.08445  24683832.604    24683831.5504   24683845.8244
        -0.000          -0.000
     44324.215 9     33221.95049  20677649.830    20677649.9014   20677656.9824
        -0.000          -0.000
 99  3  4 17 38  0.0000000  0  8 19  2 31 27 18  7 10 13             0.000000045
    903397.137 9    601300.13248  21567924.062    21567923.6974   21567933.2664
        -0.000          -0.000
  -1430960.642 9  -1109397.95049  21321781.135    21321780.4284   21321789.3754
        -0.000          -0.000
   2611433.162 9   2018005.51946  23678911.765    23678911.3804   23678923.0844
        -0.000          -0.000
  -1889116.429 9  -1466056.56549  20444158.282    20444157.8744   20444166.0884
        -0.000          -0.000
   3401842.352 9   2632177.57045  24147020.771    24147020.5654   24147035.8084
        -0.000          -0.000
  -4169400.098 9  -3225071.27447  22490970.014    22490969.5264   22490981.8714
        -0.000          -0.000
    623484.356 8    479765.94445  24694959.293    24694958.3064   24694972.5364
        -0.000          -0.000
     74540.218 9     56766.82349  20683399.713    20683399.8504   20683407.0034
        -0.000          -0.000
 99  3  4 17 38 30.0000000  0  8 19  2 31 27 18  7 10 13             0.000000028
    952248.079 9    639365.67748  21577220.072    21577219.7024   21577229.4834
        -0.000          -0.000
  -1448550.030 9  -1123103.98849  21318434.008    21318433.2764   21318442.2184
        -0.000          -0.000
   2707988.389 9   2093243.16746  23697285.956    23697285.4304   23697297.1524
        -0.000          -0.000
  -1918322.455 9  -1488814.53949  20438600.597    20438600.2014   20438608.3874
        -0.000          -0.000
   3515840.971 9   2721007.22845  24168714.273    24168714.0574   24168729.4574
        -0.000          -0.000
  -4263734.889 9  -3298578.80347  22473018.635    22473018.1234   22473030.4964
        -0.000          -0.000
    682108.713 8    525447.07345  24706115.148    24706114.2044   24706128.1854
        -0.000          -0.000
    105321.849 9     80752.44949  20689257.284    20689257.4354   20689264.6074
        -0.000          -0.000
 99  3  4 17 39  0.0000000  0  8 19  2 31 27 18  7 10 13             0.000000018
   1001436.745 9    677694.38348  21586580.389    21586580.0724   21586589.9674
        -0.000          -0.000
  -1465920.662 9  -1136639.55349  21315128.479    21315127.7744   21315136.7254
        -0.000          -0.000
   2804857.621 9   2168725.50146  23715719.865    23715719.2194   23715731.0384
        -0.000          -0.000
  -1947223.090 9  -1511334.54149  20433101.053    20433100.6494   20433108.7674
        -0.000          -0.000
   3629932.376 9   2809909.20446  24190425.435    24190425.1864   24190440.7844
        -0.000          -0.000
  -4357810.294 9  -3371884.21347  22455116.564    22455116.0474   22455128.4454
        -0.000          -0.000
    740916.091 8    571270.80445  24717305.966    24717304.8354   24717318.8874
        -0.000          -0.000
    136708.133 9    105209.23449  20695230.014    20695230.1104   20695237.2344
        -0.000          -0.000
 99  3  4 17 39 30.0000000  0  8 19  2 31 27 18  7 10 13             0.000000009
   1050965.596 9    716288.17448  21596005.454    21596005.1274   21596015.0874
        -0.000          -0.000
  -1483089.325 9  -1150017.74549  21311861.481    21311860.7364   21311869.7064
        -0.000          -0.000
   2902030.006 9   2244444.08346  23734211.429    23734210.7474   23734222.6584
        -0.000          -0.000
  -1975822.155 9  -1533619.55049  20427658.874    20427658.4764   20427666.5774
        -0.000          -0.000
   3744105.647 9   2898874.95046  24212152.374    24212152.0154   24212167.5944
        -0.000          -0.000
  -4451629.175 9  -3444989.72947  22437263.331    22437262.8464   22437275.2324
        -0.000          -0.000
    799899.789 9    617231.93845  24728530.403    24728529.3254   24728543.4094
        -0.000          -0.000
    168693.992 9    130133.21649  20701316.715    20701316.8174   20701323.9994
        -0.000          -0.000
 99  3  4 17 40  0.0000000  0  8 19  2 31 27 18  7 10 13             0.000000003
   1100826.050 9    755140.37048  21605493.606    21605493.3184   21605503.2964
        -0.000          -0.000
  -1500061.747 9  -1163243.03149  21308631.757    21308631.0214   21308639.9934
        -0.000          -0.000
   2999497.683 9   2320392.74546  23752759.091    23752758.4274   23752770.4764
        -0.000          -0.000
  -2004124.989 9  -1555673.73749  20422273.003    20422272.6054   20422280.7764
        -0.000          -0.000
   3858337.700 9   2987886.50646  24233890.381    24233890.0674   24233905.5694
        -0.000          -0.000
  -4545192.105 9  -3517895.79847  22419458.912    22419458.4224   22419470.8134
        -0.000          -0.000
    859059.757 9    663330.42945  24739788.354    24739787.2314   24739801.5964
        -0.000          -0.000
    201252.458 9    155503.37949  20707512.362    20707512.5374   20707519.7784
        -0.000          -0.000
 99  3  4 17 40 30.0000000  0  8 19  2 31 27 18  7 10 13            -0.000000015
   1150981.420 9    794222.35748  21615038.045    21615037.7014   21615047.7154
        -0.000          -0.000
  -1516866.949 9  -1176338.00549  21305433.876    21305433.1554   21305442.0884
        -0.000          -0.000
   3097224.720 9   2396543.50146  23771355.946    23771355.4024   23771367.4784
        -0.000          -0.000
  -2032139.450 9  -1577503.21749  20416942.038    20416941.6854   20416949.9334
        -0.000          -0.000
   3972586.239 9   3076910.90246  24255631.410    24255631.0754   24255646.7524
        -0.000          -0.000
  -4638522.112 9  -3590620.36547  22401698.844    22401698.2674   22401710.6624
        -0.000          -0.000
    918393.081 8    709564.00346  24751079.298    24751078.2944   24751092.8424
        -0.000          -0.000
    234356.272 9    181298.49349  20713811.924    20713812.0564   20713819.2774
        -0.000          -0.000
 99  3  4 17 41  0.0000000  0  8 19  2 31 27 18  7 10 13            -0.000000006
   1201470.917 9    833564.69048  21624646.034    21624645.6594   21624655.7554
        -0.000          -0.000
  -1533455.634 9  -1189264.25649  21302277.134    21302276.4214   21302285.3714
        -0.000          -0.000
   3195263.106 9   2472936.89546  23790012.204    23790011.5584   23790023.7064
        -0.000          -0.000
  -2059806.806 9  -1599062.22349  20411677.172    20411676.7904   20411685.0634
        -0.000          -0.000
   4086901.200 9   3165987.05246  24277385.046    24277384.8454   24277400.5504
        -0.000          -0.000
  -4731559.900 9  -3663117.22647  22383994.196    22383993.6644   22384006.0654
        -0.000          -0.000
    977958.439 8    755978.39045  24762414.556    24762413.5684   24762428.1714
        -0.000          -0.000
    268047.167 9    207551.07549  20720223.142    20720223.2684   20720230.5394
        -0.000          -0.000
 99  3  4 17 41 30.0000000  0  8 19  2 31 27 18  7 10 13            -0.000000007
   1252235.387 9    873121.28548  21634306.259    21634305.9314   21634316.0914
        -0.000          -0.000
  -1549885.691 9  -1202066.90749  21299150.619    21299149.9254   21299158.8274
        -0.000          -0.000
   3293553.328 9   2549526.52146  23808716.514    23808715.6994   23808727.7794
        -0.000          -0.000
  -2087171.433 9  -1620385.33749  20406469.958    20406469.5754   20406477.7824
        -0.000          -0.000
   4201228.469 9   3255072.79646  24299141.176    24299141.0044   24299156.6144
        -0.000          -0.000
  -4824362.043 9  -3735430.48147  22366334.416    22366333.9294   22366346.2554
        -0.000          -0.000
   1037690.726 8    802522.86245  24773781.097    24773780.3794   24773795.0624
        -0.000          -0.000
    302255.852 9    234207.12349  20726732.848    20726733.0314   20726740.3364
        -0.000          -0.000
 99  3  4 17 42  0.0000000  0  7 19  2 31 27 18  7 13                0.000000007
   1303287.298 9    912901.87748  21644021.168    21644020.8764   21644031.0224
        -0.000          -0.000
  -1566132.657 9  -1214726.88349  21296058.927    21296058.2064   21296067.0864
        -0.000          -0.000
   3392111.908 9   2626325.26446  23827471.842    23827470.9954   23827483.1114
        -0.000          -0.000
  -2114213.520 9  -1641457.11849  20401324.024    20401323.6184   20401331.8464
        -0.000          -0.000
   4315589.520 9   3344184.86046  24320903.745    24320903.3894   24320919.1784
        -0.000          -0.000
  -4916909.931 9  -3807545.60347  22348723.134    22348722.6514   22348734.8824
        -0.000          -0.000
    336996.776 9    261277.90749  20733343.918    20733344.0844   20733351.3974
        -0.000          -0.000
 99  3  4 17 42 30.0000000  0  7 19  2 31 27 18  7 13                0.000000010
   1354623.833 9    952904.24948  21653790.317    21653790.0334   21653800.1624
        -0.000          -0.000
  -1582194.289 9  -1227242.44349  21293002.557    21293001.8414   21293010.7274
        -0.000          -0.000
   3490953.880 9   2703344.81746  23846280.945    23846280.1444   23846292.3774
        -0.000          -0.000
  -2140925.449 9  -1662271.63549  20396240.871    20396240.4874   20396248.7454
        -0.000          -0.000
   4430006.228 9   3433340.28546  24342676.905    24342676.5154   24342692.3214
        -0.000          -0.000
  -5009175.324 9  -3879440.60047  22331165.671    22331165.1164   22331177.2904
        -0.000          -0.000
    372303.807 9    288789.81649  20740062.748    20740062.8934   20740070.1494
        -0.000          -0.000
 99  3  4 17 43  0.0000000  0  7 19  2 31 27 18  7 13                0.000000022
   1406225.438 9    993113.16748  21663609.831    21663609.5554   21663619.7504
        -0.000          -0.000
  -1598109.013 9  -1239643.54149  21289974.118    21289973.3884   21289982.2754
        -0.000          -0.000
   3590058.975 8   2780569.40546  23865140.009    23865139.3184   23865151.5694
        -0.000          -0.000
  -2167349.662 9  -1682861.96949  20391212.534    20391212.1574   20391220.3934
        -0.000          -0.000
   4544443.724 9   3522511.91146  24364453.907    24364453.5294   24364469.4974
        -0.000          -0.000
  -5101173.389 9  -3951127.29147  22313658.936    22313658.3764   22313670.4954
        -0.000          -0.000
    408151.964 9    316723.36949  20746884.495    20746884.6704   20746891.8944
        -0.000          -0.000
 99  3  4 17 43 30.0000000  0  7 19  2 31 27 18  7 13                0.000000047
   1458127.820 9   1033556.44648  21673486.598    21673486.3374   21673496.5784
        -0.000          -0.000
  -1613846.173 9  -1251906.27549  21286979.430    21286978.6914   21286987.6084
        -0.000          -0.000
   3689442.110 8   2858010.64646  23884051.955    23884051.1764   23884063.5994
        -0.000          -0.000
  -2193467.728 9  -1703213.73449  20386242.463    20386242.0684   20386250.3444
        -0.000          -0.000
   4658918.816 9   3611712.82546  24386238.087    24386237.6994   24386253.8024
        -0.000          -0.000
  -5192889.373 9  -4022594.17847  22296205.823    22296205.2584   22296217.4314
        -0.000          -0.000
    444571.175 9    345101.90349  20753814.865    20753815.0724   20753822.2874
        -0.000          -0.000
 99  3  4 17 44  0.0000000  0  7 19  2 31 27 18  7 13                0.000000078
   1510319.100 9   1074224.85748  21683418.383    21683418.1024   21683428.3554
        -0.000          -0.000
  -1629416.660 9  -1264039.12049  21284016.418    21284015.7324   21284024.7174
        -0.000          -0.000
   3789095.624 8   2935662.56945  23903015.566    23903014.6774   23903027.1274
        -0.000          -0.000
  -2219308.352 9  -1723349.30949  20381325.195    20381324.7924   20381333.1164
        -0.000          -0.000
   4773403.795 9   3700921.44546  24408024.229    24408023.7864   24408040.0974
        -0.000          -0.000
  -5284354.542 9  -4093865.61247  22278800.291    22278799.7884   22278812.0694
        -0.000          -0.000
    481550.695 9    373917.05549  20760852.029    20760852.1514   20760859.3294
        -0.000          -0.000
 99  3  4 17 44 30.0000000  0  8 19  2 31 27 18  7 26 13             0.000000133
   1562793.407 9   1115113.79648  21693404.035    21693403.7594   21693414.0144
        -0.000          -0.000
  -1644837.507 9  -1276055.37349  21281081.954    21281081.2444   21281090.2094
        -0.000          -0.000
   3889000.854 8   3013510.61245  23922027.010    23922026.0164   23922038.5764
        -0.000          -0.000
  -2244891.906 9  -1743284.57649  20376456.935    20376456.5034   20376464.8214
        -0.000          -0.000
   4887872.865 9   3790117.64746  24429807.322    24429806.8174   24429823.3194
        -0.000          -0.000
  -5375578.191 9  -4164948.86547  22261440.874    22261440.3864   22261452.6904
        -0.000          -0.000
  -2556085.270 8  -1979366.03045  24637152.504    24637152.3744   24637163.8994
        -0.000          -0.000
    519071.806 9    403154.21049  20767992.162    20767992.2384   20767999.4604
        -0.000          -0.000
 99  3  4 17 45  0.0000000  0  8 19  2 31 27 18  7 26 13             0.000000099
   1615567.678 9   1156236.47148  21703446.765    21703446.5174   21703456.7474
        -0.000          -0.000
  -1660095.788 9  -1287944.96449  21278178.385    21278177.6844   21278186.5894
        -0.000          -0.000
   3989140.473 8   3091541.33145  23941082.802    23941082.1134   23941094.5754
        -0.000          -0.000
  -2270221.789 9  -1763022.18449  20371636.776    20371636.4004   20371644.7404
        -0.000          -0.000
   5002316.390 9   3879293.95945  24451585.527    24451585.0484   24451601.7174
        -0.000          -0.000
  -5466581.067 9  -4235860.09147  22244123.645    22244123.1144   22244135.3564
        -0.000          -0.000
  -2645896.382 8  -2049348.74145  24620062.144    24620062.1044   24620073.2574
        -0.000          -0.000
    557109.851 9    432794.16649  20775230.450    20775230.6374   20775237.9394
        -0.000          -0.000
 99  3  4 17 45 30.0000000  0  8 19  2 31 27 18  7 26 13             0.000000086
   1668707.944 9   1197644.33948  21713559.145    21713558.8764   21713569.1304
        -0.000          -0.000
  -1675104.215 9  -1299639.84349  21275322.351    21275321.6714   21275330.6724
        -0.000          -0.000
   4089572.757 8   3169800.07345  23960194.378    23960193.8334   23960206.3634
        -0.000          -0.000
  -2295215.595 9  -1782497.90349  20366880.601    20366880.2324   20366888.5984
        -0.000          -0.000
   5116817.221 9   3968514.91645  24473374.419    24473374.0754   24473390.9054
        -0.000          -0.000
  -5557302.432 9  -4306551.96347  22226859.988    22226859.3954   22226871.5804
        -0.000          -0.000
  -2735428.543 8  -2119114.08745  24603024.621    24603024.8804   24603035.8904
        -0.000          -0.000
    595718.314 9    462878.61149  20782577.447    20782577.6114   20782584.8884
        -0.000          -0.000
 99  3  4 17 46  0.0000000  0  8 19  2 31 27 18  7 26 13             0.000000080
   1722179.599 9   1239310.42748  21723734.665    21723734.3514   21723744.6634
        -0.000          -0.000
  -1689915.769 9  -1311181.32949  21272503.904    21272503.2224   21272512.1314
        -0.000          -0.000
   4190261.385 9   3248258.58145  23979355.034    23979354.4294   23979367.0884
        -0.000          -0.000
  -2319893.186 9  -1801727.22849  20362184.599    20362184.2134   20362192.5854
        -0.000          -0.000
   5231343.577 8   4057755.75345  24495168.235    24495168.1074   24495185.1404
        -0.000          -0.000
  -5647773.606 9  -4377048.89347  22209643.793    22209643.2044   22209655.4734
        -0.000          -0.000
  -2824703.837 8  -2188679.26845  24586035.910    24586036.1924   24586046.9874
        -0.000          -0.000
    634844.860 9    493366.75649  20790023.085    20790023.1764   20790030.4164
        -0.000          -0.000
 99  3  4 17 46 30.0000000  0  8 19  2 31 27 18  7 26 13             0.000000078
   1775975.920 9   1281229.50048  21733971.990    21733971.6244   21733981.9874
        -0.000          -0.000
  -1704531.617 9  -1322570.30849  21269722.656    21269721.9284   21269730.8324
        -0.000          -0.000
   4291183.299 9   3326898.88845  23998559.978    23998559.2734   23998571.9474
        -0.000          -0.000
  -2344250.488 9  -1820706.97849  20357549.590    20357549.2224   20357557.5474
        -0.000          -0.000
   5345888.480 8   4147011.02545  24516965.730    24516965.6174   24516982.9514
        -0.000          -0.000
  -5737985.025 9  -4447343.41247  22192476.927    22192476.4194   22192488.8194
        -0.000          -0.000
  -2913714.519 8  -2258038.24245  24569097.890    24569097.8584   24569108.8594
        -0.000          -0.000
    674483.902 9    524254.24749  20797566.186    20797566.3344   20797573.5674
        -0.000          -0.000
 99  3  4 17 47  0.0000000  0  8 19  2 31 27 18  7 26 13             0.000000081
   1830092.730 9   1323398.31248  21744270.066    21744269.7654   21744280.1124
        -0.000          -0.000
  -1718951.188 9  -1333806.34249  21266978.730    21266978.0174   21266986.9484
        -0.000          -0.000
   4392341.363 9   3405723.18646  24017809.863    24017809.2764   24017821.8024
        -0.000          -0.000
  -2368272.330 9  -1839425.33349  20352978.402    20352978.0464   20352986.3524
        -0.000          -0.000
   5460455.145 8   4236283.24845  24538767.626    24538767.3334   24538784.8514
        -0.000          -0.000
  -5827935.229 9  -4517434.38547  22175359.884    22175359.3184   22175371.7504
        -0.000          -0.000
  -3002452.853 9  -2327185.00845  24552211.683    24552211.4984   24552222.6194
        -0.000          -0.000
    714644.945 9    555548.49249  20805208.668    20805208.8044   20805216.0534
        -0.000          -0.000
 99  3  4 17 47 30.0000000  0  8 19  2 31 27 18  7 26 13             0.000000096
   1884529.525 9   1365816.46848  21754629.155    21754628.8844   21754639.1924
        -0.000          -0.000
  -1733179.387 9  -1344893.26949  21264271.295    21264270.5324   21264279.4184
        -0.000          -0.000
   4493753.871 9   3484745.74046  24037108.213    24037107.7364   24037120.1864
        -0.000          -0.000
  -2391945.289 9  -1857871.83549  20348473.688    20348473.3254   20348481.5994
        -0.000          -0.000
   5575047.160 8   4325575.20745  24560574.298    24560573.9174   24560591.7114
        -0.000          -0.000
  -5917601.201 9  -4587303.88447  22158296.988    22158296.4114   22158308.7284
        -0.000          -0.000
  -3090913.274 8  -2396115.23245  24535378.116    24535378.0114   24535389.2554
        -0.000          -0.000
    755347.076 9    587264.35549  20812954.121    20812954.1624   20812961.4954
        -0.000          -0.000
 99  3  4 17 48  0.0000000  0  8 19  2 31 27 18  7 26 13             0.000000103
   1939255.252 9   1408459.76148  21765043.257    21765042.9844   21765053.3154
        -0.000          -0.000
  -1747255.101 9  -1355861.37349  21261592.728    21261592.0264   21261600.8734
        -0.000          -0.000
   4595390.463 9   3563942.92546  24056449.022    24056448.6574   24056461.1654
        -0.000          -0.000
  -2415306.411 9  -1876075.33749  20344028.259    20344027.8734   20344036.1514
        -0.000          -0.000
   5689622.169 8   4414853.92745  24582377.927    24582377.3444   24582394.9094
        -0.000          -0.000
  -6006995.632 9  -4656961.80247  22141285.835    22141285.2274   22141297.3914
        -0.000          -0.000
  -3179121.921 8  -2464849.25545  24518592.295    24518592.3924   24518603.6884
        -0.000          -0.000
    796581.800 9    619395.22549  20820800.755    20820800.9094   20820808.3174
        -0.000          -0.000
 99  3  4 17 48 30.0000000  0  8 19  2 31 27 18  7 26 13             0.000000102
   1994256.825 9   1451317.98748  21775509.802    21775509.5284   21775519.9724
        -0.000          -0.000
  -1761171.126 9  -1366705.04849  21258944.704    21258943.9794   21258952.7904
        -0.000          -0.000
   4697245.333 9   3643310.19546  24075831.507    24075831.0684   24075843.8424
        -0.000          -0.000
  -2438371.928 9  -1894048.49849  20339638.985    20339638.6514   20339647.0144
        -0.000          -0.000
   5804176.732 8   4504116.69545  24604177.511    24604176.9704   24604194.3124
        -0.000          -0.000
  -6096111.154 9  -4726402.40047  22124327.662    22124327.1474   22124339.1094
        -0.000          -0.000
  -3267084.515 8  -2533391.55045  24501853.462    24501853.5704   24501865.0014
        -0.000          -0.000
    838365.097 9    651953.55149  20828751.873    20828752.0954   20828759.5294
        -0.000          -0.000
 99  3  4 17 49  0.0000000  0  8 19  2 31 27 18  7 26 13             0.000000111
   2049555.926 9   1494408.05948  21786032.965    21786032.6634   21786043.1974
        -0.000          -0.000
  -1774903.899 9  -1377405.92349  21256331.404    21256330.6884   21256339.5614
        -0.000          -0.000
   4799354.952 9   3722875.97646  24095262.654    24095262.1474   24095274.7514
        -0.000          -0.000
  -2461117.766 9  -1911772.56249  20335310.691    20335310.3184   20335318.7524
        -0.000          -0.000
   5918746.080 8   4593390.96945  24625979.810    24625979.0984   24625996.7734
        -0.000          -0.000
  -6184918.033 9  -4795602.48947  22107428.292    22107427.7164   22107439.5464
        -0.000          -0.000
  -3354789.049 8  -2601732.73745  24485163.720    24485163.8044   24485175.7114
        -0.000          -0.000
    880722.860 9    684959.52749  20836812.496    20836812.5754   20836820.0794
        -0.000          -0.000
 99  3  4 17 49 30.0000000  0  8 19  2 31 27 18  7 26 13             0.000000116
   2105133.366 9   1537715.02448  21796609.166    21796608.8714   21796619.3714
        -0.000          -0.000
  -1788472.136 9  -1387978.59649  21253749.462    21253748.7364   21253757.6594
        -0.000          -0.000
   4901686.639 9   3802614.79446  24114736.009    24114735.3364   24114748.0414
        -0.000          -0.000
  -2483578.297 9  -1929274.30849  20331036.595    20331036.2264   20331044.6424
        -0.000          -0.000
   6033312.383 8   4682662.82745  24647781.394    24647780.9564   24647798.5684
        -0.000          -0.000
  -6273436.066 9  -4864577.50447  22090583.808    22090583.2784   22090595.0344
        -0.000          -0.000
  -3442259.254 8  -2669891.35945  24468518.593    24468518.6274   24468530.9214
        -0.000          -0.000
    923621.917 9    718387.28348  20844975.899    20844976.0034   20844983.6204
        -0.000          -0.000
 99  3  4 17 50  0.0000000  0  8 19  2 31 27 18  7 26 13             0.000000113
   2160988.941 9   1581238.73148  21807238.237    21807237.9834   21807248.4544
        -0.000          -0.000
  -1801882.402 9  -1398428.17249  21251197.565    21251196.8624   21251205.8104
        -0.000          -0.000
   5004225.023 9   3882514.68846  24134248.634    24134248.0474   24134260.5924
        -0.000          -0.000
  -2505756.591 9  -1946556.12349  20326816.285    20326815.9284   20326824.2304
        -0.000          -0.000
   6147874.663 8   4771931.55645  24669582.143    24669581.9434   24669599.4594
        -0.000          -0.000
  -6361677.275 9  -4933336.81847  22073792.034    22073791.4524   22073803.1684
        -0.000          -0.000
  -3529501.101 8  -2737872.01645  24451917.069    24451917.1104   24451929.4214
        -0.000          -0.000
    967051.404 9    752228.35548  20853240.218    20853240.4324   20853248.0404
        -0.000          -0.000
 99  3  4 17 50 30.0000000  0  8 19  2 31 27 18  7 26 13             0.000000101
   2217136.999 9   1624990.34448  21817922.962    21817922.6964   21817933.1774
        -0.000          -0.000
  -1815123.113 9  -1408745.62949  21248678.008    21248677.2874   21248686.2354
        -0.000          -0.000
   5106977.003 9   3962581.02046  24153801.873    24153801.3414   24153813.7294
        -0.000          -0.000
  -2527643.120 9  -1963610.58349  20322651.528    20322651.1114   20322659.4164
        -0.000          -0.000
   6262437.217 8   4861200.51745  24691382.786    24691382.8624   24691400.5824
        -0.000          -0.000
  -6449642.515 9  -5001881.09247  22057052.690    22057052.1514   22057063.9344
        -0.000          -0.000
  -3616518.754 8  -2805677.99245  24435358.146    24435358.2434   24435370.7084
        -0.000          -0.000
   1010997.338 9    786471.86548  20861602.990    20861603.1334   20861610.7524
        -0.000          -0.000
 99  3  4 17 51  0.0000000  0  8 19  2 31 27 18  7 26 13             0.000000101
   2273622.012 9   1669004.51548  21828671.823    21828671.5254   21828682.0984
        -0.000          -0.000
  -1828165.347 9  -1418908.42449  21246196.108    21246195.3754   21246204.4234
        -0.000          -0.000
   5209972.549 9   4042837.12345  24173401.359    24173400.8824   24173413.2044
        -0.000          -0.000
  -2549198.822 9  -1980407.26049  20318549.519    20318549.1814   20318557.5004
        -0.000          -0.000
   6377016.013 8   4950482.10444  24713186.441    24713188.2754   24713205.9554
        -0.000          -0.000
  -6537290.924 9  -5070178.48147  22040373.640    22040373.1674   22040385.0024
        -0.000          -0.000
  -3703269.576 8  -2873276.02045  24418849.932    24418849.9824   24418862.6654
        -0.000          -0.000
   1055479.909 9    821133.52948  20870067.852    20870067.9224   20870075.6334
        -0.000          -0.000
 99  3  4 17 51 30.0000000  0  8 19  2 31 27 18  7 26 13             0.000000084
   2330403.815 9   1713249.94548  21839477.047    21839476.7654   21839487.4564
        -0.000          -0.000
  -1841069.090 9  -1428963.31649  21243740.492    21243739.8054   21243748.8274
        -0.000          -0.000
   5313165.388 9   4123246.96845  24193038.666    24193038.0784   24193050.3534
        -0.000          -0.000
  -2570441.969 9  -1996960.37749  20314507.172    20314506.7904   20314515.0734
        -0.000          -0.000
   6491553.528 7   5039731.52044  24734982.220    24734983.8574   24735002.2764
        -0.000          -0.000
  -6624666.463 9  -5138263.25247  22023746.649    22023746.1184   22023757.9284
        -0.000          -0.000
  -3789778.604 8  -2940685.64145  24402387.588    24402387.6694   24402400.5624
        -0.000          -0.000
   1100455.106 9    856179.04448  20878626.232    20878626.4484   20878634.2094
        -0.000          -0.000
 99  3  4 17 52  0.0000000  0  8 19  2 31 27 18  7 26 13             0.000000064
   2387502.465 9   1757742.27548  21850342.570    21850342.3724   21850353.1064
        -0.000          -0.000
  -1853814.009 9  -1438894.44049  21241315.240    21241314.5244   21241323.5514
        -0.000          -0.000
   5416585.424 9   4203833.85945  24212719.174    24212718.4034   24212730.7204
        -0.000          -0.000
  -2591331.287 9  -2013237.79049  20310532.060    20310531.6914   20310540.0404
        -0.000          -0.000
   6606062.184 7   5128958.40444  24756772.629    24756774.1424   24756792.9614
        -0.000          -0.000
  -6711746.451 9  -5206117.71747  22007175.838    22007175.2704   22007187.0434
        -0.000          -0.000
  -3876015.884 9  -3007883.52545  24385977.090    24385977.3894   24385990.2354
        -0.000          -0.000
   1145943.819 9    891624.70948  20887282.543    20887282.7954   20887290.4134
        -0.000          -0.000
 99  3  4 17 52 30.0000000  0  8 19  2 31 27 18  7 26 13             0.000000065
   2444942.859 9   1802500.90848  21861273.281    21861273.0654   21861283.7224
        -0.000          -0.000
  -1866348.886 9  -1448661.89049  21238929.914    21238929.2254   21238938.2624
        -0.000          -0.000
   5520267.435 9   4284624.89245  24232449.460    24232448.6844   24232460.9814
        -0.000          -0.000
  -2611824.683 9  -2029206.69449  20306632.396    20306632.0514   20306640.3274
        -0.000          -0.000
   6720571.680 7   5218185.95444  24778563.299    24778564.4084   24778583.4774
        -0.000          -0.000
  -6798485.060 9  -5273706.16447  21990669.828    21990669.2974   21990681.1094
        -0.000          -0.000
  -3961931.802 9  -3074830.99245  24369627.958    24369628.1774   24369641.0874
        -0.000          -0.000
   1191980.411 9    927497.30148  20896043.388    20896043.4204   20896050.9564
        -0.000          -0.000
 99  3  4 17 53  0.0000000  0  8 19  2 31 27 15  7 26 13             0.000000082
   2502657.258 9   1847473.03648  21872256.159    21872255.9624   21872266.5334
        -0.000          -0.000
  -1878745.846 9  -1458321.89049  21236571.016    21236570.2884   21236579.2154
        -0.000          -0.000
   5624137.702 9   4365562.63245  24252215.503    24252214.7514   24252227.0734
        -0.000          -0.000
  -2631966.837 9  -2044901.90549  20302799.603    20302799.1854   20302807.4204
        -0.000          -0.000
   -948914.770 9   -728227.23252         0.000           0.0004          0.0005
        -0.000          -0.000
  -6884945.768 9  -5341078.08347  21974216.833    21974216.2974   21974228.0784
        -0.000          -0.000
  -4047575.041 9  -3141565.99045  24353330.591    24353330.6704   24353343.7474
        -0.000          -0.000
   1238514.969 9    963757.89948  20904898.534    20904898.6504   20904906.2664
        -0.000          -0.000
 99  3  4 17 53 30.0000000  0  8 19  2 31 27 15  7 26 13             0.000000036
   2560693.519 9   1892695.97148  21883300.249    21883300.0364   21883310.6064
        -0.000          -0.000
  -1890942.256 9  -1467825.59049  21234250.036    21234249.3154   21234258.3454
        -0.000          -0.000
   5728242.306 9   4446682.96945  24272026.269    24272025.3664   24272037.5834
        -0.000          -0.000
  -2651706.186 9  -2060283.23549  20299043.208    20299042.8554   20299051.1344
        -0.000          -0.000
  -1003268.78418   -770580.89545         0.000           0.0005   24235837.8094
        -0.000          -0.000
  -6971093.877 9  -5408206.40448  21957823.302    21957822.7864   21957834.5684
        -0.000          -0.000
  -4132902.006 9  -3208054.55745  24337093.480    24337093.5604   24337106.5944
        -0.000          -0.000
   1285589.447 9   1000439.22848  20913856.528    20913856.7584   20913864.3604
        -0.000          -0.000
 99  3  4 17 54  0.0000000  0  8 19  2 31 27 15  7 26 13             0.000000042
   2619063.295 9   1938178.76947  21894407.729    21894407.5074   21894418.1434
        -0.000          -0.000
  -1902903.782 9  -1477146.28649  21231973.896    21231973.1914   21231982.1534
        -0.000          -0.000
   5832572.857 8   4527979.34945  24291879.952    24291878.9024   24291891.0974
        -0.000          -0.000
  -2671069.830 9  -2075371.80649  20295358.504    20295358.1164   20295366.3994
        -0.000          -0.000
  -1057286.706 9   -812672.67845  24225539.969    24225542.2464   24225558.2094
        -0.000          -0.000
  -7056908.423 9  -5475074.81048  21941493.191    21941492.7014   21941504.4994
        -0.000          -0.000
  -4217910.690 9  -3274295.10645  24320916.903    24320916.9794   24320929.8644
        -0.000          -0.000
   1333204.441 9   1037541.74148  20922917.660    20922917.7054   20922925.2724
        -0.000          -0.000
 99  3  4 17 54 30.0000000  0  8 19  2 31 27 15  7 26 13             0.000000050
   2677739.206 9   1983900.12347  21905573.399    21905573.2174   21905583.9904
        -0.000          -0.000
  -1914667.002 9  -1486312.44449  21229735.448    21229734.7014   21229743.7114
        -0.000          -0.000
   5937091.827 8   4609422.57245  24311769.349    24311768.2534   24311780.5694
        -0.000          -0.000
  -2690093.779 9  -2090195.68449  20291738.290    20291737.9224   20291746.2954
        -0.000          -0.000
  -1110995.664 9   -854523.63345  24215320.909    24215320.4624   24215337.0814
        -0.000          -0.000
  -7142404.082 9  -5541694.73547  21925223.836    21925223.3144   21925235.1064
        -0.000          -0.000
  -4302632.614 9  -3340312.17645  24304794.870    24304795.0504   24304807.9164
        -0.000          -0.000
   1381339.982 9   1075049.87848  20932077.530    20932077.5744   20932085.2854
        -0.000          -0.000
 99  3  4 17 55  0.0000000  0  8 19  2 31 27 15  7 26 13             0.000000049
   2736716.344 9   2029856.20847  21916796.566    21916796.3774   21916807.1104
        -0.000          -0.000
  -1926274.124 9  -1495356.98149  21227526.719    21227526.0194   21227535.0244
        -0.000          -0.000
   6041782.553 8   4690999.64045  24331691.132    24331690.2924   24331702.4174
        -0.000          -0.000
  -2708802.148 9  -2104773.65849  20288178.218    20288177.8874   20288186.2754
        -0.000          -0.000
  -1164407.235 9   -896142.89045  24205156.970    24205156.3094   24205173.1484
        -0.000          -0.000
  -7227590.788 9  -5608073.91447  21909013.176    21909012.7364   21909024.5444
        -0.000          -0.000
  -4387083.381 9  -3406117.97045  24288724.424    24288724.5664   24288737.4184
        -0.000          -0.000
   1429973.464 9   1112945.99648  20941332.081    20941332.3374   20941340.1184
        -0.000          -0.000
 99  3  4 17 55 30.0000000  0  8 19  2 31 27 15  7 26 13             0.000000044
   2795974.505 9   2076031.28347  21928073.236    21928072.9914   21928083.6404
        -0.000          -0.000
  -1937733.586 9  -1504286.44249  21225346.086    21225345.3504   21225354.4254
        -0.000          -0.000
   6146640.065 8   4772706.65845  24351644.691    24351643.9584   24351656.0224
        -0.000          -0.000
  -2727221.607 9  -2119126.49949  20284673.176    20284672.8334   20284681.2574
        -0.000          -0.000
  -1217524.691 9   -937532.99445  24195049.327    24195048.5964   24195065.4824
        -0.000          -0.000
  -7312465.987 9  -5674210.35548  21892861.965    21892861.5274   21892873.2984
        -0.000          -0.000
  -4471275.970 9  -3471722.60445  24272703.015    24272703.1174   24272715.9914
        -0.000          -0.000
   1479086.475 9   1151215.79948  20950678.222    20950678.3274   20950686.1274
        -0.000          -0.000
 99  3  4 17 56  0.0000000  0  8 19  2 31 27 15  7 26 13             0.000000055
   2855532.110 9   2122439.67547  21939406.743    21939406.4854   21939417.2124
        -0.000          -0.000
  -1949049.299 9  -1513103.89049  21223192.682    21223191.9904   21223201.1594
        -0.000          -0.000
   6251684.626 9   4854559.44045  24371634.038    24371633.4084   24371645.3674
        -0.000          -0.000
  -2745324.015 9  -2133232.28949  20281228.431    20281228.0684   20281236.4814
        -0.000          -0.000
  -1270319.766 9   -978671.88545  24185002.889    24185002.0524   24185018.7594
        -0.000          -0.000
  -7397004.030 9  -5740084.07848  21876774.930    21876774.4544   21876786.1704
        -0.000          -0.000
  -4555184.831 9  -3537106.13845  24256735.623    24256735.6014   24256748.5864
        -0.000          -0.000
   1528716.556 9   1189888.51048  20960122.639    20960122.6494   20960130.4204
        -0.000          -0.000
 99  3  4 17 56 30.0000000  0  8 19  2 31 27 15  7 26 13             0.000000060
   2915372.419 9   2169068.32047  21950794.050    21950793.7814   21950804.6004
        -0.000          -0.000
  -1960259.465 9  -1521839.12149  21221059.463    21221058.7874   21221067.8944
        -0.000          -0.000
   6356910.463 9   4936553.43745  24391657.985    24391657.2684   24391669.4024
        -0.000          -0.000
  -2763096.086 9  -2147080.70049  20277846.515    20277846.1794   20277854.5114
        -0.000          -0.000
  -1322808.148 9  -1019571.77545  24175014.538    24175013.7964   24175030.5844
        -0.000          -0.000
  -7481247.169 9  -5805728.01348  21860743.929    21860743.4824   21860755.2424
        -0.000          -0.000
  -4638818.661 8  -3602275.34845  24240820.821    24240820.9194   24240833.6504
        -0.000          -0.000
   1578857.076 9   1228958.93448  20969663.908    20969664.1134   20969671.9014
        -0.000          -0.000
 99  3  4 17 57  0.0000000  0  8 19  2 31 27 15  7 26 13             0.000000073
   2975519.921 9   2215936.35947  21962239.879    21962239.5974   21962250.4044
        -0.000          -0.000
  -1971330.269 9  -1530465.72949  21218952.771    21218952.0854   21218961.2054
        -0.000          -0.000
   6462342.459 9   5018708.10345  24411721.081    24411720.3074   24411732.5014
        -0.000          -0.000
  -2780519.900 9  -2160657.71549  20274530.873    20274530.5054   20274538.8674
        -0.000          -0.000
  -1374967.171 9  -1060215.02145  24165089.106    24165088.2884   24165105.2164
        -0.000          -0.000
  -7565188.979 9  -5871137.13048  21844770.292    21844769.8304   21844781.6294
        -0.000          -0.000
  -4722148.016 8  -3667207.31445  24224963.954    24224963.9764   24224976.7134
        -0.000          -0.000
   1629530.668 9   1268444.76648  20979306.866    20979307.0584   20979314.8764
        -0.000          -0.000
 99  3  4 17 57 30.0000000  0  8 19  2 31 27 15  7 26 13             0.000000079
   3035975.046 9   2263044.10347  21973744.188    21973743.9234   21973754.7034
        -0.000          -0.000
  -1982233.778 9  -1538961.98849  21216877.986    21216877.2914   21216886.3964
        -0.000          -0.000
   6567973.548 8   5101017.88845  24431822.204    24431821.4014   24431833.4574
        -0.000          -0.000
  -2797590.059 9  -2173959.16849  20271282.487    20271282.1634   20271290.5244
        -0.000          -0.000
  -1426795.420 9  -1100600.55245  24155226.335    24155225.4864   24155242.6254
        -0.000          -0.000
  -7648846.865 9  -5936325.01448  21828850.657    21828850.1524   21828861.9444
        -0.000          -0.000
  -4805176.462 8  -3731904.78345  24209164.382    24209164.3244   24209176.8644
        -0.000          -0.000
   1680744.390 9   1308351.47248  20989052.794    20989052.8514   20989060.6034
        -0.000          -0.000
 99  3  4 17 58  0.0000000  0  8 19  2 31 27 15  7 26 13             0.000000081
   3096755.470 9   2310405.32947  21985310.361    21985310.1464   21985320.9124
        -0.000          -0.000
  -1992951.312 9  -1547313.33049  21214838.470    21214837.8034   21214846.8604
        -0.000          -0.000
   6673813.071 8   5183490.10645  24451963.030    24451962.1094   24451974.0814
        -0.000          -0.000
  -2814285.968 9  -2186968.99649  20268105.499    20268105.1434   20268113.4684
        -0.000          -0.000
  -1478282.313 9  -1140720.05045  24145428.869    24145427.8884   24145444.6024
        -0.000          -0.000
  -7732222.587 9  -6001293.03548  21812984.606    21812984.1554   21812996.0114
        -0.000          -0.000
  -4887883.069 8  -3796351.45945  24193426.145    24193425.8704   24193438.2674
        -0.000          -0.000
   1732502.190 9   1348682.13148  20998901.940    20998902.0824   20998909.8054
        -0.000          -0.000
 99  3  4 17 58 30.0000000  0  8 19  2 31 27 15  7 26 13             0.000000073
   3157850.515 9   2358011.70647  21996936.471    21996936.2284   21996947.1114
        -0.000          -0.000
  -2003468.349 9  -1555508.42749  21212837.143    21212836.4794   21212845.5884
        -0.000          -0.000
   6779854.638 8   5266119.75745  24472142.141    24472141.3294   24472153.3114
        -0.000          -0.000
  -2830615.834 9  -2199693.58649  20264998.047    20264997.6944   20265006.0864
        -0.000          -0.000
  -1529429.278 9  -1180574.71145  24135695.787    24135694.7664   24135711.6444
        -0.000          -0.000
  -7815305.685 9  -6066033.03648  21797174.417    21797173.9904   21797185.8014
        -0.000          -0.000
  -4970275.741 8  -3860553.49945  24177747.298    24177747.0054   24177759.4164
        -0.000          -0.000
   1784786.054 9   1389422.71848  21008851.152    21008851.4254   21008859.1794
        -0.000          -0.000
 99  3  4 17 59  0.0000000  0  8 19  2 31 27 15  7 26 13             0.000000056
   3219238.462 9   2405846.31747  22008618.320    22008618.0814   22008629.0794
        -0.000          -0.000
  -2013789.228 9  -1563550.67849  21210873.217    21210872.5584   21210881.6214
        -0.000          -0.000
   6886076.265 8   5348889.72845  24492355.462    24492354.7854   24492366.9874
        -0.000          -0.000
  -2846596.655 9  -2212146.18949  20261957.050    20261956.6794   20261965.1094
        -0.000          -0.000
  -1580238.703 9  -1220166.33645  24126027.097    24126026.1894   24126042.7544
        -0.000          -0.000
  -7898079.906 9  -6130532.35548  21781423.037    21781422.5754   21781434.2904
        -0.000          -0.000
  -5052368.855 9  -3924522.11245  24162125.535    24162125.1994   24162137.4604
        -0.000          -0.000
   1837569.255 9   1430552.40448  21018895.728    21018895.8614   21018903.5964
        -0.000          -0.000
 99  3  4 17 59 30.0000000  0  8 19  2 31 27 15  7 26 13             0.000000044
   3280942.759 9   2453927.43047  22020360.436    22020360.1524   22020371.2044
        -0.000          -0.000
  -2023894.109 9  -1571424.61749  21208950.323    21208949.6304   21208958.7334
        -0.000          -0.000
   6992491.813 8   5431810.80345  24512605.657    24512604.8974   24512617.4354
        -0.000          -0.000
  -2862179.932 9  -2224289.02549  20258991.638    20258991.2524   20258999.7424
        -0.000          -0.000
  -1630676.636 8  -1259468.45145  24116428.929    24116428.0864   24116444.5714
        -0.000          -0.000
  -7980501.559 9  -6194756.94148  21765738.717    21765738.2234   21765749.8874
        -0.000          -0.000
  -5134137.702 9  -3988238.06746  24146565.630    24146565.2014   24146577.2944
        -0.000          -0.000
   1890871.212 9   1472086.31048  21029038.777    21029038.8794   21029046.6434
        -0.000          -0.000
 99  3  4 18  0  0.0000000  0  8 19  2 31 27 15  7 26 13             0.000000035
   3342954.070 9   2502247.78447  22032160.935    22032160.6324   22032171.7074
        -0.000          -0.000
  -2033810.487 9  -1579151.68349  21207063.365    21207062.6764   21207071.7044
        -0.000          -0.000
   7099089.634 8   5514873.90045  24532890.515    24532889.8044   24532902.6114
        -0.000          -0.000
  -2877374.536 9  -2236128.99949  20256100.167    20256099.8344   20256108.2904
        -0.000          -0.000
  -1680752.306 9  -1298488.36945  24106899.531    24106898.6514   24106915.4324
        -0.000          -0.000
  -8062557.137 9  -6258696.27648  21750123.932    21750123.4834   21750135.0944
        -0.000          -0.000
  -5215592.579 9  -4051709.36946  24131065.245    24131064.9614   24131077.0664
        -0.000          -0.000
   1944677.083 9   1514012.86648  21039277.590    21039277.8514   21039285.6594
        -0.000          -0.000
 99  3  4 18  0 30.0000000  0  7 19  2 27 15  7 26 13                0.000000003
   3405266.750 9   2550802.96147  22044018.722    22044018.4134   22044029.5384
        -0.000          -0.000
  -2043563.762 9  -1586751.62949  21205207.361    21205206.6814   21205215.8294
        -0.000          -0.000
  -2892190.499 9  -2247673.92549  20253280.875    20253280.5054   20253288.9104
        -0.000          -0.000
  -1730468.121 9  -1337227.82945  24097438.954    24097438.0524   24097454.6864
        -0.000          -0.000
  -8144240.615 9  -6322345.66148  21734580.062    21734579.6044   21734591.1434
        -0.000          -0.000
  -5296745.067 9  -4114945.04146  24115622.434    24115622.1824   24115634.3204
        -0.000          -0.000
   1998988.323 9   1556333.22448  21049612.898    21049613.0564   21049620.8344
        -0.000          -0.000
 99  3  4 18  1  0.0000000  0  7 19  2 27 15  7 26 13                0.000000019
   3467920.819 9   2599624.16647  22055941.522    22055941.2194   22055952.3034
        -0.000          -0.000
  -2053132.940 9  -1594208.14449  21203386.473    21203385.7914   21203394.8284
        -0.000          -0.000
  -2906605.306 9  -2258906.26349  20250537.902    20250537.4854   20250545.9424
        -0.000          -0.000
  -1779797.241 8  -1375666.01245  24088051.556    24088050.6004   24088067.5964
        -0.000          -0.000
  -8225534.292 9  -6385691.30348  21719110.414    21719109.9134   21719121.3654
        -0.000          -0.000
  -5377562.247 9  -4177919.43946  24100243.167    24100243.0094   24100255.2634
        -0.000          -0.000
   2053830.356 9   1599067.19248  21060049.077    21060049.1514   21060057.0364
        -0.000          -0.000
 99  3  4 18  1 30.0000000  0  7 19  2 27 15  7 26 13                0.000000029
   3530884.890 9   2648686.92447  22067923.258    22067922.9454   22067934.0494
        -0.000          -0.000
  -2062570.900 9  -1601562.40649  21201590.446    21201589.7654   21201598.7814
        -0.000          -0.000
  -2920671.700 9  -2269867.11549  20247861.116    20247860.7574   20247869.1924
        -0.000          -0.000
  -1828790.972 9  -1413842.80645  24078728.191    24078727.4344   24078744.4174
        -0.000          -0.000
  -8306488.143 9  -6448772.15448  21703705.328    21703704.8284   21703716.2604
        -0.000          -0.000
  -5458085.314 9  -4240664.63946  24084920.054    24084919.9974   24084932.1954
        -0.000          -0.000
   2109161.982 9   1642182.63848  21070578.205    21070578.4124   21070586.4144
        -0.000          -0.000
 99  3  4 18  2  0.0000000  0  7 19  2 27 15  7 26 13                0.000000047
   3594160.500 9   2697992.43347  22079964.229    22079963.9494   22079975.1384
        -0.000          -0.000
  -2071873.657 9  -1608811.30549  21199820.253    21199819.5404   21199828.6734
        -0.000          -0.000
  -2934406.464 9  -2280569.54449  20245247.522    20245247.1374   20245255.5304
        -0.000          -0.000
  -1877443.800 9  -1451754.03045  24069469.714    24069468.9334   24069486.0324
        -0.000          -0.000
  -8387101.338 9  -6511587.53848  21688365.096    21688364.6084   21688376.0974
        -0.000          -0.000
  -5538294.833 8  -4303165.48846  24069656.604    24069656.4844   24069668.8804
        -0.000          -0.000
   2164984.504 9   1685680.62248  21081200.976    21081201.1884   21081209.2724
        -0.000          -0.000
 99  3  4 18  2 30.0000000  0  7 19  2 27 15  7 26 13                0.000000068
   3657734.137 9   2747530.19147  22092062.033    22092061.7444   22092072.9644
        -0.000          -0.000
  -2081058.353 9  -1615968.20349  21198072.446    21198071.7404   21198080.8734
        -0.000          -0.000
  -2947817.822 9  -2291019.96849  20242695.462    20242695.0944   20242703.5124
        -0.000          -0.000
  -1925761.634 9  -1489404.17045  24060275.238    24060274.4484   24060291.0974
        -0.000          -0.000
  -8467393.789 9  -6574152.98748  21673085.976    21673085.4164   21673096.9244
        -0.000          -0.000
  -5618190.530 8  -4365421.83845  24054452.852    24054452.7194   24054465.1214
        -0.000          -0.000
   2221279.456 9   1729546.73748  21091913.651    21091913.7824   21091921.9584
        -0.000          -0.000
 99  3  4 18  3  0.0000000  0  7 19  2 27 15  7 26 13                0.000000076
   3721589.024 9   2797287.09247  22104213.407    22104213.0814   22104224.3294
        -0.000          -0.000
  -2090132.950 9  -1623039.32949  21196345.695    21196344.9664   21196354.0934
        -0.000          -0.000
  -2960922.999 9  -2301231.82449  20240201.686    20240201.3304   20240209.7244
        -0.000          -0.000
  -1973762.813 9  -1526807.57345  24051140.936    24051140.1024   24051156.7524
        -0.000          -0.000
  -8547389.049 9  -6636486.88548  21657863.397    21657862.7844   21657874.2154
        -0.000          -0.000
  -5697789.241 8  -4427446.75945  24039305.618    24039305.4654   24039317.8764
        -0.000          -0.000
   2278015.395 9   1773756.44748  21102710.184    21102710.3574   21102718.5654
        -0.000          -0.000
 99  3  4 18  3 30.0000000  0  7 19  2 27 15  7 26 13                0.000000087
   3785738.271 9   2847273.36547  22116420.709    22116420.3914   22116431.7034
        -0.000          -0.000
  -2099076.204 9  -1630008.08349  21194643.821    21194643.0944   21194652.3154
        -0.000          -0.000
  -2973693.359 9  -2311182.76649  20237771.633    20237771.2434   20237779.6034
        -0.000          -0.000
  -2021421.766 9  -1563944.34645  24042071.624    24042070.7614   24042087.4854
        -0.000          -0.000
  -8627064.339 9  -6698571.44248  21642701.629    21642701.0004   21642712.3614
        -0.000          -0.000
  -5777058.238 9  -4489214.76645  24024221.257    24024221.2374   24024233.3804
        -0.000          -0.000
   2335209.308 9   1818323.03648  21113593.886    21113594.1134   21113602.3264
        -0.000          -0.000
 99  3  4 18  4  0.0000000  0  7 19  2 27 15  7 26 13                0.000000090
   3850155.304 9   2897468.29247  22128678.988    22128678.6944   22128690.0304
        -0.000          -0.000
  -2107901.400 9  -1636884.88049  21192964.426    21192963.7074   21192972.8314
        -0.000          -0.000
  -2986136.499 9  -2320878.73949  20235403.721    20235403.3524   20235411.7714
        -0.000          -0.000
  -2068747.447 9  -1600821.36145  24033065.832    24033065.1154   24033081.4084
        -0.000          -0.000
  -8706441.069 9  -6760423.36148  21627596.707    21627596.0874   21627607.4014
        -0.000          -0.000
  -5856005.845 9  -4550732.34945  24009198.076    24009198.1084   24009210.1184
        -0.000          -0.000
   2392840.297 9   1863230.20548  21124560.832    21124560.9814   21124569.2374
        -0.000          -0.000
 99  3  4 18  4 30.0000000  0  7 19  2 27 15  7 26 13                0.000000088
   3914870.140 9   2947895.29447  22140993.891    22140993.6494   22141004.9854
        -0.000          -0.000
  -2116580.862 9  -1643648.09049  21191312.660    21191311.9704   21191321.2484
        -0.000          -0.000
  -2998203.471 9  -2330281.59549  20233107.439    20233107.1014   20233115.5574
        -0.000          -0.000
  -2115710.345 8  -1637415.73045  24024129.117    24024128.3124   24024144.6494
        -0.000          -0.000
  -8785493.147 9  -6822022.29448  21612553.565    21612552.9414   21612564.2444
        -0.000          -0.000
  -5934618.715 9  -4611989.09946  23994238.670    23994238.5854   23994250.3524
        -0.000          -0.000
   2450934.725 9   1908498.48548  21135615.858    21135616.0274   21135624.3084
        -0.000          -0.000
 99  3  4 18  5  0.0000000  0  7 19  2 27 15  7 26 13                0.000000068
   3979866.981 9   2998542.03547  22153362.477    22153362.2664   22153373.5974
        -0.000          -0.000
  -2125111.704 9  -1650295.51149  21189689.388    21189688.6944   21189697.8464
        -0.000          -0.000
  -3009895.840 9  -2339392.55249  20230882.509    20230882.1524   20230890.5844
        -0.000          -0.000
  -2162316.237 9  -1673731.92445  24015260.225    24015259.3424   24015275.8474
        -0.000          -0.000
  -8864223.134 9  -6883370.24148  21597571.739    21597571.0434   21597582.3814
        -0.000          -0.000
  -6012912.187 9  -4672996.96846  23979340.057    23979339.9584   23979351.5544
        -0.000          -0.000
   2509481.627 9   1954119.34348  21146757.027    21146757.2344   21146765.5084
        -0.000          -0.000
 99  3  4 18  5 30.0000000  0  7 19  2 27 15  7 26 13                0.000000059
   4045178.862 9   3049434.26047  22165791.106    22165790.8324   22165802.1864
        -0.000          -0.000
  -2133463.842 9  -1656803.66449  21188100.011    21188099.2944   21188108.4524
        -0.000          -0.000
  -3021162.833 9  -2348172.04449  20228738.441    20228738.1164   20228746.5274
        -0.000          -0.000
  -2208518.519 9  -1709733.58945  24006468.276    24006467.4294   24006483.6954
        -0.000          -0.000
  -8942581.395 9  -6944428.53548  21582660.607    21582659.8964   21582671.2274
        -0.000          -0.000
  -6090838.445 9  -4733718.69346  23964511.081    23964511.0654   23964522.7634
        -0.000          -0.000
   2568532.518 9   2000132.93648  21157994.207    21157994.3754   21158002.6094
        -0.000          -0.000
 99  3  4 18  6  0.0000000  0  7 19  2 27 15  7 26 13                0.000000048
   4110796.066 9   3100564.38547  22178277.777    22178277.5074   22178288.8834
        -0.000          -0.000
  -2141652.104 9  -1663184.14049  21186541.849    21186541.1824   21186550.2914
        -0.000          -0.000
  -3032007.333 9  -2356622.34249  20226674.822    20226674.4854   20226682.9814
        -0.000          -0.000
  -2254327.112 9  -1745428.51245  23997750.972    23997750.1544   23997766.5394
        -0.000          -0.000
  -9020564.313 9  -7005194.36648  21567820.971    21567820.2494   21567831.5054
        -0.000          -0.000
  -6168426.234 9  -4794176.67746  23949746.467    23949746.5464   23949758.2154
        -0.000          -0.000
   2628077.168 9   2046531.25848  21169325.288    21169325.4414   21169333.6624
        -0.000          -0.000
 99  3  4 18  6 30.0000000  0  7 19  2 27 15  7 26 13                0.000000039
   4176731.794 9   3151942.74147  22190824.998    22190824.8214   22190836.2294
        -0.000          -0.000
  -2149658.695 9  -1669423.03549  21185018.181    21185017.5084   21185026.6444
        -0.000          -0.000
  -3042412.788 9  -2364730.51349  20224694.746    20224694.4064   20224702.9264
        -0.000          -0.000
  -2299726.320 9  -1780804.44645  23989111.758    23989110.9644   23989127.4664
        -0.000          -0.000
  -9098146.651 9  -7065648.04348  21553057.572    21553056.8194   21553067.9814
        -0.000          -0.000
  -6245668.512 9  -4854365.42746  23935047.637    23935047.6714   23935059.5784
        -0.000          -0.000
   2688133.784 9   2093328.51748  21180753.716    21180753.9094   21180762.1744
        -0.000          -0.000
 99  3  4 18  7  0.0000000  0  7 19  2 27 15  7 26 13                0.000000043
   4242984.618 9   3203568.16647  22203432.590    22203432.4234   22203443.8374
        -0.000          -0.000
  -2157492.395 9  -1675527.22549  21183527.472    21183526.8394   21183535.9574
        -0.000          -0.000
  -3052409.393 9  -2372520.09849  20222792.439    20222792.1024   20222800.5884
        -0.000          -0.000
  -2344718.543 9  -1815863.24245  23980549.879    23980549.1414   23980565.5874
        -0.000          -0.000
  -9175327.521 9  -7125788.88848  21538370.420    21538369.6874   21538380.8854
        -0.000          -0.000
  -6322558.613 9  -4914279.75946  23920415.757    23920415.8814   23920427.8884
        -0.000          -0.000
   2748697.990 9   2140521.30548  21192278.745    21192278.9604   21192287.2284
        -0.000          -0.000
 99  3  4 18  7 30.0000000  0  7 19  2 27 15  7 26 13                0.000000055
   4309549.180 9   3255436.49647  22216099.550    22216099.3144   22216110.7634
        -0.000          -0.000
  -2165168.717 9  -1681508.78349  21182066.786    21182066.0714   21182075.2324
        -0.000          -0.000
  -3062026.443 9  -2380013.94149  20220962.401    20220962.0594   20220970.5384
        -0.000          -0.000
  -2389320.161 9  -1850617.63845  23972062.392    23972061.6874   23972078.1004
        -0.000          -0.000
  -9252126.219 9  -7185631.94148  21523756.047    21523755.3544   21523766.5054
        -0.000          -0.000
  -6399108.957 9  -4973929.33946  23905848.574    23905848.6564   23905860.9394
        -0.000          -0.000
   2809761.064 9   2188102.82748  21203898.735    21203898.9364   21203907.2184
        -0.000          -0.000
 99  3  4 18  8  0.0000000  0  7 19  2 27 15  7 26 13                0.000000064
   4376416.218 9   3307540.52747  22228824.080    22228823.7654   22228835.3084
        -0.000          -0.000
  -2172694.902 9  -1687373.34749  21180634.641    21180633.9524   21180643.0824
        -0.000          -0.000
  -3071292.490 9  -2387234.26849  20219199.210    20219198.8404   20219207.3524
        -0.000          -0.000
  -2433546.876 9  -1885079.93345  23963646.503    23963645.7234   23963662.0054
        -0.000          -0.000
  -9328570.861 9  -7245199.11148  21509209.072    21509208.3654   21509219.4344
        -0.000          -0.000
  -6475332.274 9  -5033324.09446  23891343.684    23891343.7374   23891356.0364
        -0.000          -0.000
   2871278.931 9   2236038.73248  21215605.181    21215605.3824   21215613.7774
        -0.000          -0.000
 99  3  4 18  8 30.0000000  0  7 19  2 27 15  7 26 13                0.000000069
   4443574.461 9   3359871.47047  22241603.973    22241603.6484   22241615.2694
        -0.000          -0.000
  -2180077.064 9  -1693125.69549  21179229.861    21179229.1554   21179238.2534
        -0.000          -0.000
  -3080220.399 9  -2394191.10549  20217500.297    20217499.9264   20217508.4904
        -0.000          -0.000
  -2477398.449 9  -1919249.96145  23955301.627    23955300.9304   23955317.2954
        -0.000          -0.000
  -9404683.511 9  -7304507.58848  21494725.232    21494724.5224   21494735.5474
        -0.000          -0.000
  -6551218.967 9  -5092456.54146  23876902.823    23876902.8944   23876915.1054
        -0.000          -0.000
   2933236.669 9   2284317.39648  21227395.487    21227395.6904   21227404.0924
        -0.000          -0.000
 99  3  4 18  9  0.0000000  0  7 19  2 27 15  7 26 13                0.000000078
   4511026.361 9   3412431.23847  22254439.708    22254439.4624   22254451.1574
        -0.000          -0.000
  -2187321.753 9  -1698770.91549  21177851.233    21177850.5494   21177859.6514
        -0.000          -0.000
  -3088805.975 9  -2400881.19249  20215866.540    20215866.1774   20215874.7654
        -0.000          -0.000
  -2520868.197 9  -1953122.39745  23947029.772    23947028.9174   23947045.0444
        -0.000          -0.000
  -9480458.814 9  -7363553.19848  21480305.556    21480304.8354   21480315.9054
        -0.000          -0.000
  -6626757.442 9  -5151317.65346  23862528.300    23862528.3754   23862540.7174
        -0.000          -0.000
   2995627.004 9   2332933.14648  21239268.192    21239268.3504   21239276.7574
        -0.000          -0.000
 99  3  4 18  9 30.0000000  0  7 19  2 27 15  7 26 13                0.000000071
   4578755.663 9   3465207.15647  22267328.244    22267328.0294   22267339.7544
        -0.000          -0.000
  -2194437.103 9  -1704315.36249  21176497.269    21176496.5564   21176505.6464
        -0.000          -0.000
  -3097026.572 9  -2407286.89049  20214302.233    20214301.8704   20214310.4494
        -0.000          -0.000
  -2563959.498 9  -1986699.93445  23938829.735    23938828.8844   23938844.9084
        -0.000          -0.000
  -9555901.561 9  -7422339.67248  21465949.127    21465948.4134   21465959.6724
        -0.000          -0.000
  -6701965.132 9  -5209921.00746  23848216.783    23848216.8834   23848229.1944
        -0.000          -0.000
   3058427.673 9   2381868.62648  21251218.845    21251219.0274   21251227.3734
        -0.000          -0.000
 99  3  4 18 10  0.0000000  0  7 19  2 27 15  7 26 13                0.000000057
   4646784.141 9   3518216.21247  22280273.847    22280273.5974   22280285.2624
        -0.000          -0.000
  -2201401.302 9  -1709742.03249  21175172.006    21175171.3144   21175180.3314
        -0.000          -0.000
  -3104833.530 9  -2413370.26349  20212816.675    20212816.2984   20212824.8724
        -0.000          -0.000
  -2606636.686 9  -2019954.84745  23930708.187    23930707.4964   23930723.5964
        -0.000          -0.000
  -9630978.223 9  -7480840.87948  21451662.319    21451661.6344   21451673.0424
        -0.000          -0.000
  -6776816.147 9  -5268246.44246  23833972.995    23833973.1644   23833985.3454
        -0.000          -0.000
   3121665.305 9   2431144.61148  21263252.767    21263252.8864   21263261.1194
        -0.000          -0.000
 99  3  4 18 10 30.0000000  0  7 19  2 27 15  7 26 13                0.000000046
   4715119.874 9   3571464.69447  22293277.915    22293277.6054   22293289.2354
        -0.000          -0.000
  -2208193.377 9  -1715034.57349  21173879.525    21173878.8194   21173887.8854
        -0.000          -0.000
  -3112199.300 9  -2419109.85349  20211415.040    20211414.6694   20211423.2744
        -0.000          -0.000
  -2648880.231 9  -2052871.79345  23922669.389    23922668.8014   23922684.8984
        -0.000          -0.000
  -9705651.880 9  -7539028.06648  21437452.256    21437451.6114   21437463.0194
        -0.000          -0.000
  -6851302.384 9  -5326287.62146  23819798.761    23819798.9964   23819810.9494
        -0.000          -0.000
   3185383.581 9   2480795.11848  21275378.002    21275378.1124   21275386.3914
        -0.000          -0.000
 99  3  4 18 11  0.0000000  0  7 19  2 27 15  7 26 13                0.000000038
   4783772.351 9   3624959.97947  22306342.166    22306341.8504   22306353.5354
        -0.000          -0.000
  -2214816.572 9  -1720195.51149  21172619.180    21172618.4914   21172627.5794
        -0.000          -0.000
  -3119125.021 9  -2424506.53449  20210097.150    20210096.7714   20210105.3694
        -0.000          -0.000
  -2690695.854 9  -2085455.33845  23914712.094    23914711.4804   23914727.6194
        -0.000          -0.000
  -9779914.976 9  -7596895.34048  21423320.409    21423319.7744   21423331.0784
        -0.000          -0.000
  -6925425.214 9  -5384045.63346  23805693.768    23805693.9324   23805705.9344
        -0.000          -0.000
   3249585.621 9   2530822.59348  21287595.183    21287595.3444   21287603.7124
        -0.000          -0.000
 99  3  4 18 11 30.0000000  0  7 19  2 27 15  7 26 13                0.000000033
   4852757.152 9   3678714.21347  22319469.635    22319469.3334   22319481.1164
        -0.000          -0.000
  -2221255.935 9  -1725213.22549  21171393.841    21171393.1594   21171402.1434
        -0.000          -0.000
  -3125596.809 9  -2429549.50149  20208865.557    20208865.2244   20208873.8284
        -0.000          -0.000
  -2732074.186 8  -2117698.12945  23906838.145    23906837.4314   23906853.3974
        -0.000          -0.000
  -9853768.283 9  -7654443.29348  21409266.646    21409265.9744   21409277.2314
        -0.000          -0.000
  -6999170.827 9  -5441509.70746  23791660.552    23791660.6264   23791672.5594
        -0.000          -0.000
   3314282.984 9   2581236.03048  21299906.747    21299906.9214   21299915.2734
        -0.000          -0.000
 99  3  4 18 12  0.0000000  0  7 19  2 27 15  7 26 13                0.000000046
   4922076.748 9   3732729.31447  22332660.705    22332660.4514   22332672.3714
        -0.000          -0.000
  -2227522.141 9  -1730095.99949  21170201.434    21170200.7654   21170209.8084
        -0.000          -0.000
  -3131640.249 9  -2434258.69749  20207715.581    20207715.2404   20207723.8244
        -0.000          -0.000
  -2773023.681 9  -2149606.73945  23899045.823    23899045.0464   23899061.0254
        -0.000          -0.000
  -9927218.063 9  -7711676.80748  21395289.625    21395288.9404   21395300.1834
        -0.000          -0.000
  -7072522.404 9  -5498666.75946  23777702.205    23777702.2504   23777713.9734
        -0.000          -0.000
   3379474.709 9   2632034.68248  21312312.467    21312312.6034   21312320.9264
        -0.000          -0.000
 99  3  4 18 12 30.0000000  0  7 19  2 27 15  7 26 13                0.000000060
   4991689.143 9   3786972.58347  22345907.610    22345907.3304   22345919.3144
        -0.000          -0.000
  -2233655.459 9  -1734875.22849  21169034.422    21169033.7134   21169042.7774
        -0.000          -0.000
  -3137312.137 9  -2438678.36449  20206636.287    20206635.9474   20206644.5344
        -0.000          -0.000
  -2813586.192 8  -2181213.84045  23891326.919    23891326.0194   23891342.1864
        -0.000          -0.000
 -10000303.982 9  -7768626.78948  21381381.789    21381381.0984   21381392.3014
        -0.000          -0.000
  -7145504.675 9  -5555536.02246  23763813.943    23763814.0844   23763825.8804
        -0.000          -0.000
   3445110.129 9   2683179.06848  21324802.590    21324802.6664   21324811.1254
        -0.000          -0.000
 99  3  4 18 13  0.0000000  0  7 19  2 27 15  7 26 13                0.000000074
   5061583.643 9   3841435.69047  22359208.332    22359207.9124   22359219.9444
        -0.000          -0.000
  -2239682.079 9  -1739571.31049  21167887.606    21167886.8974   21167895.8884
        -0.000          -0.000
  -3142627.296 9  -2442820.05249  20205624.863    20205624.5174   20205633.0844
        -0.000          -0.000
  -2853773.450 9  -2212528.51145  23883679.528    23883678.6634   23883694.7584
        -0.000          -0.000
 -10073046.832 9  -7825309.44248  21367539.273    21367538.5514   21367549.6064
        -0.000          -0.000
  -7218118.862 9  -5612118.44046  23749995.767    23749995.9704   23750007.8194
        -0.000          -0.000
   3511163.425 9   2734649.07548  21337372.139    21337372.2544   21337380.7754
        -0.000          -0.000
 99  3  4 18 13 30.0000000  0  7 19  2 27 15  7 26 13                0.000000083
   5131743.901 9   3896105.86647  22372559.465    22372559.1294   22372571.1124
        -0.000          -0.000
  -2245605.635 9  -1744187.08549  21166760.423    21166759.7074   21166768.7304
        -0.000          -0.000
  -3147592.278 9  -2446688.88549  20204680.110    20204679.7714   20204688.2604
        -0.000          -0.000
  -2893581.912 9  -2243548.01445  23876104.172    23876103.3784   23876119.3544
        -0.000          -0.000
 -10145454.776 9  -7881731.14148  21353760.434    21353759.7204   21353770.6734
        -0.000          -0.000
  -7290370.364 8  -5668418.23546  23736246.642    23736246.8294   23736258.8974
        -0.000          -0.000
   3577634.435 9   2786444.57548  21350021.212    21350021.3184   21350029.8024
        -0.000          -0.000
 99  3  4 18 14  0.0000000  0  7 19  2 27 15  7 26 13                0.000000094
   5202173.918 9   3950986.21147  22385961.776    22385961.6214   22385973.6514
        -0.000          -0.000
  -2251399.004 9  -1748701.41949  21165657.939    21165657.2704   21165666.2834
        -0.000          -0.000
  -3152198.994 9  -2450278.55249  20203803.561    20203803.1684   20203811.6094
        -0.000          -0.000
  -2932994.266 9  -2274258.88545  23868603.949    23868603.2304   23868619.3144
        -0.000          -0.000
 -10217510.071 9  -7937878.05648  21340048.674    21340047.9824   21340058.9114
        -0.000          -0.000
  -7362251.957 9  -5724429.79646  23722567.906    23722568.0684   23722580.1894
        -0.000          -0.000
   3644535.831 9   2838575.43648  21362752.145    21362752.2544   21362760.7514
        -0.000          -0.000
 99  3  4 18 14 30.0000000  0  7 19  2 27 15  7 26 13                0.000000094
   5272869.172 9   4006073.24347  22399414.751    22399414.5484   22399426.6564
        -0.000          -0.000
  -2257049.309 9  -1753104.28249  21164582.788    21164582.0854   21164591.0294
        -0.000          -0.000
  -3156428.146 9  -2453574.01649  20202998.755    20202998.3854   20203006.8484
        -0.000          -0.000
  -2972001.375 9  -2304653.96445  23861181.116    23861180.4394   23861196.2944
        -0.000          -0.000
 -10289213.025 9  -7993750.41548  21326403.939    21326403.2884   21326414.2824
        -0.000          -0.000
  -7433773.715 9  -5780160.97946  23708957.812    23708957.9504   23708969.9824
        -0.000          -0.000
   3711875.127 9   2891047.51148  21375566.367    21375566.5234   21375575.1364
        -0.000          -0.000
 99  3  4 18 15  0.0000000  0  7 19  2 27 15  7 26 13                0.000000086
   5343849.226 9   4061382.21047  22412922.014    22412921.7074   22412933.9184
        -0.000          -0.000
  -2262541.695 9  -1757384.07349  21163537.577    21163536.9184   21163546.0084
        -0.000          -0.000
  -3160255.457 9  -2456556.34849  20202270.496    20202270.1094   20202278.5964
        -0.000          -0.000
  -3010584.160 9  -2334718.42845  23853839.113    23853838.3614   23853854.1154
        -0.000          -0.000
 -10360548.483 9  -8049336.39748  21312829.184    21312828.4864   21312839.5534
        -0.000          -0.000
  -7504930.503 9  -5835607.74746  23695417.414    23695417.3844   23695429.3324
        -0.000          -0.000
   3779662.252 9   2943868.54948  21388465.914    21388466.0534   21388474.7564
        -0.000          -0.000
 99  3  4 18 15 30.0000000  0  7 19  2 27 15  7 26 13                0.000000070
   5415124.073 9   4116920.88847  22426485.209    22426485.0474   22426497.2244
        -0.000          -0.000
  -2267852.977 9  -1761522.75349  21162526.960    21162526.2384   21162535.3494
        -0.000          -0.000
  -3163664.728 9  -2459212.94449  20201621.712    20201621.3384   20201629.8354
        -0.000          -0.000
  -3048726.294 9  -2364439.49845  23846580.738    23846579.9564   23846595.9114
        -0.000          -0.000
 -10431501.758 9  -8104624.58948  21299327.184    21299326.5034   21299337.5614
        -0.000          -0.000
  -7575711.230 9  -5890761.51046  23681948.265    23681948.1684   23681960.1714
        -0.000          -0.000
   3847900.530 9   2997041.12448  21401451.307    21401451.4534   21401460.1534
        -0.000          -0.000
 99  3  4 18 16  0.0000000  0  7 19  2 27 15  7 26 13                0.000000046
   5486692.734 9   4172688.50447  22440104.481    22440104.3494   22440116.4644
        -0.000          -0.000
  -2272980.736 9  -1765518.43149  21161551.100    21161550.4734   21161559.5714
        -0.000          -0.000
  -3166642.572 9  -2461533.35749  20201055.037    20201054.6814   20201063.1894
        -0.000          -0.000
  -3086425.061 9  -2393815.05346  23839406.957    23839406.0924   23839421.9694
        -0.000          -0.000
 -10502047.000 9  -8159594.84148  21285902.886    21285902.2364   21285913.2054
        -0.000          -0.000
  -7646109.495 9  -5945617.26846  23668551.902    23668551.9834   23668563.7054
        -0.000          -0.000
   3916571.195 9   3050550.61748  21414519.015    21414519.1674   21414527.8734
        -0.000          -0.000
 99  3  4 18 16 30.0000000  0  7 19  2 27 15  7 26 13                0.000000021
   5558551.889 9   4228682.49547  22453779.171    22453778.8524   22453790.9614
        -0.000          -0.000
  -2277966.659 9  -1769403.57449  21160602.349    21160601.6614   21160610.8924
        -0.000          -0.000
  -3169204.163 9  -2463529.42049  20200567.565    20200567.2084   20200575.7744
        -0.000          -0.000
  -3123685.496 9  -2422849.10946  23832316.505    23832315.5814   23832331.3894
        -0.000          -0.000
 -10572183.286 9  -8214246.41448  21272556.383    21272555.6864   21272566.6604
        -0.000          -0.000
  -7716126.033 9  -6000175.55646  23655228.278    23655228.1874   23655239.8494
        -0.000          -0.000
   3985656.173 9   3104382.95948  21427665.480    21427665.6764   21427674.4684
        -0.000          -0.000
 99  3  4 18 17  0.0000000  0  7 19  2 27 15  7 26 13                0.000000027
   5630728.115 9   4284923.53847  22467513.860    22467513.6044   22467525.7874
        -0.000          -0.000
  -2282795.354 9  -1773166.21849  21159683.414    21159682.7764   21159691.9724
        -0.000          -0.000
  -3171335.953 9  -2465190.57449  20200161.957    20200161.5894   20200170.1724
        -0.000          -0.000
  -3160474.019 9  -2451515.42146  23825315.784    23825314.9184   23825330.8444
        -0.000          -0.000
 -10641871.352 9  -8268548.71948  21259295.026    21259294.3774   21259305.4354
        -0.000          -0.000
  -7785719.476 8  -6054404.15145  23641984.833    23641984.8554   23641996.3704
        -0.000          -0.000
   4055176.839 9   3158554.79748  21440894.930    21440895.0974   21440903.9414
        -0.000          -0.000
 99  3  4 18 17 30.0000000  0  7 19  2 27 15  7 26 13                0.000000034
   5703157.985 9   4341362.23047  22481296.791    22481296.6424   22481308.8954
        -0.000          -0.000
  -2287538.954 9  -1776862.54149  21158780.885    21158780.1614   21158789.3914
        -0.000          -0.000
  -3173088.268 9  -2466556.03649  20199828.456    20199828.1104   20199836.7474
        -0.000          -0.000
  -3196845.262 9  -2479856.58246  23818394.515    23818393.6994   23818409.6384
        -0.000          -0.000
 -10711163.118 9  -8322542.21948  21246109.207    21246108.5454   21246119.5854
        -0.000          -0.000
  -7854938.022 9  -6108340.61145  23628812.720    23628812.7844   23628824.5644
        -0.000          -0.000
   4125078.797 9   3213023.74048  21454196.968    21454197.1084   21454205.9104
        -0.000          -0.000
 99  3  4 18 18  0.0000000  0  7 19  2 27 15  7 26 13                0.000000051
   5775865.291 9   4398017.09447  22495132.763    22495132.4644   22495144.8404
        -0.000          -0.000
  -2292205.095 9  -1780498.51049  21157892.893    21157892.2064   21157901.4814
        -0.000          -0.000
  -3174460.401 9  -2467625.24949  20199567.387    20199567.0114   20199575.6544
        -0.000          -0.000
  -3232792.087 8  -2507867.03946  23811553.864    23811553.0654   23811569.0364
        -0.000          -0.000
 -10780055.043 9  -8376224.16248  21232999.549    21232998.8414   21233009.7584
        -0.000          -0.000
  -7923775.661 9  -6161980.27246  23615713.243    23615713.2524   23615725.1934
        -0.000          -0.000
   4195372.337 9   3267797.80948  21467573.411    21467573.5884   21467582.3594
        -0.000          -0.000
 99  3  4 18 18 30.0000000  0  7 19  2 27 15  7 26 13                0.000000080
   5848861.862 9   4454897.35647  22509023.669    22509023.3774   22509035.9314
        -0.000          -0.000
  -2296794.024 9  -1784074.31049  21157019.706    21157019.0104   21157028.2014
        -0.000          -0.000
  -3175459.105 9  -2468403.48149  20199377.311    20199376.9624   20199385.6614
        -0.000          -0.000
  -3268315.877 8  -2535547.84246  23804793.919    23804793.0754   23804809.0254
        -0.000          -0.000
 -10848576.044 9  -8429617.05848  21219960.388    21219959.6584   21219970.5564
        -0.000          -0.000
  -7992234.054 9  -6215324.42546  23602685.960    23602686.0204   23602698.0284
        -0.000          -0.000
   4266066.662 9   3322884.18148  21481026.126    21481026.3244   21481035.1654
        -0.000          -0.000
 99  3  4 18 19  0.0000000  0  7 19  2 27 15  7 26 13                0.000000099
   5922147.508 9   4512002.86647  22522969.634    22522969.3924   22522981.9574
        -0.000          -0.000
  -2301278.903 9  -1787569.02749  21156166.267    21156165.5324   21156174.7624
        -0.000          -0.000
  -3176058.147 9  -2468870.29749  20199263.351    20199263.0214   20199271.7074
        -0.000          -0.000
  -3303415.384 8  -2562898.04045  23798114.483    23798113.7794   23798129.6544
        -0.000          -0.000
 -10916731.505 9  -8482725.13448  21206990.692    21206990.0164   21207000.8924
        -0.000          -0.000
  -8060322.878 9  -6268380.61346  23589729.082    23589729.1804   23589741.0214
        -0.000          -0.000
   4337162.453 9   3378283.39048  21494555.410    21494555.5784   21494564.4074
        -0.000          -0.000
 99  3  4 18 19 30.0000000  0  7 19  2 27 15  7 26 13                0.000000096
   5995730.513 9   4569340.09447  22536972.378    22536971.9784   22536984.5564
        -0.000          -0.000
  -2305635.113 9  -1790963.48549  21155337.310    21155336.6054   21155345.7874
        -0.000          -0.000
  -3176233.564 9  -2469007.02149  20199230.027    20199229.6744   20199238.3534
        -0.000          -0.000
  -3338086.692 8  -2589914.59845  23791516.617    23791515.8764   23791531.8154
        -0.000          -0.000
 -10984523.056 9  -8535549.63348  21194090.369    21194089.6874   21194100.5244
        -0.000          -0.000
  -8128041.957 9  -6321148.67546  23576842.674    23576842.6514   23576854.4494
        -0.000          -0.000
   4408660.924 9   3433996.37748  21508161.309    21508161.4304   21508170.2684
        -0.000          -0.000
 99  3  4 18 20  0.0000000  0  7 19  2 27 15  7 26 13                0.000000084
   6069631.188 9   4626924.85047  22551035.330    22551034.9434   22551047.5334
        -0.000          -0.000
  -2309818.057 9  -1794222.93349  21154541.340    21154540.5974   21154549.8304
        -0.000          -0.000
  -3175977.920 9  -2468807.85949  20199278.681    20199278.3414   20199287.0584
        -0.000          -0.000
  -3372308.348 9  -2616580.75545  23785004.477    23785003.7044   23785019.5814
        -0.000          -0.000
 -11051936.759 9  -8588079.71148  21181261.898    21181261.2184   21181272.0234
        -0.000          -0.000
  -8195364.645 9  -6373607.84946  23564031.553    23564031.6304   23564043.3784
        -0.000          -0.000
   4480580.564 9   3490037.52848  21521847.194    21521847.3554   21521856.1994
        -0.000          -0.000
 99  3  4 18 20 30.0000000  0  7 19  2 27 15  7 26 13                0.000000080
   6143846.807 9   4684755.02947  22565158.165    22565157.9364   22565170.4344
        -0.000          -0.000
  -2313796.096 9  -1797322.71849  21153784.214    21153783.5604   21153792.7454
        -0.000          -0.000
  -3175258.946 9  -2468247.65449  20199415.503    20199415.1664   20199423.8894
        -0.000          -0.000
  -3406050.755 8  -2642873.49345  23778583.555    23778582.7604   23778598.6084
        -0.000          -0.000
 -11118934.576 9  -8640285.71648  21168512.585    21168511.8944   21168522.6814
        -0.000          -0.000
  -8262251.534 9  -6425727.45146  23551303.499    23551303.5724   23551315.2264
        -0.000          -0.000
   4552945.056 9   3546425.32948  21535617.844    21535617.9824   21535626.8634
        -0.000          -0.000
 99  3  4 18 21  0.0000000  0  7 19  2 27 15  7 26 13                0.000000060
   6218330.970 9   4742794.46047  22579332.258    22579331.9144   22579344.4784
        -0.000          -0.000
  -2317608.050 9  -1800293.08949  21153058.937    21153058.2234   21153067.4514
        -0.000          -0.000
  -3174108.464 9  -2467351.20849  20199634.499    20199634.1444   20199642.8564
        -0.000          -0.000
  -3439346.633 8  -2668818.30946  23772247.483    23772246.7564   23772262.6124
        -0.000          -0.000
 -11185527.695 9  -8692176.38248  21155840.316    21155839.6274   21155850.3594
        -0.000          -0.000
  -8328733.496 9  -6477531.52746  23538652.482    23538652.5104   23538664.0104
        -0.000          -0.000
   4625713.620 9   3603127.99648  21549465.270    21549465.4154   21549474.4174
        -0.000          -0.000
 99  3  4 18 21 30.0000000  0  7 19  2 27 15  7 26 13                0.000000061
   6293106.009 9   4801060.53947  22593561.562    22593561.1734   22593573.8954
        -0.000          -0.000
  -2321249.540 9  -1803130.63349  21152365.922    21152365.2424   21152374.4574
        -0.000          -0.000
  -3172524.093 9  -2466116.66949  20199936.102    20199935.7254   20199944.3774
        -0.000          -0.000
  -3472170.657 9  -2694395.44146  23766001.260    23766000.6404   23766016.3804
        -0.000          -0.000
 -11251689.026 9  -8743730.58448  21143250.187    21143249.4534   21143260.1724
        -0.000          -0.000
  -8394771.388 9  -6528989.56446  23526086.056    23526086.0694   23526097.4154
        -0.000          -0.000
   4698907.369 9   3660161.97148  21563393.675    21563393.8734   21563402.8584
        -0.000          -0.000
 99  3  4 18 22  0.0000000  0  7 19  2 27 15  7 26 13                0.000000059
   6368139.247 9   4859527.79647  22607839.823    22607839.5294   22607852.3674
        -0.000          -0.000
  -2324769.965 9  -1805873.83849  21151696.152    21151695.4364   21151704.6204
        -0.000          -0.000
  -3170548.752 9  -2464577.47649  20200312.006    20200311.6354   20200320.3054
        -0.000          -0.000
  -3504560.406 9  -2719634.17746  23759837.688    23759837.0774   23759852.7854
        -0.000          -0.000
 -11317442.427 9  -8794966.90548  21130737.526    21130736.8264   21130747.6624
        -0.000          -0.000
  -8460407.342 9  -6580134.38546  23513595.969    23513595.9164   23513607.2964
        -0.000          -0.000
   4772482.968 9   3717493.49648  21577394.745    21577394.9304   21577403.9014
        -0.000          -0.000
 99  3  4 18 22 30.0000000  0  7 19  2 27 15  7 26 13                0.000000051
   6443446.878 9   4918208.87147  22622170.482    22622170.1784   22622183.1624
        -0.000          -0.000
  -2328175.927 9  -1808527.84249  21151048.072    21151047.3644   21151056.5444
        -0.000          -0.000
  -3168149.942 9  -2462708.30849  20200768.542    20200768.1794   20200776.7964
        -0.000          -0.000
  -3536504.405 9  -2744525.58345  23753758.938    23753758.2654   23753774.0404
        -0.000          -0.000
 -11382768.459 9  -8845870.21648  21118306.271    21118305.6214   21118316.4454
        -0.000          -0.000
  -8525645.792 9  -6630969.49046  23501181.513    23501181.4214   23501192.8074
        -0.000          -0.000
   4846447.084 9   3775127.76548  21591469.651    21591469.8274   21591478.9244
        -0.000          -0.000
 99  3  4 18 23  0.0000000  0  7 19  2 27 15  7 26 13                0.000000044
   6519065.950 9   4977132.61747  22636560.406    22636560.1154   22636573.1774
        -0.000          -0.000
  -2331446.691 9  -1811076.51249  21150425.716    21150424.9854   21150434.1304
        -0.000          -0.000
  -3165299.072 9  -2460486.88849  20201311.075    20201310.7234   20201319.3034
        -0.000          -0.000
  -3567979.062 8  -2769051.26045  23747769.495    23747768.7324   23747784.5774
        -0.000          -0.000
 -11447660.075 9  -8896435.03848  21105957.848    21105957.1804   21105967.8434
        -0.000          -0.000
  -8590474.400 9  -6681485.23746  23488845.292    23488845.1614   23488856.3764
        -0.000          -0.000
   4920813.307 9   3833075.36248  21605621.047    21605621.2594   21605630.4664
        -0.000          -0.000
 99  3  4 18 23 30.0000000  0  7 19  2 27 15  7 26 13                0.000000037
   6594984.654 9   5036289.83447  22651007.359    22651007.1544   22651020.1624
        -0.000          -0.000
  -2334595.586 9  -1813530.20149  21149826.489    21149825.7504   21149834.9584
        -0.000          -0.000
  -3162012.576 9  -2457926.01249  20201936.511    20201936.1614   20201944.7704
        -0.000          -0.000
  -3598991.900 9  -2793217.04345  23741867.905    23741867.2074   23741882.9584
        -0.000          -0.000
 -11512138.981 9  -8946678.26348  21093687.969    21093687.2444   21093697.8304
        -0.000          -0.000
  -8654894.101 9  -6731682.36246  23476586.667    23476586.3684   23476597.7724
        -0.000          -0.000
   4995572.323 9   3891329.02448  21619847.305    21619847.5314   21619856.7364
        -0.000          -0.000
 99  3  4 18 24  0.0000000  0  7 19  2 27 15  7 26 13                0.000000035
   6671221.258 9   5095694.77947  22665514.908    22665514.6514   22665527.7224
        -0.000          -0.000
  -2337601.765 9  -1815872.69849  21149254.416    21149253.7364   21149262.8664
        -0.000          -0.000
  -3158252.217 9  -2454995.88949  20202652.130    20202651.7554   20202660.3444
        -0.000          -0.000
  -3629519.917 9  -2817005.03845  23736058.702    23736057.9004   23736073.4784
        -0.000          -0.000
 -11576186.523 9  -8996585.36148  21081500.018    21081499.3124   21081509.9164
        -0.000          -0.000
  -8718891.634 9  -6781550.50546  23464408.077    23464407.8394   23464419.2914
        -0.000          -0.000
   5070748.690 9   3949907.90448  21634152.944    21634153.2174   21634162.3914
        -0.000          -0.000
 99  3  4 18 24 30.0000000  0  7 19  2 27 15  7 26 13                0.000000031
   6747744.964 9   5155323.43947  22680076.944    22680076.6604   22680089.9054
        -0.000          -0.000
  -2340487.186 9  -1818121.08549  21148705.340    21148704.6174   21148713.8074
        -0.000          -0.000
  -3154038.664 9  -2451712.62149  20203453.920    20203453.5604   20203462.1004
        -0.000          -0.000
  -3659572.933 9  -2840422.91346  23730339.828    23730338.9684   23730354.5374
        -0.000          -0.000
 -11639833.501 9  -9046180.32148  21069388.323    21069387.6274   21069398.3324
        -0.000          -0.000
  -8782474.739 9  -6831095.71146  23452308.324    23452308.1454   23452319.7854
        -0.000          -0.000
   5146323.699 9   4008797.41348  21648534.571    21648534.7814   21648544.0044
        -0.000          -0.000
 99  3  4 18 25  0.0000000  0  7 19  2 27 15  7 26 13                0.000000035
   6824546.330 9   5215168.45347  22694691.869    22694691.7214   22694704.9644
        -0.000          -0.000
  -2343241.717 9  -1820267.49449  21148181.108    21148180.4294   21148189.6624
        -0.000          -0.000
  -3149398.688 9  -2448097.08149  20204336.889    20204336.5294   20204345.1044
        -0.000          -0.000
  -3689151.182 9  -2863470.82746  23724711.353    23724710.5544   23724725.9764
        -0.000          -0.000
 -11703077.991 9  -9095461.67048  21057353.180    21057352.5284   21057363.2834
        -0.000          -0.000
  -8845632.613 9  -6880309.57046  23440289.645    23440289.5854   23440301.2194
        -0.000          -0.000
   5222293.064 9   4067994.21148  21662991.205    21662991.3634   21663000.6374
        -0.000          -0.000
 99  3  4 18 25 30.0000000  0  7 19  2 27 15  7 26 13                0.000000042
   6901615.088 9   5275221.80647  22709357.835    22709357.6094   22709370.8674
        -0.000          -0.000
  -2345873.976 9  -1822318.62849  21147680.249    21147679.5564   21147688.7584
        -0.000          -0.000
  -3144348.200 9  -2444161.65649  20205297.968    20205297.6134   20205306.2364
        -0.000          -0.000
  -3718267.220 9  -2886158.54246  23719170.677    23719169.9614   23719185.3244
        -0.000          -0.000
 -11765922.999 9  -9144431.73548  21045394.103    21045393.4374   21045404.1744
        -0.000          -0.000
  -8908372.805 9  -6929197.94946  23428350.566    23428350.4904   23428362.1994
        -0.000          -0.000
   5298647.043 9   4127490.70648  21677520.907    21677521.0744   21677530.3154
        -0.000          -0.000
 99  3  4 18 26  0.0000000  0  7 19  2 27 15  7 26 13                0.000000043
   6978955.497 9   5335486.82247  22724075.311    22724075.1804   22724088.4004
        -0.000          -0.000
  -2348369.868 9  -1824263.49449  21147205.307    21147204.6354   21147213.8334
        -0.000          -0.000
  -3138865.581 9  -2439889.49649  20206341.302    20206340.9314   20206349.6054
        -0.000          -0.000
  -3746908.346 9  -2908476.21046  23713720.258    23713719.6144   23713735.0824
        -0.000          -0.000
 -11828354.729 9  -9193079.75948  21033513.687    21033513.0824   21033523.7384
        -0.000          -0.000
  -8970696.466 9  -6977761.78246  23416490.700    23416490.6324   23416502.2754
        -0.000          -0.000
   5375374.635 9   4187278.33148  21692121.671    21692121.9064   21692131.0914
        -0.000          -0.000
 99  3  4 18 26 30.0000000  0  7 19  2 27 15  7 26 13                0.000000050
   7056582.406 9   5395975.09947  22738847.354    22738847.2634   22738860.4944
        -0.000          -0.000
  -2350694.109 9  -1826074.60649  21146763.048    21146762.3414   21146771.5674
        -0.000          -0.000
  -3132949.424 9  -2435279.52449  20207467.083    20207466.7324   20207475.4474
        -0.000          -0.000
  -3775055.162 9  -2930408.70446  23708364.095    23708363.4424   23708378.9274
        -0.000          -0.000
 -11890349.826 9  -9241387.55448  21021716.449    21021715.7694   21021726.3764
        -0.000          -0.000
  -9032585.054 9  -7025986.60546  23404713.320    23404713.3554   23404725.1834
        -0.000          -0.000
   5452489.884 9   4247368.02648  21706796.413    21706796.5874   21706805.7324
        -0.000          -0.000
 99  3  4 18 27  0.0000000  0  7 19  2 27 15  7 26 13                0.000000052
   7134490.854 9   5456682.75247  22753673.187    22753672.9194   22753686.1684
        -0.000          -0.000
  -2352856.187 9  -1827759.35449  21146351.597    21146350.9164   21146360.0814
        -0.000          -0.000
  -3126607.842 9  -2430338.05249  20208673.898    20208673.5464   20208682.1864
        -0.000          -0.000
  -3802722.826 9  -2951967.81446  23703099.119    23703098.3964   23703113.8764
        -0.000          -0.000
 -11951917.010 9  -9289361.91248  21010000.541    21009999.9104   21010010.4494
        -0.000          -0.000
  -9094054.028 9  -7073884.45246  23393016.002    23393016.1124   23393027.9754
        -0.000          -0.000
   5529980.276 9   4307750.04848  21721542.551    21721542.6584   21721551.8684
        -0.000          -0.000
 99  3  4 18 27 30.0000000  0  7 19  2 27 15  7 26 13                0.000000041
   7212670.656 9   5517601.84847  22768550.334    22768550.2014   22768563.4684
        -0.000          -0.000
  -2354879.121 9  -1829335.68449  21145966.706    21145966.0024   21145975.1774
        -0.000          -0.000
  -3119828.183 9  -2425055.22949  20209964.017    20209963.6534   20209972.2904
        -0.000          -0.000
  -3829909.169 8  -2973151.86346  23697925.595    23697924.7794   23697940.3984
        -0.000          -0.000
 -12013062.705 9  -9337007.84149  20998364.973    20998364.2954   20998374.7824
        -0.000          -0.000
  -9155112.886 9  -7121462.73046  23381396.904    23381397.0164   23381408.7394
        -0.000          -0.000
   5607836.639 9   4368417.22948  21736358.198    21736358.3224   21736367.6134
        -0.000          -0.000
 99  3  4 18 28  0.0000000  0  7 19  2 27 15  7 26 13                0.000000026
   7291120.784 9   5578731.59446  22783479.087    22783478.9264   22783492.1944
        -0.000          -0.000
  -2356759.879 9  -1830801.21749  21145608.757    21145608.0804   21145617.2894
        -0.000          -0.000
  -3112608.322 9  -2419429.37649  20211337.941    20211337.6124   20211346.2474
        -0.000          -0.000
  -3856600.742 8  -2993950.35546  23692846.412    23692845.4754   23692861.1384
        -0.000          -0.000
 -12073769.956 9  -9384312.11448  20986812.756    20986812.0624   20986822.4944
        -0.000          -0.000
  -9215752.948 9  -7168714.67846  23369857.534    23369857.6344   23369869.2104
        -0.000          -0.000
   5686066.730 9   4429375.62948  21751244.990    21751245.1364   21751254.3774
        -0.000          -0.000
 99  3  4 18 28 30.0000000  0  7 19  2 27 15  7 26 13                0.000000020
   7369854.154 9   5640082.06146  22798461.881    22798461.5634   22798474.7814
        -0.000          -0.000
  -2358502.501 9  -1832159.11949  21145277.193    21145276.5104   21145285.7354
        -0.000          -0.000
  -3104960.808 9  -2413470.30049  20212793.291    20212792.8854   20212801.5744
        -0.000          -0.000
  -3882797.464 9  -3014363.28746  23687861.222    23687860.2464   23687875.9534
        -0.000          -0.000
 -12134040.552 9  -9431276.14748  20975343.558    20975342.8734   20975353.2774
        -0.000          -0.000
  -9275961.938 9  -7215630.71446  23358400.108    23358400.1664   23358411.6734
        -0.000          -0.000
   5764676.892 9   4490630.19048  21766204.114    21766204.2804   21766213.4044
        -0.000          -0.000
 99  3  4 18 29  0.0000000  0  6 19 27 15  7 26 13                  -0.000000003
   7448879.629 9   5701660.14046  22813499.972    22813499.7324   22813513.0254
        -0.000          -0.000
  -3096868.115 9  -2407164.32349  20214333.198    20214332.8594   20214341.5494
        -0.000          -0.000
  -3908485.543 9  -3034379.86446  23682972.831    23682971.8804   23682987.4334
        -0.000          -0.000
 -12193861.261 9  -9477889.61749  20963959.932    20963959.2834   20963969.6724
        -0.000          -0.000
  -9335715.767 9  -7262192.10046  23347029.246    23347029.2994   23347040.7254
        -0.000          -0.000
   5843663.268 9   4552177.91048  21781234.899    21781235.0054   21781244.1244
        -0.000          -0.000
 99  3  4 18 29 30.0000000  0  7 19  2 27 15  7 26 13                0.000000054
   7528148.321 9   5763427.73446  22828584.469    22828584.1694   22828597.5954
        -0.000          -0.000
  -1151657.24219   -898151.59348         0.000           0.0005   21144685.6544
        -0.000          -0.000
  -3088372.943 9  -2400544.73249  20215949.815    20215949.4694   20215958.1594
        -0.000          -0.000
  -3933701.396 9  -3054028.45046  23678174.369    23678173.4524   23678188.9084
        -0.000          -0.000
 -12253270.713 9  -9524182.62649  20952654.626    20952653.9794   20952664.3604
        -0.000          -0.000
  -9395046.335 9  -7308423.64746  23335739.001    23335739.1044   23335750.4604
        -0.000          -0.000
   5922987.880 9   4613989.17148  21796329.893    21796330.0454   21796339.2964
        -0.000          -0.000
 99  3  4 18 30  0.0000000  0  7 19  2 27 15  7 26 13                0.000000073
   7607656.048 9   5825381.60146  22843714.528    22843714.2554   22843727.6244
        -0.000          -0.000
  -1153121.508 9   -899292.59049  21144398.263    21144397.6584   21144407.0254
        -0.000          -0.000
  -3079487.760 9  -2393621.23849  20217640.679    20217640.3094   20217649.0084
        -0.000          -0.000
  -3958459.493 8  -3073320.36346  23673462.952    23673462.1134   23673477.6664
        -0.000          -0.000
 -12312287.647 9  -9570169.77549  20941424.044    20941423.3744   20941433.7634
        -0.000          -0.000
  -9453954.726 9  -7354326.21946  23324529.241    23324529.2844   23324540.5764
        -0.000          -0.000
   6002636.260 9   4676052.71848  21811486.566    21811486.7324   21811495.9684
        -0.000          -0.000
 99  3  4 18 30 30.0000000  0  7 19  2 27 15  7 26 13                0.000000088
   7687423.813 9   5887538.08646  22858894.143    22858893.7974   22858907.2074
        -0.000          -0.000
  -1154484.899 9   -900354.98849  21144138.767    21144138.2084   21144147.5814
        -0.000          -0.000
  -3070179.764 9  -2386368.27749  20219411.969    20219411.5734   20219420.3294
        -0.000          -0.000
  -3982743.711 9  -3092243.02746  23668841.566    23668840.9034   23668856.3944
        -0.000          -0.000
 -12370908.485 9  -9615848.28549  20930268.844    20930268.1674   20930278.5074
        -0.000          -0.000
  -9512430.759 9  -7399891.90046  23313401.720    23313401.7084   23313412.8264
        -0.000          -0.000
   6082621.238 9   4738378.56548  21826707.382    21826707.5054   21826716.6564
        -0.000          -0.000
 99  3  4 18 31  0.0000000  0  7 19  2 27 15  7 26 13                0.000000097
   7767444.382 9   5949891.56046  22874121.605    22874121.2754   22874134.8854
        -0.000          -0.000
  -1155748.360 9   -901339.50749  21143898.948    21143897.7944   21143907.1384
        -0.000          -0.000
  -3060428.262 9  -2378769.71749  20221267.607    20221267.1984   20221275.9924
        -0.000          -0.000
  -4006548.165 9  -3110791.84146  23664311.612    23664310.9894   23664326.4474
        -0.000          -0.000
 -12429120.801 9  -9661208.45249  20919191.322    20919190.6264   20919200.9694
        -0.000          -0.000
  -9570471.534 9  -7445118.41846  23302356.879    23302356.8454   23302367.9784
        -0.000          -0.000
   6162954.464 9   4800975.78248  21841994.307    21841994.4824   21842003.6794
        -0.000          -0.000
 99  3  4 18 31 30.0000000  0  7 19  2 27 15  7 26 13                0.000000106
   7847744.774 9   6012463.07146  22889402.236    22889401.9974   22889415.7394
        -0.000          -0.000
  -1156873.952 9   -902216.61049  21143684.634    21143683.6624   21143692.9124
        -0.000          -0.000
  -3050212.130 9  -2370809.13549  20223211.651    20223211.2524   20223220.0794
        -0.000          -0.000
  -4029857.728 9  -3128955.03246  23659875.875    23659875.2294   23659890.8444
        -0.000          -0.000
 -12486918.066 9  -9706245.21848  20908192.776    20908192.0604   20908202.4514
        -0.000          -0.000
  -9628064.211 9  -7489995.76546  23291397.138    23291397.1624   23291408.5194
        -0.000          -0.000
   6243657.813 9   4863861.38048  21857351.642    21857351.8304   21857361.2344
        -0.000          -0.000
 99  3  4 18 32  0.0000000  0  7 19  2 27 15  7 26 13                0.000000097
   7928318.638 9   6075247.67346  22904735.151    22904734.9224   22904748.5804
        -0.000          -0.000
  -1157862.283 9   -902986.74349  21143496.618    21143495.6924   21143504.8924
        -0.000          -0.000
  -3039538.455 9  -2362492.01049  20225242.836    20225242.4764   20225251.2624
        -0.000          -0.000
  -4052686.905 9  -3146743.92546  23655531.583    23655530.9974   23655546.4964
        -0.000          -0.000
 -12544304.178 9  -9750961.59948  20897272.427    20897271.7404   20897282.0894
        -0.000          -0.000
  -9685226.995 9  -7534538.11346  23280519.246    23280519.2734   23280530.8914
        -0.000          -0.000
   6324704.483 9   4927014.50548  21872774.354    21872774.5434   21872784.0544
        -0.000          -0.000
 99  3  4 18 32 30.0000000  0  7 19  2 27 15  7 26 13                0.000000081
   8009176.791 9   6138253.81046  22920122.159    22920121.9394   22920135.6474
        -0.000          -0.000
  -1158699.549 9   -903639.16749  21143337.232    21143336.3734   21143345.5124
        -0.000          -0.000
  -3028392.193 9  -2353806.63849  20227363.945    20227363.5984   20227372.3204
        -0.000          -0.000
  -4075022.997 9  -3164148.59246  23651281.100    23651280.5194   23651295.9054
        -0.000          -0.000
 -12601259.477 9  -9795342.28049  20886434.122    20886433.4834   20886443.7594
        -0.000          -0.000
  -9741940.705 9  -7578730.55446  23269726.843    23269726.9734   23269738.6924
        -0.000          -0.000
   6406108.946 9   4990446.43048  21888265.178    21888265.3894   21888274.9114
        -0.000          -0.000
 99  3  4 18 33  0.0000000  0  7 19  2 27 15  7 26 13                0.000000078
   8090334.189 9   6201493.12446  22935566.032    22935565.7684   22935579.6654
        -0.000          -0.000
  -1159361.364 9   -904154.87649  21143211.311    21143210.4404   21143219.6164
        -0.000          -0.000
  -3016770.434 9  -2344750.75749  20229575.522    20229575.1664   20229583.8714
        -0.000          -0.000
  -4096849.853 9  -3181156.44746  23647127.571    23647126.9854   23647142.3264
        -0.000          -0.000
 -12657757.850 9  -9839366.91749  20875682.872    20875682.1964   20875692.4284
        -0.000          -0.000
  -9798171.024 9  -7622546.34246  23259026.634    23259026.6324   23259038.4244
        -0.000          -0.000
   6487887.635 9   5054169.96848  21903827.277    21903827.4364   21903836.9594
        -0.000          -0.000
 99  3  4 18 33 30.0000000  0  7 19  2 27 15  7 26 13                0.000000065
   8171759.340 9   6264941.07346  22951060.879    22951060.5814   22951074.5274
        -0.000          -0.000
  -1159867.561 9   -904549.31949  21143114.859    21143114.0574   21143123.3004
        -0.000          -0.000
  -3004711.502 9  -2335354.21749  20231870.283    20231869.9084   20231878.6434
        -0.000          -0.000
  -4118192.104 9  -3197786.70046  23643066.344    23643065.7064   23643080.9744
        -0.000          -0.000
 -12713834.034 9  -9883062.56949  20865011.906    20865011.1844   20865021.4664
        -0.000          -0.000
  -9853955.863 9  -7666014.99846  23248410.890    23248410.9704   23248422.8864
        -0.000          -0.000
   6570002.387 9   5118155.37848  21919453.270    21919453.4184   21919463.0154
        -0.000          -0.000
 99  3  4 18 34  0.0000000  0  7 19  2 27 15  7 26 13                0.000000054
   8253459.481 9   6328603.29846  22966608.199    22966607.8674   22966621.6954
        -0.000          -0.000
  -1160209.465 9   -904815.76149  21143049.742    21143048.9524   21143058.2144
        -0.000          -0.000
  -2992190.160 9  -2325597.36749  20234252.963    20234252.6384   20234261.4034
        -0.000          -0.000
  -4139022.854 9  -3214018.39546  23639102.446    23639101.7404   23639116.8964
        -0.000          -0.000
 -12769455.116 9  -9926403.61049  20854427.435    20854426.7514   20854437.1014
        -0.000          -0.000
  -9909274.680 9  -7709120.51446  23237884.257    23237884.1984   23237896.0194
        -0.000          -0.000
   6652467.106 9   5182413.46548  21935145.878    21935146.0344   21935155.6384
        -0.000          -0.000
 99  3  4 18 34 30.0000000  0  7 19  2 27 15  7 26 13                0.000000041
   8335410.990 9   6392461.40546  22982203.399    22982202.9514   22982216.7434
        -0.000          -0.000
  -1160412.266 9   -904973.79449  21143011.107    21143010.3784   21143019.6654
        -0.000          -0.000
  -2979225.993 9  -2315495.43549  20236719.984    20236719.6404   20236728.3774
        -0.000          -0.000
  -4159352.709 8  -3229859.78646  23635233.545    23635232.8594   23635248.1564
        -0.000          -0.000
 -12824638.562 9  -9969403.63549  20843926.309    20843925.6514   20843935.9874
        -0.000          -0.000
  -9964134.391 9  -7751868.29446  23227444.832    23227444.7544   23227456.4114
        -0.000          -0.000
   6735268.921 9   5246934.23148  21950902.671    21950902.8264   21950912.4294
        -0.000          -0.000
 99  3  4 18 35  0.0000000  0  7 19  2 27 15  7 26 13                0.000000026
   8417605.672 9   6456508.99946  22997844.608    22997844.2834   22997858.0854
        -0.000          -0.000
  -1160496.515 9   -905039.45149  21142995.146    21142994.3804   21143003.6194
        -0.000          -0.000
  -2965833.536 9  -2305059.77649  20239268.527    20239268.2064   20239276.9494
        -0.000          -0.000
  -4179179.166 9  -3245308.93446  23631460.556    23631459.9514   23631475.2634
        -0.000          -0.000
 -12879383.697 9 -10012062.11649  20833508.605    20833507.9334   20833518.2594
        -0.000          -0.000
 -10018548.921 9  -7794269.15046  23217090.041    23217089.8744   23217101.5644
        -0.000          -0.000
   6818396.457 9   5311708.81548  21966721.393    21966721.5454   21966731.2204
        -0.000          -0.000
 99  3  4 18 35 30.0000000  0  6 19 27 15  7 26 13                   0.000000044
   8500053.535 9   6520753.88046  23013534.031    23013533.6824   23013547.6184
        -0.000          -0.000
  -2951996.723 9  -2294277.88249  20241901.562    20241901.2434   20241910.0704
        -0.000          -0.000
  -4198483.620 9  -3260351.32246  23627787.116    23627786.3944   23627801.7284
        -0.000          -0.000
 -12933679.205 9 -10054370.24549  20823176.482    20823175.7764   20823186.1494
        -0.000          -0.000
 -10072510.076 9  -7836316.73446  23206821.270    23206821.2824   23206832.9664
        -0.000          -0.000
   6901848.321 9   5376736.11047  21982601.783    21982601.9814   21982611.7764
        -0.000          -0.000
 99  3  4 18 36  0.0000000  0  7 19  2 27 15  7 26 13                0.000000003
   8582740.925 9   6585185.39846  23029269.080    23029268.7294   23029282.7544
        -0.000          -0.000
  -1213954.08319   -947025.72448         0.000           0.0005   21143027.4464
        -0.000          -0.000
  -2937730.676 9  -2283161.51049  20244616.319    20244615.9844   20244624.7564
        -0.000          -0.000
  -4217289.042 9  -3275004.85046  23624208.396    23624207.6924   23624223.1524
        -0.000          -0.000
 -12987537.556 9 -10096337.72949  20812927.487    20812926.8414   20812937.2124
        -0.000          -0.000
 -10126028.241 9  -7878019.12346  23196637.098    23196637.1324   23196648.6604
        -0.000          -0.000
   6985597.284 9   5441994.91747  21998538.722    21998538.8984   21998548.8814
        -0.000          -0.000
 99  3  4 18 36 30.0000000  0  7 19  2 27 15  7 26 13                0.000000010
   8665699.752 9   6649828.42946  23045055.729    23045055.4604   23045069.5284
        -0.000          -0.000
  -1213768.305 9   -946880.96249  21143054.404    21143053.8384   21143063.0144
        -0.000          -0.000
  -2923013.886 9  -2271693.91549  20247416.899    20247416.5454   20247425.2844
        -0.000          -0.000
  -4235569.787 9  -3289249.53246  23620729.778    23620729.0094   23620744.2864
        -0.000          -0.000
 -13040933.504 9 -10137944.90049  20802766.619    20802765.9154   20802776.2284
        -0.000          -0.000
 -10179073.247 9  -7919352.84046  23186543.017    23186543.1104   23186554.5714
        -0.000          -0.000
   7069668.928 9   5507505.15247  22014537.040    22014537.2334   22014547.3304
        -0.000          -0.000
 99  3  4 18 37  0.0000000  0  7 19  2 27 15  7 26 13                0.000000020
   8748919.440 9   6714674.72546  23060892.018    23060891.7264   23060906.0264
        -0.000          -0.000
  -1213499.568 9   -946671.55949  21143105.990    21143104.9434   21143114.1664
        -0.000          -0.000
  -2907850.869 9  -2259878.61849  20250302.359    20250302.0084   20250310.8054
        -0.000          -0.000
  -4253338.652 9  -3303095.33746  23617348.614    23617347.7514   23617362.9804
        -0.000          -0.000
 -13093888.551 9 -10179208.51149  20792689.525    20792688.8414   20792699.0844
        -0.000          -0.000
 -10231663.513 9  -7960332.20546  23176535.545    23176535.6184   23176546.9804
        -0.000          -0.000
   7154038.802 9   5573247.79247  22030592.112    22030592.3384   22030602.5294
        -0.000          -0.000
 99  3  4 18 37 30.0000000  0  7 19  2 27 15  7 26 13                0.000000026
   8832415.307 9   6779736.22346  23076780.821    23076780.5674   23076794.9974
        -0.000          -0.000
  -1213104.758 9   -946363.91649  21143179.921    21143180.0714   21143189.2654
        -0.000          -0.000
  -2892200.925 9  -2247683.89449  20253280.468    20253280.1164   20253288.9434
        -0.000          -0.000
  -4270579.033 9  -3316529.34546  23614067.672    23614066.8824   23614082.2244
        -0.000          -0.000
 -13146384.463 9 -10220114.35349  20782699.840    20782699.1674   20782709.3514
        -0.000          -0.000
 -10283788.428 9  -8000948.97246  23166616.486    23166616.5154   23166627.8774
        -0.000          -0.000
   7238716.874 9   5639230.57247  22046705.891    22046706.1034   22046716.3324
        -0.000          -0.000
 99  3  4 18 38  0.0000000  0  7 19  2 27 15  7 26 13                0.000000025
   8916195.874 9   6845019.56446  23092723.874    23092723.6004   23092738.1504
        -0.000          -0.000
  -1212555.873 9   -945936.22549  21143284.696    21143284.5394   21143293.7494
        -0.000          -0.000
  -2876043.362 9  -2235093.63749  20256355.185    20256354.8274   20256363.6444
        -0.000          -0.000
  -4287282.780 9  -3329545.18846  23610888.976    23610888.3124   23610903.5404
        -0.000          -0.000
 -13198410.314 9 -10260653.92549  20772799.695    20772799.0104   20772809.1144
        -0.000          -0.000
 -10335437.773 9  -8041195.18046  23156787.948    23156788.0194   23156799.1304
        -0.000          -0.000
   7323715.865 9   5705463.42047  22062880.672    22062880.9454   22062891.1624
        -0.000          -0.000
 99  3  4 18 38 30.0000000  0  7 19  2 27 15  7 26 13                0.000000022
   9000268.830 9   6910530.74146  23108722.520    23108722.2444   23108736.8364
        -0.000          -0.000
  -1211832.580 9   -945372.62549  21143422.445    21143422.1034   21143431.3784
        -0.000          -0.000
  -2859381.536 9  -2222110.44149  20259525.857    20259525.5224   20259534.2894
        -0.000          -0.000
  -4303440.932 9  -3342135.91246  23607814.250    23607813.6314   23607828.6594
        -0.000          -0.000
 -13249974.445 9 -10300833.70849  20762987.356    20762986.6344   20762996.6904
        -0.000          -0.000
 -10386608.818 9  -8081068.66646  23147050.367    23147050.3924   23147061.3074
        -0.000          -0.000
   7409036.524 9   5771946.91147  22079116.791    22079117.0354   22079127.1264
        -0.000          -0.000
 99  3  4 18 39  0.0000000  0  7 19  2 27 15  7 26 13                0.000000017
   9084635.206 9   6976270.53946  23124777.048    23124776.7904   23124791.2984
        -0.000          -0.000
  -1210928.519 9   -944668.16249  21143594.542    21143594.0954   21143603.3874
        -0.000          -0.000
  -2842213.391 9  -2208732.69149  20262792.858    20262792.5014   20262801.2654
        -0.000          -0.000
  -4319052.944 9  -3354301.04846  23604843.347    23604842.6484   23604857.7474
        -0.000          -0.000
 -13301076.890 9 -10340653.73049  20753262.780    20753262.0864   20753272.1454
        -0.000          -0.000
 -10437304.423 9  -8120571.67146  23137403.217    23137403.1594   23137414.1464
        -0.000          -0.000
   7494687.195 9   5838687.57247  22095415.716    22095416.0414   22095425.9624
        -0.000          -0.000
 99  3  4 18 39 30.0000000  0  7 19  2 27 15  7 26 13                0.000000008
   9169273.669 9   7042222.36446  23140883.368    23140883.1504   23140897.6364
        -0.000          -0.000
  -1209883.278 9   -943853.69849  21143793.523    21143793.0174   21143802.2554
        -0.000          -0.000
  -2824573.103 9  -2194987.04749  20266149.753    20266149.3874   20266158.1834
        -0.000          -0.000
  -4334142.294 9  -3366058.91346  23601971.849    23601971.1864   23601986.2684
        -0.000          -0.000
 -13351733.156 9 -10380126.08549  20743623.134    20743622.4594   20743632.5374
        -0.000          -0.000
 -10487536.479 9  -8159713.46446  23127844.267    23127844.2074   23127855.3014
        -0.000          -0.000
   7580654.429 9   5905674.89747  22111775.048    22111775.2464   22111785.0834
        -0.000          -0.000
 99  3  4 18 40  0.0000000  0  7 19  2 27 15  7 26 13                0.000000022
   9254183.477 9   7108385.62646  23157041.457    23157041.1744   23157055.7684
        -0.000          -0.000
  -1208727.278 9   -942952.92749  21144013.535    21144013.0044   21144022.2214
        -0.000          -0.000
  -2806489.360 9  -2180895.86349  20269590.964    20269590.6544   20269599.4844
        -0.000          -0.000
  -4348712.719 9  -3377412.46346  23599199.304    23599198.4954   23599213.4944
        -0.000          -0.000
 -13401952.857 9 -10419258.26949  20734066.602    20734065.9354   20734075.9804
        -0.000          -0.000
 -10537283.727 9  -8198477.50546  23118377.497    23118377.4614   23118388.7854
        -0.000          -0.000
   7666939.125 9   5972909.59747  22128194.594    22128194.7394   22128204.7024
        -0.000          -0.000
 99  3  4 18 40 30.0000000  0  7 19  2 27 15  7 26 13                0.000000035
   9339324.105 9   7174728.74146  23173243.413    23173243.1074   23173257.7164
        -0.000          -0.000
  -1207507.934 9   -942002.80149  21144245.674    21144245.0644   21144254.2114
        -0.000          -0.000
  -2788002.242 9  -2166490.34449  20273108.959    20273108.6594   20273117.4394
        -0.000          -0.000
  -4362797.959 9  -3388387.93946  23596518.761    23596517.9414   23596533.0774
        -0.000          -0.000
 -13451767.220 9 -10458074.59049  20724587.174    20724586.5374   20724596.5334
        -0.000          -0.000
 -10586585.904 9  -8236894.73546  23108995.469    23108995.5064   23109006.9394
        -0.000          -0.000
   7753507.306 9   6040365.19447  22144668.028    22144668.1854   22144678.2544
        -0.000          -0.000
 99  3  4 18 41  0.0000000  0  7 19  2 27 15  7 26 13                0.000000053
   9424689.866 9   7241247.27846  23189488.288    23189487.9414   23189502.5024
        -0.000          -0.000
  -1206224.374 9   -941002.63449  21144489.864    21144489.2654   21144498.4734
        -0.000          -0.000
  -2769099.172 9  -2151760.72349  20276706.147    20276705.8194   20276714.6174
        -0.000          -0.000
  -4376390.395 9  -3398979.43646  23593932.117    23593931.3714   23593946.3964
        -0.000          -0.000
 -13501149.964 9 -10496554.59449  20715189.990    20715189.3134   20715199.2384
        -0.000          -0.000
 -10635428.444 9  -8274953.81746  23099701.125    23099701.1104   23099712.5794
        -0.000          -0.000
   7840370.951 9   6108051.00947  22161197.765    22161197.9324   22161207.9464
        -0.000          -0.000
 99  3  4 18 41 30.0000000  0  7 19  2 27 15  7 26 13                0.000000063
   9510267.168 9   7307930.65546  23205773.257    23205772.9774   23205787.6014
        -0.000          -0.000
  -1204875.611 9   -939951.66949  21144746.576    21144745.9374   21144755.0894
        -0.000          -0.000
  -2749793.566 9  -2136717.42849  20280379.932    20280379.5854   20280388.4364
        -0.000          -0.000
  -4389494.774 9  -3409190.63246  23591438.381    23591437.5884   23591452.6504
        -0.000          -0.000
 -13550110.424 9 -10534705.54949  20705873.053    20705872.4134   20705882.3204
        -0.000          -0.000
 -10683821.175 9  -8312662.40446  23090492.300    23090492.3154   23090503.7114
        -0.000          -0.000
   7927497.127 9   6175941.40147  22177777.462    22177777.5934   22177787.5784
        -0.000          -0.000
 99  3  4 18 42  0.0000000  0  7 19  2 27 15  7 26 13                0.000000072
   9596090.712 9   7374805.90946  23222105.119    23222104.8114   23222119.5794
        -0.000          -0.000
  -1203412.698 9   -938811.74749  21145024.985    21145024.3444   21145033.4834
        -0.000          -0.000
  -2730045.936 9  -2121329.69749  20284137.778    20284137.4444   20284146.3294
        -0.000          -0.000
  -4402074.163 9  -3418992.72346  23589044.552    23589043.8354   23589058.8904
        -0.000          -0.000
 -13598614.690 9 -10572501.02449  20696643.048    20696642.3434   20696652.1454
        -0.000          -0.000
 -10731741.451 9  -8350002.84146  23081373.346    23081373.3784   23081384.7214
        -0.000          -0.000
   8014904.003 9   6244050.52747  22194410.543    22194410.6994   22194420.6684
        -0.000          -0.000
 99  3  4 18 42 30.0000000  0  7 19  2 27 15  7 26 13                0.000000067
   9682160.944 9   7441873.37846  23238483.905    23238483.6024   23238498.5624
        -0.000          -0.000
  -1201811.296 9   -937563.91749  21145329.756    21145329.0734   21145338.2764
        -0.000          -0.000
  -2709839.382 9  -2105584.36349  20287982.968    20287982.6224   20287991.5334
        -0.000          -0.000
  -4414122.352 9  -3428380.94346  23586751.974    23586751.2214   23586766.2244
        -0.000          -0.000
 -13646660.515 9 -10609939.27549  20687500.129    20687499.4724   20687509.1964
        -0.000          -0.000
 -10779203.127 9  -8386985.93646  23072341.703    23072341.7104   23072353.0024
        -0.000          -0.000
   8102585.671 9   6312373.77247  22211096.107    22211096.1984   22211106.1114
        -0.000          -0.000
 99  3  4 18 43  0.0000000  0  7 19  2 27 15  7 26 13                0.000000066
   9768502.139 9   7509151.99546  23254914.301    23254914.0374   23254929.0454
        -0.000          -0.000
  -1200035.347 9   -936180.07449  21145667.693    21145667.0194   21145676.2814
        -0.000          -0.000
  -2689154.978 9  -2089466.68249  20291919.103    20291918.7474   20291927.7074
        -0.000          -0.000
  -4425612.757 9  -3437334.51346  23584565.522    23584564.7264   23584579.7414
        -0.000          -0.000
 -13694232.113 9 -10647007.99649  20678447.579    20678446.8494   20678456.5734
        -0.000          -0.000
 -10826169.622 9  -8423583.16946  23063404.240    23063404.2674   23063415.4424
        -0.000          -0.000
   8190558.224 9   6380923.67347  22227836.881    22227836.9794   22227846.9024
        -0.000          -0.000
 99  3  4 18 43 30.0000000  0  7 19  2 27 15  7 26 13                0.000000054
   9855094.050 9   7576625.96746  23271392.458    23271392.2004   23271407.2494
        -0.000          -0.000
  -1198103.096 9   -934674.44349  21146035.398    21146034.7454   21146044.0504
        -0.000          -0.000
  -2668008.954 9  -2072989.29249  20295943.057    20295942.7114   20295951.6654
        -0.000          -0.000
  -4436565.360 9  -3445869.01346  23582481.197    23582480.5084   23582495.5874
        -0.000          -0.000
 -13741367.138 9 -10683736.53249  20669477.976    20669477.2894   20669487.1014
        -0.000          -0.000
 -10872663.733 9  -8459812.30646  23054556.777    23054556.8324   23054567.7454
        -0.000          -0.000
   8278790.566 9   6449676.02047  22244626.966    22244627.0654   22244637.1394
        -0.000          -0.000
 99  3  4 18 44  0.0000000  0  7 19  2 27 15  7 26 13                0.000000039
   9941939.786 9   7644297.71146  23287918.864    23287918.5804   23287933.6684
        -0.000          -0.000
  -1196026.475 9   -933056.31949  21146430.644    21146429.9414   21146439.3604
        -0.000          -0.000
  -2646384.468 9  -2056139.07649  20300058.110    20300057.7624   20300066.6744
        -0.000          -0.000
  -4446978.686 9  -3453983.29246  23580499.572    23580498.8604   23580513.9044
        -0.000          -0.000
 -13788051.457 9 -10720113.86949  20660594.091    20660593.4494   20660603.3534
        -0.000          -0.000
 -10918672.169 9  -8495662.99046  23045801.774    23045801.7334   23045812.4254
        -0.000          -0.000
   8367296.847 9   6518641.82547  22261469.237    22261469.3454   22261479.5054
        -0.000          -0.000
 99  3  4 18 44 30.0000000  0  7 19  2 27 15  7 26 13                0.000000035
  10029051.293 9   7712176.55446  23304495.714    23304495.4544   23304510.6674
        -0.000          -0.000
  -1193803.895 9   -931324.45549  21146853.527    21146852.8684   21146862.3334
        -0.000          -0.000
  -2624254.929 9  -2038895.32349  20304269.244    20304268.9074   20304277.8744
        -0.000          -0.000
  -4456832.770 9  -3461661.81446  23578624.480    23578623.7484   23578638.7224
        -0.000          -0.000
 -13834259.375 9 -10756119.98949  20651801.050    20651800.3264   20651810.1704
        -0.000          -0.000
 -10964168.459 9  -8531114.60746  23037144.065    23037144.0384   23037154.6714
        -0.000          -0.000
   8456101.455 9   6587840.07347  22278368.300    22278368.3774   22278378.5674
        -0.000          -0.000
 99  3  4 18 45  0.0000000  0  7 19  2 27 15  7 26 13                0.000000024
  10116394.622 9   7780236.03846  23321116.706    23321116.4674   23321131.8554
        -0.000          -0.000
  -1191489.590 9   -929521.12549  21147293.997    21147293.3134   21147302.7294
        -0.000          -0.000
  -2601652.218 9  -2021282.85949  20308570.434    20308570.1294   20308579.1044
        -0.000          -0.000
  -4466162.713 9  -3468931.86446  23576849.172    23576848.2984   23576863.3044
        -0.000          -0.000
 -13880013.786 9 -10791772.72849  20643094.160    20643093.4844   20643103.3044
        -0.000          -0.000
 -11009186.481 9  -8566193.53847  23028577.298    23028577.3384   23028588.0824
        -0.000          -0.000
   8545176.628 9   6657249.15047  22295318.776    22295318.8724   22295329.1434
        -0.000          -0.000
 99  3  4 18 45 30.0000000  0  7 19  2 27 15  7 26 13                0.000000024
  10204005.646 9   7848504.09646  23337788.708    23337788.5144   23337803.8874
        -0.000          -0.000
  -1189076.631 9   -927640.91049  21147753.127    21147752.5154   21147761.9334
        -0.000          -0.000
  -2578538.496 9  -2003272.20449  20312968.874    20312968.5344   20312977.5374
        -0.000          -0.000
  -4474940.281 9  -3475771.49746  23575178.883    23575178.0144   23575192.8994
        -0.000          -0.000
 -13925278.078 9 -10827043.54549  20634480.640    20634479.9374   20634489.7244
        -0.000          -0.000
 -11053701.771 9  -8600880.73147  23020106.227    23020106.3424   23020117.0964
        -0.000          -0.000
   8634545.236 9   6726886.90547  22312325.044    22312325.1984   22312335.6104
        -0.000          -0.000
 99  3  4 18 46  0.0000000  0  7 19  2 27 15  7 26 13                0.000000029
  10291877.150 9   7916975.13046  23354510.249    23354510.0694   23354525.4184
        -0.000          -0.000
  -1186574.603 9   -925691.28949  21148229.429    21148228.6964   21148238.0334
        -0.000          -0.000
  -2554926.525 9  -1984873.31549  20317462.143    20317461.7844   20317470.8194
        -0.000          -0.000
  -4483175.245 9  -3482188.31346  23573611.779    23573610.8894   23573625.8764
        -0.000          -0.000
 -13970056.526 9 -10861935.79449  20625959.516    20625958.8464   20625968.6684
        -0.000          -0.000
 -11097725.599 9  -8635184.97047  23011728.719    23011728.7924   23011739.6184
        -0.000          -0.000
   8724198.225 9   6796746.24947  22329385.590    22329385.7484   22329396.1924
        -0.000          -0.000
 99  3  4 18 46 30.0000000  0  7 19  2 27 15  7 26 13                0.000000031
  10379992.517 9   7985636.19146  23371278.266    23371278.0404   23371293.5104
        -0.000          -0.000
  -1183993.927 9   -923680.39449  21148720.459    21148719.7764   21148729.0974
        -0.000          -0.000
  -2530848.310 9  -1966111.11749  20322044.174    20322043.8124   20322052.7464
        -0.000          -0.000
  -4490881.510 9  -3488193.14846  23572145.227    23572144.3444   23572159.3104
        -0.000          -0.000
 -14014379.263 9 -10896472.93649  20617525.167    20617524.5154   20617534.3724
        -0.000          -0.000
 -11141281.268 9  -8669124.38947  23003440.366    23003440.4104   23003451.2834
        -0.000          -0.000
   8814116.387 9   6866812.20647  22346496.660    22346496.8024   22346507.2144
        -0.000          -0.000
 99  3  4 18 47  0.0000000  0  7 19  2 27 15  7 26 13                0.000000047
  10468376.037 9   8054506.20646  23388097.272    23388097.0374   23388112.5494
        -0.000          -0.000
  -1181295.251 9   -921577.53949  21149234.005    21149233.3204   21149242.6384
        -0.000          -0.000
  -2506285.075 9  -1946970.97249  20326718.444    20326718.0864   20326726.9624
        -0.000          -0.000
  -4498032.576 9  -3493765.35746  23570784.414    23570783.5164   23570798.3604
        -0.000          -0.000
 -14058233.335 9 -10930644.89349  20609180.039    20609179.3624   20609189.2054
        -0.000          -0.000
 -11184340.657 9  -8702677.08847  22995246.276    22995246.3834   22995257.2184
        -0.000          -0.000
   8904324.007 9   6937103.69547  22363662.704    22363662.7994   22363673.2904
        -0.000          -0.000
 99  3  4 18 47 30.0000000  0  7 19  2 27 15  7 26 13                0.000000057
  10556989.365 9   8123555.28246  23404960.006    23404959.8034   23404975.2854
        -0.000          -0.000
  -1178495.323 9   -919395.78449  21149766.829    21149766.1124   21149775.4264
        -0.000          -0.000
  -2481283.336 9  -1927489.14049  20331476.162    20331475.8224   20331484.6794
        -0.000          -0.000
  -4504658.349 9  -3498928.23246  23569523.396    23569522.5504   23569537.4894
        -0.000          -0.000
 -14101663.243 9 -10964486.31749  20600915.510    20600914.8634   20600924.6804
        -0.000          -0.000
 -11226928.602 9  -8735862.43747  22987141.851    22987142.0524   22987152.8764
        -0.000          -0.000
   8994763.752 9   7007576.06847  22380872.743    22380872.8544   22380883.4624
        -0.000          -0.000
 99  3  4 18 48  0.0000000  0  7 19  2 27 15  7 26 13                0.000000067
  10645831.249 9   8192782.47146  23421866.303    23421866.0594   23421881.5574
        -0.000          -0.000
  -1175571.281 9   -917117.31849  21150323.128    21150322.4574   21150331.8064
        -0.000          -0.000
  -2455843.723 9  -1907666.10849  20336317.211    20336316.8214   20336325.7114
        -0.000          -0.000
  -4510747.817 9  -3503673.21146  23568364.465    23568363.7224   23568378.6774
        -0.000          -0.000
 -14144657.982 9 -10997988.65149  20592733.934    20592733.2284   20592743.0004
        -0.000          -0.000
 -11269037.034 9  -8768674.13347  22979128.890    22979129.0604   22979139.8564
        -0.000          -0.000
   9085450.111 9   7078240.61847  22398129.920    22398130.0674   22398140.6264
        -0.000          -0.000
 99  3  4 18 48 30.0000000  0  7 19  2 27 15  7 26 13                0.000000078
  10734900.461 9   8262186.77346  23438815.829    23438815.6054   23438831.0394
        -0.000          -0.000
  -1172532.143 9   -914749.18149  21150901.520    21150900.8364   21150910.1694
        -0.000          -0.000
  -2429960.707 9  -1887497.58349  20341242.586    20341242.1914   20341251.1114
        -0.000          -0.000
  -4516295.884 9  -3507996.33146  23567308.633    23567308.0124   23567322.7994
        -0.000          -0.000
 -14187218.812 9 -11031152.88649  20584634.770    20584634.0944   20584643.9104
        -0.000          -0.000
 -11310666.389 9  -8801112.55947  22971207.097    22971207.2044   22971218.0594
        -0.000          -0.000
   9176384.399 9   7149098.35647  22415434.373    22415434.4974   22415444.9364
        -0.000          -0.000
 99  3  4 18 49  0.0000000  0  7 19  2 27 15  7 26 13                0.000000084
  10824184.739 9   8331758.68346  23455806.303    23455806.0734   23455821.5414
        -0.000          -0.000
  -1169369.362 9   -912284.68149  21151503.371    21151502.6794   21151511.9794
        -0.000          -0.000
  -2403631.493 9  -1866981.35649  20346252.915    20346252.5324   20346261.4634
        -0.000          -0.000
  -4521305.815 9  -3511900.12746  23566355.263    23566354.6634   23566369.4764
        -0.000          -0.000
 -14229335.857 9 -11063971.30549  20576620.165    20576619.4834   20576629.2384
        -0.000          -0.000
 -11351810.363 9  -8833172.73447  22963377.925    22963377.8844   22963388.5914
        -0.000          -0.000
   9267556.870 9   7220141.71047  22432784.039    22432784.1374   22432794.5134
        -0.000          -0.000
 99  3  4 18 49 30.0000000  0  7 19  2 27 15  7 26 13                0.000000086
  10913707.295 9   8401516.26146  23472842.095    23472841.9094   23472857.2874
        -0.000          -0.000
  -1166072.056 9   -909715.37349  21152130.847    21152130.1654   21152139.4594
        -0.000          -0.000
  -2376840.325 9  -1846105.17349  20351351.197    20351350.8134   20351359.7334
        -0.000          -0.000
  -4525766.863 9  -3515376.22346  23565506.268    23565505.6804   23565520.6044
        -0.000          -0.000
 -14270992.443 9 -11096430.93849  20568693.225    20568692.5304   20568702.2274
        -0.000          -0.000
 -11392466.845 9  -8864853.05747  22955641.341    22955641.1914   22955651.8994
        -0.000          -0.000
   9358975.082 9   7291376.54247  22450180.414    22450180.5134   22450190.9274
        -0.000          -0.000
 99  3  4 18 50  0.0000000  0  7 19  2 27 15  7 26 13                0.000000081
  11003461.010 9   8471453.96246  23489921.924    23489921.6554   23489937.1574
        -0.000          -0.000
  -1162652.527 9   -907050.82349  21152781.558    21152780.8754   21152790.1904
        -0.000          -0.000
  -2349575.942 9  -1824860.24449  20356539.473    20356539.0714   20356548.0464
        -0.000          -0.000
  -4529691.559 9  -3518434.39246  23564759.567    23564758.8274   23564773.7984
        -0.000          -0.000
 -14312197.120 9 -11128538.42249  20560852.145    20560851.4394   20560861.1174
        -0.000          -0.000
 -11432643.270 9  -8896159.30747  22947995.759    22947995.6944   22948006.5804
        -0.000          -0.000
   9450648.177 9   7362809.96347  22467625.349    22467625.4064   22467635.9384
        -0.000          -0.000
 99  3  4 18 50 30.0000000  0  7 19  2 27 15  7 26 13                0.000000072
  11093453.296 9   8541577.57146  23507047.125    23507046.7994   23507062.3154
        -0.000          -0.000
  -1159088.660 9   -904273.79949  21153459.763    21153459.1154   21153468.3894
        -0.000          -0.000
  -2321817.131 9  -1803230.05549  20361821.882    20361821.4644   20361830.4494
        -0.000          -0.000
  -4533067.940 9  -3521065.29946  23564116.845    23564116.2224   23564131.2584
        -0.000          -0.000
 -14352941.374 9 -11160287.14549  20553098.658    20553097.9474   20553107.6124
        -0.000          -0.000
 -11472318.462 9  -8927074.99147  22940445.563    22940445.5804   22940456.6884
        -0.000          -0.000
   9542578.871 9   7434444.10347  22485119.170    22485119.2854   22485129.8984
        -0.000          -0.000
 99  3  4 18 51  0.0000000  0  7 19  2 27 15  7 26 13                0.000000056
  11183674.167 9   8611879.27946  23524215.800    23524215.5144   23524231.1344
        -0.000          -0.000
  -1155378.298 9   -901382.63249  21154165.951    21154165.2064   21154174.4334
        -0.000          -0.000
  -2293579.715 9  -1781226.92849  20367195.320    20367194.9244   20367203.8664
        -0.000          -0.000
  -4535903.624 9  -3523274.92346  23563577.385    23563576.7054   23563591.6574
        -0.000          -0.000
 -14393226.860 9 -11191678.38849  20545432.516    20545431.8634   20545441.5174
        -0.000          -0.000
 -11511495.667 9  -8957602.64347  22932990.370    22932990.3724   22933001.5784
        -0.000          -0.000
   9634751.273 9   7506266.59947  22502658.980    22502659.1834   22502669.8134
        -0.000          -0.000
 99  3  4 18 51 30.0000000  0  7 19  2 27 15  7 26 13                0.000000050
  11274150.507 9   8682380.05346  23541433.110    23541432.8954   23541448.2954
        -0.000          -0.000
  -1151525.803 9   -898380.70949  21154899.001    21154898.3284   21154907.5574
        -0.000          -0.000
  -2264848.479 9  -1758838.99349  20372662.686    20372662.3094   20372671.2474
        -0.000          -0.000
  -4538179.977 9  -3525048.71446  23563144.148    23563143.4754   23563158.3364
        -0.000          -0.000
 -14433045.147 9 -11222705.57349  20537855.362    20537854.6694   20537864.3294
        -0.000          -0.000
 -11550159.698 9  -8987730.42747  22925632.769    22925632.8454   22925644.0594
        -0.000          -0.000
   9727174.432 9   7578284.49747  22520246.765    22520246.9664   22520257.3964
        -0.000          -0.000
 99  3  4 18 52  0.0000000  0  7 19  2 27 15  7 26 13                0.000000039
  11364829.657 9   8753038.85746  23558689.003    23558688.7094   23558704.2184
        -0.000          -0.000
  -1147561.738 9   -895291.85349  21155653.407    21155652.6964   21155661.9064
        -0.000          -0.000
  -2235654.841 9  -1736090.75149  20378218.102    20378217.7134   20378226.6574
        -0.000          -0.000
  -4539917.905 9  -3526402.93946  23562813.316    23562812.6744   23562827.5864
        -0.000          -0.000
 -14472422.767 9 -11253389.38849  20530361.987    20530361.2774   20530370.9424
        -0.000          -0.000
 -11588316.651 9  -9017463.06247  22918371.692    22918371.7914   22918383.0414
        -0.000          -0.000
   9819812.234 9   7650469.64347  22537875.396    22537875.5834   22537885.9064
        -0.000          -0.000
 99  3  4 18 52 30.0000000  0  7 19  2 27 15  7 26 13                0.000000032
  11455724.229 9   8823865.51746  23575985.858    23575985.5554   23576001.1994
        -0.000          -0.000
  -1143487.079 9   -892116.81149  21156428.798    21156428.1294   21156437.3764
        -0.000          -0.000
  -2206003.666 9  -1712985.97949  20383860.608    20383860.1974   20383869.1774
        -0.000          -0.000
  -4541103.372 9  -3527326.69046  23562587.821    23562587.1514   23562602.0434
        -0.000          -0.000
 -14511344.080 9 -11283717.62949  20522955.409    20522954.7044   20522964.3504
        -0.000          -0.000
 -11625964.434 9  -9046798.93847  22911207.534    22911207.6014   22911218.8154
        -0.000          -0.000
   9912666.651 9   7722823.57747  22555545.009    22555545.1914   22555555.6494
        -0.000          -0.000
 99  3  4 18 53  0.0000000  0  7 19  2 27 15  7 26 13                0.000000030
  11546842.357 9   8894866.38246  23593325.396    23593325.0514   23593340.7734
        -0.000          -0.000
  -1139329.796 9   -888877.39149  21157220.057    21157219.3224   21157228.5354
        -0.000          -0.000
  -2175905.555 9  -1689532.94749  20389588.067    20389587.6824   20389596.7154
        -0.000          -0.000
  -4541742.414 9  -3527824.63646  23562466.157    23562465.4244   23562480.4634
        -0.000          -0.000
 -14549816.126 9 -11313695.79749  20515634.360    20515633.6624   20515643.2794
        -0.000          -0.000
 -11663116.021 9  -9075748.18747  22904137.776    22904137.8264   22904149.0164
        -0.000          -0.000
  10005727.548 9   7795338.39947  22573253.978    22573254.1514   22573264.8214
        -0.000          -0.000
 99  3  4 18 53 30.0000000  0  7 19  2 27 15  7 26 13                0.000000035
  11638189.947 9   8966046.05546  23610708.337    23610708.0774   23610723.9114
        -0.000          -0.000
  -1135088.918 9   -885572.82449  21158027.020    21158026.3134   21158035.6084
        -0.000          -0.000
  -2145335.896 9  -1665712.46749  20395405.341    20395404.9854   20395414.0044
        -0.000          -0.000
  -4541825.920 9  -3527889.72546  23562450.204    23562449.5554   23562464.4814
        -0.000          -0.000
 -14587830.819 9 -11343317.58049  20508400.332    20508399.6514   20508409.3024
        -0.000          -0.000
 -11699754.740 9  -9104297.79747  22897165.670    22897165.7324   22897176.8044
        -0.000          -0.000
  10098988.855 9   7868009.38447  22591001.167    22591001.3454   22591012.1284
        -0.000          -0.000
 99  3  4 18 54  0.0000000  0  7 19  2 27 15  7 26 13                0.000000041
  11729758.005 9   9037397.51146  23628133.201    23628132.9244   23628149.0814
        -0.000          -0.000
  -1130761.302 9   -882200.68249  21158850.507    21158849.8034   21158859.1804
        -0.000          -0.000
  -2114286.536 9  -1641518.20349  20401313.902    20401313.5244   20401322.5104
        -0.000          -0.000
  -4541356.650 9  -3527524.09546  23562539.654    23562538.9534   23562553.8244
        -0.000          -0.000
 -14625382.892 9 -11372578.89649  20501254.416    20501253.7374   20501263.3584
        -0.000          -0.000
 -11735882.585 9  -9132449.33847  22890290.787    22890290.8214   22890301.8314
        -0.000          -0.000
  10192448.782 9   7940835.12047  22608786.236    22608786.3234   22608797.2364
        -0.000          -0.000
 99  3  4 18 54 30.0000000  0  7 19  2 27 15  7 26 13                0.000000054
  11821583.006 9   9108949.16046  23645606.997    23645606.7664   23645623.0814
        -0.000          -0.000
  -1126333.636 9   -878750.57449  21159693.080    21159692.4004   21159701.7814
        -0.000          -0.000
  -2082735.946 9  -1616933.36449  20407317.754    20407317.3584   20407326.3364
        -0.000          -0.000
  -4540321.389 9  -3526717.38646  23562736.600    23562735.9984   23562750.8414
        -0.000          -0.000
 -14662445.742 9 -11401458.99349  20494201.614    20494200.9204   20494210.4644
        -0.000          -0.000
 -11771493.796 9  -9160198.29347  22883514.253    22883514.2634   22883525.1714
        -0.000          -0.000
  10286127.655 9   8013831.47447  22626612.936    22626613.0024   22626623.9404
        -0.000          -0.000
 99  3  4 18 55  0.0000000  0  7 19  2 27 15  7 26 13                0.000000056
  11913627.916 9   9180672.18646  23663122.782    23663122.5414   23663138.9194
        -0.000          -0.000
  -1121824.673 9   -875237.10249  21160551.082    21160550.3264   21160559.8134
        -0.000          -0.000
  -2050699.862 9  -1591970.21949  20413413.949    20413413.5884   20413422.6224
        -0.000          -0.000
  -4538745.051 9  -3525489.07046  23563036.656    23563035.9304   23563050.8254
        -0.000          -0.000
 -14699039.894 9 -11429973.85949  20487237.947    20487237.2614   20487246.8784
        -0.000          -0.000
 -11806602.562 9  -9187555.71747  22876833.355    22876833.2684   22876844.0904
        -0.000          -0.000
  10379990.585 9   8086971.24547  22644474.595    22644474.6764   22644485.6894
        -0.000          -0.000
 99  3  4 18 55 30.0000000  0  7 19  2 27 15  7 26 13                0.000000052
  12005892.158 9   9252566.10546  23680680.336    23680680.0654   23680696.5184
        -0.000          -0.000
  -1117201.853 9   -871634.91649  21161430.748    21161430.0774   21161439.5704
        -0.000          -0.000
  -2018161.802 9  -1566615.93149  20419605.802    20419605.4514   20419614.5304
        -0.000          -0.000
  -4536610.044 9  -3523825.39946  23563442.800    23563442.1194   23563457.0254
        -0.000          -0.000
 -14735146.887 9 -11458109.12949  20480367.017    20480366.3274   20480375.9694
        -0.000          -0.000
 -11841191.376 9  -9214507.98447  22870251.297    22870251.2254   22870262.0674
        -0.000          -0.000
  10474059.312 9   8160271.39747  22662375.300    22662375.4144   22662386.6474
        -0.000          -0.000
 99  3  4 18 56  0.0000000  0  7 19  2 27 15  7 26 13                0.000000048
  12098379.109 9   9324633.55146  23698280.287    23698279.9824   23698296.5564
        -0.000          -0.000
  -1112441.444 9   -867925.50849  21162336.648    21162335.9004   21162345.4804
        -0.000          -0.000
  -1985124.789 9  -1540872.84149  20425892.625    20425892.2494   20425901.2794
        -0.000          -0.000
  -4533906.808 9  -3521718.99346  23563957.097    23563956.5024   23563971.5354
        -0.000          -0.000
 -14770763.601 9 -11485862.36449  20473589.405    20473588.7004   20473598.2674
        -0.000          -0.000
 -11875262.202 9  -9241056.64647  22863767.734    22863767.7234   22863778.6694
        -0.000          -0.000
  10568358.605 9   8233751.18047  22680319.863    22680320.0514   22680331.4044
        -0.000          -0.000
 99  3  4 18 56 30.0000000  0  7 19  2 27 15  7 26 13                0.000000043
  12191077.011 9   9396865.37746  23715920.508    23715920.0804   23715936.6984
        -0.000          -0.000
  -1107527.055 9   -864096.12649  21163271.734    21163271.0324   21163280.6984
        -0.000          -0.000
  -1951603.371 9  -1514752.29249  20432271.563    20432271.1734   20432280.1814
        -0.000          -0.000
  -4530630.430 9  -3519165.98046  23564580.630    23564580.0314   23564594.9944
        -0.000          -0.000
 -14805886.762 9 -11513231.01249  20466905.709    20466904.9774   20466914.4834
        -0.000          -0.000
 -11908820.252 9  -9267205.74547  22857381.806    22857381.8244   22857392.8394
        -0.000          -0.000
  10662892.270 9   8307413.59447  22698309.182    22698309.3174   22698320.7074
        -0.000          -0.000
 99  3  4 18 57  0.0000000  0  7 19  2 27 15  7 26 13                0.000000034
  12283970.398 9   9469249.52946  23733597.657    23733597.3224   23733613.9794
        -0.000          -0.000
  -1102454.952 9   -860143.84549  21164236.905    21164236.2444   21164245.8704
        -0.000          -0.000
  -1917603.810 9  -1488259.16349  20438741.551    20438741.1444   20438750.1554
        -0.000          -0.000
  -4526783.045 9  -3516167.99546  23565312.521    23565312.0344   23565327.0824
        -0.000          -0.000
 -14840526.038 9 -11540222.61049  20460314.053    20460313.3104   20460322.8174
        -0.000          -0.000
 -11941864.992 9  -9292954.85547  22851093.508    22851093.4974   22851104.6734
        -0.000          -0.000
  10757655.249 9   8381254.68447  22716342.135    22716342.1734   22716353.6484
        -0.000          -0.000
 99  3  4 18 57 30.0000000  0  7 19  2 27 15  7 26 13                0.000000029
  12377067.486 9   9541792.39146  23751313.658    23751313.3574   23751330.0074
        -0.000          -0.000
  -1097223.541 9   -856067.43249  21165232.448    21165231.8144   21165241.4094
        -0.000          -0.000
  -1883136.778 9  -1461401.78349  20445300.369    20445299.9434   20445309.0534
        -0.000          -0.000
  -4522362.026 9  -3512723.01546  23566153.934    23566153.3214   23566168.4644
        -0.000          -0.000
 -14874689.762 9 -11566843.65349  20453812.801    20453812.0714   20453821.6104
        -0.000          -0.000
 -11974399.628 9  -9318306.49047  22844902.254    22844902.3034   22844913.4634
        -0.000          -0.000
  10852648.646 9   8455275.31647  22734418.850    22734418.9694   22734430.4594
        -0.000          -0.000
 99  3  4 18 58  0.0000000  0  7 19  2 27 15  7 26 13                0.000000023
  12470365.632 9   9614491.90746  23769067.911    23769067.5574   23769084.2784
        -0.000          -0.000
  -1091856.343 9   -851885.20349  21166253.914    21166253.1984   21166262.7284
        -0.000          -0.000
  -1848215.369 9  -1434190.34449  20451945.621    20451945.2634   20451954.4324
        -0.000          -0.000
  -4517382.743 9  -3508843.03346  23567101.494    23567100.7764   23567116.0064
        -0.000          -0.000
 -14908390.079 9 -11593103.59849  20447399.771    20447399.0704   20447408.5834
        -0.000          -0.000
 -12006433.318 9  -9343267.76447  22838806.522    22838806.5234   22838817.5244
        -0.000          -0.000
  10947849.692 9   8529457.74747  22752535.105    22752535.2574   22752546.7824
        -0.000          -0.000
 99  3  4 18 58 30.0000000  0  7 19  2 27 15  7 26 13                0.000000019
  12563878.175 9   9687358.49746  23786863.054    23786862.6974   23786879.3794
        -0.000          -0.000
  -1086377.758 9   -847616.17749  21167296.412    21167295.7164   21167305.2464
        -0.000          -0.000
  -1812837.024 9  -1406622.83049  20458677.981    20458677.6124   20458686.6954
        -0.000          -0.000
  -4511848.647 9  -3504530.74846  23568154.582    23568153.7974   23568169.0754
        -0.000          -0.000
 -14941618.617 9 -11618995.92049  20441076.555    20441075.8484   20441085.3144
        -0.000          -0.000
 -12037959.211 9  -9367833.36747  22832807.458    22832807.3974   22832818.2444
        -0.000          -0.000
  11043247.900 9   8603793.82647  22770688.921    22770689.0604   22770700.5264
        -0.000          -0.000
 99  3  4 18 59  0.0000000  0  7 19  2 27 15  7 26 13                0.000000034
  12657635.082 9   9760415.49646  23804704.695    23804704.3354   23804721.0224
        -0.000          -0.000
  -1080784.470 9   -843257.78049  21168360.853    21168360.1294   21168369.6094
        -0.000          -0.000
  -1776968.955 9  -1378673.73349  20465503.491    20465503.1074   20465512.2544
        -0.000          -0.000
  -4505744.758 9  -3499774.42846  23569316.091    23569315.3524   23569330.6324
        -0.000          -0.000
 -14974372.894 9 -11644518.69949  20434843.567    20434842.8534   20434852.2754
        -0.000          -0.000
 -12068952.923 9  -9391984.28247  22826909.569    22826909.5194   22826920.2074
        -0.000          -0.000
  11138858.779 9   8678295.61247  22788883.169    22788883.2944   22788894.7504
        -0.000          -0.000
 99  3  4 18 59 30.0000000  0  7 19  2 27 15  7 26 13                0.000000039
  12751593.835 9   9833629.78746  23822584.540    23822584.2984   23822601.0994
        -0.000          -0.000
  -1075115.576 9   -838840.46949  21169439.610    21169438.9124   21169448.4014
        -0.000          -0.000
  -1740647.120 9  -1350371.05249  20472415.300    20472414.9524   20472424.1374
        -0.000          -0.000
  -4499111.446 9  -3494605.58946  23570578.294    23570577.6584   23570592.8024
        -0.000          -0.000
 -15006698.375 9 -11669707.34849  20428692.193    20428691.4714   20428700.8454
        -0.000          -0.000
 -12099457.066 9  -9415753.70447  22821104.729    22821104.7084   22821115.3724
        -0.000          -0.000
  11234634.048 9   8752925.49746  22807108.527    22807108.7174   22807120.3134
        -0.000          -0.000
 99  3  4 19  0  0.0000000  0  7 19  2 27 15  7 26 13                0.000000040
  12845763.183 9   9907008.17446  23840504.528    23840504.3924   23840521.2054
        -0.000          -0.000
  -1069347.118 9   -834345.57449  21170537.400    21170536.6534   21170546.0964
        -0.000          -0.000
  -1703841.573 9  -1321691.43549  20479419.245    20479418.8834   20479428.0654
        -0.000          -0.000
  -4491931.288 9  -3489010.66646  23571944.702    23571944.0624   23571959.0524
        -0.000          -0.000
 -15038569.125 9 -11694541.65249  20422627.332    20422626.6404   20422635.9864
        -0.000          -0.000
 -12129451.651 9  -9439126.06447  22815396.924    22815396.9694   22815407.4564
        -0.000          -0.000
  11330588.196 9   8827694.77646  22825367.923    22825368.2264   22825380.0424
        -0.000          -0.000
 99  3  4 19  0 30.0000000  0  7 19  2 27 15  7 26 13                0.000000030
  12940129.999 9   9980540.42146  23858462.289    23858462.0804   23858478.9194
        -0.000          -0.000
  -1063471.057 9   -829766.83449  21171655.587    21171654.8484   21171664.2374
        -0.000          -0.000
  -1666555.546 9  -1292637.43449  20486514.526    20486514.1514   20486523.4414
        -0.000          -0.000
  -4484198.622 9  -3482985.20946  23573416.126    23573415.4544   23573430.5274
        -0.000          -0.000
 -15069983.667 9 -11719020.47649  20416649.366    20416648.6584   20416658.0124
        -0.000          -0.000
 -12158945.999 9  -9462108.64947  22809784.414    22809784.3654   22809794.8484
        -0.000          -0.000
  11426710.953 9   8902595.41847  22843659.731    22843660.0024   22843671.8884
        -0.000          -0.000
 99  3  4 19  1  0.0000000  0  7 19  2 27 15  7 26 13                0.000000022
  13034709.842 9  10054238.68246  23876460.585    23876460.3404   23876477.1964
        -0.000          -0.000
  -1057448.373 9   -825073.84649  21172801.664    21172800.9154   21172810.3064
        -0.000          -0.000
  -1628765.619 9  -1263190.78449  20493705.756    20493705.3834   20493714.6694
        -0.000          -0.000
  -4475884.878 9  -3476507.00146  23574998.192    23574997.5784   23575012.4554
        -0.000          -0.000
 -15100924.137 9 -11743129.89949  20410761.595    20410760.8844   20410770.2474
        -0.000          -0.000
 -12187910.650 9  -9484678.48947  22804272.462    22804272.4614   22804283.1154
        -0.000          -0.000
  11523012.958 9   8977635.70847  22861985.798    22861985.9854   22861997.8004
        -0.000          -0.000
 99  3  4 19  1 30.0000000  0  7 19  2 27 15  7 26 13                0.000000005
  13129490.868 9  10128093.69546  23894496.935    23894496.7044   23894513.7254
        -0.000          -0.000
  -1051297.897 9   -820281.27349  21173972.020    21173971.2854   21173980.6924
        -0.000          -0.000
  -1590498.363 9  -1233372.16749  20500987.909    20500987.4824   20500996.7054
        -0.000          -0.000
  -4467001.777 9  -3469585.14046  23576688.896    23576688.1684   23576702.9894
        -0.000          -0.000
 -15131386.447 9 -11766866.71649  20404964.768    20404964.0484   20404973.4314
        -0.000          -0.000
 -12216361.529 9  -9506847.97647  22798858.237    22798858.3094   22798869.1374
        -0.000          -0.000
  11619470.791 9   9052797.44747  22880341.376    22880341.5294   22880353.3434
        -0.000          -0.000
 99  3  4 19  2  0.0000000  0  7 19  2 27 15  7 26 13                0.000000001
  13224505.450 9  10202130.70446  23912577.696    23912577.6064   23912594.7284
        -0.000          -0.000
  -1045012.713 9   -815383.73949  21175168.033    21175167.3074   21175176.7854
        -0.000          -0.000
  -1551733.773 9  -1203166.03949  20508364.478    20508364.0654   20508373.3864
        -0.000          -0.000
  -4457526.337 9  -3462201.66946  23578491.987    23578491.3104   23578506.1914
        -0.000          -0.000
 -15161338.401 9 -11790205.85949  20399265.059    20399264.3634   20399273.7704
        -0.000          -0.000
 -12244272.135 9  -9528596.46947  22793547.128    22793547.1164   22793557.8944
        -0.000          -0.000
  11716105.320 9   9128096.86647  22898730.597    22898730.7284   22898742.6204
        -0.000          -0.000
 99  3  4 19  2 30.0000000  0  7 19  2 27 15  7 26 13                0.000000003
  13319736.978 9  10276336.75745  23930700.071    23930699.8714   23930717.0064
        -0.000          -0.000
  -1038630.848 9   -810410.87149  21176382.494    21176381.7464   21176391.2614
        -0.000          -0.000
  -1512493.989 9  -1172589.63149  20515831.565    20515831.1754   20515840.5494
        -0.000          -0.000
  -4447484.056 9  -3454376.53946  23580403.011    23580402.2374   23580417.1954
        -0.000          -0.000
 -15190815.341 9 -11813174.85849  20393655.769    20393655.0864   20393664.4894
        -0.000          -0.000
 -12271657.766 9  -9549935.90547  22788335.809    22788335.8434   22788346.5324
        -0.000          -0.000
  11812901.024 9   9203521.88746  22917150.329    22917150.4664   22917162.4554
        -0.000          -0.000
 99  3  4 19  3  0.0000000  0  7 19  2 27 15  7 26 13                0.000000014
  13415184.689 9  10350711.26645  23948863.562    23948863.2764   23948880.4884
        -0.000          -0.000
  -1032168.103 9   -805374.98649  21177612.340    21177611.6044   21177621.0594
        -0.000          -0.000
  -1472777.424 9  -1141641.70049  20523389.484    20523389.0634   20523398.3414
        -0.000          -0.000
  -4436886.501 9  -3446118.74046  23582419.627    23582418.8514   23582433.7584
        -0.000          -0.000
 -15219837.569 9 -11835789.53949  20388133.059    20388132.3504   20388141.6874
        -0.000          -0.000
 -12298518.368 9  -9570866.22247  22783224.474    22783224.4424   22783235.0844
        -0.000          -0.000
  11909857.229 9   9279071.96646  22935600.601    22935600.7634   22935612.6624
        -0.000          -0.000
 99  3  4 19  3 30.0000000  0  7 19  2 27 15  7 26 13                0.000000032
  13510841.360 8  10425248.58245  23967066.801    23967066.5144   23967083.5984
        -0.000          -0.000
  -1025622.892 9   -800274.83849  21178857.890    21178857.1124   21178866.5244
        -0.000          -0.000
  -1432587.924 9  -1110325.25049  20531037.330    20531036.9194   20531046.1264
        -0.000          -0.000
  -4425737.629 9  -3437431.32346  23584541.078    23584540.3924   23584555.4684
        -0.000          -0.000
 -15248410.147 9 -11858053.84049  20382695.893    20382695.1544   20382704.4584
        -0.000          -0.000
 -12324859.464 9  -9591391.74347  22778211.823    22778211.8224   22778222.5324
        -0.000          -0.000
  12006978.778 9   9354750.87446  22954082.488    22954082.5694   22954094.3364
        -0.000          -0.000
 99  3  4 19  4  0.0000000  0  7 19  2 27 15  7 26 13                0.000000053
  13606695.767 8  10499940.01245  23985307.567    23985307.2474   23985324.4224
        -0.000          -0.000
  -1018986.304 9   -795103.48949  21180120.838    21180120.0984   21180129.4704
        -0.000          -0.000
  -1391926.491 9  -1078641.07049  20538774.939    20538774.5324   20538783.8044
        -0.000          -0.000
  -4414043.786 9  -3428319.28946  23586766.426    23586765.6724   23586780.5854
        -0.000          -0.000
 -15276552.935 9 -11879983.24049  20377340.420    20377339.6914   20377348.9974
        -0.000          -0.000
 -12350676.329 9  -9611508.76247  22773298.961    22773298.9634   22773309.7504
        -0.000          -0.000
  12104247.839 9   9430544.73946  22972592.165    22972592.3054   22972604.0994
        -0.000          -0.000
 99  3  4 19  4 30.0000000  0  7 19  2 27 15  7 26 13                0.000000063
  13702725.487 8  10574768.05045  24003581.495    24003581.1464   24003598.5224
        -0.000          -0.000
  -1012257.809 9   -789860.52449  21181401.251    21181400.5124   21181409.9724
        -0.000          -0.000
  -1350807.948 9  -1046600.69449  20546599.512    20546599.1554   20546608.5104
        -0.000          -0.000
  -4401818.945 9  -3418793.48446  23589092.607    23589091.8724   23589106.7764
        -0.000          -0.000
 -15304285.083 9 -11901592.66349  20372063.107    20372062.3854   20372071.6904
        -0.000          -0.000
 -12375987.263 9  -9631231.54047  22768482.360    22768482.3684   22768493.1344
        -0.000          -0.000
  12201638.170 9   9506433.10146  22991125.101    22991125.3544   22991137.0584
        -0.000          -0.000
 99  3  4 19  5  0.0000000  0  7 19  2 27 15  7 26 13                0.000000063
  13798940.887 8  10649740.75545  24021890.909    24021890.6504   24021908.1554
        -0.000          -0.000
  -1005410.931 9   -784525.30949  21182704.193    21182703.4404   21182712.9244
        -0.000          -0.000
  -1309228.719 9  -1014201.33548  20554511.816    20554511.4484   20554520.7994
        -0.000          -0.000
  -4389046.498 9  -3408840.95046  23591523.126    23591522.4694   23591537.3564
        -0.000          -0.000
 -15331575.160 9 -11922857.61349  20366869.879    20366869.1704   20366878.4834
        -0.000          -0.000
 -12400789.382 9  -9650557.84647  22763762.557    22763762.6354   22763773.3804
        -0.000          -0.000
  12299151.998 9   9582417.67146  23009681.700    23009681.8684   23009693.5784
        -0.000          -0.000
 99  3  4 19  5 30.0000000  0  7 19  2 27 15  7 26 13                0.000000057
  13895355.282 8  10724868.51545  24040238.221    24040237.8704   24040255.4764
        -0.000          -0.000
   -998426.614 9   -779083.00349  21184033.224    21184032.4994   21184042.0214
        -0.000          -0.000
  -1267176.458 9   -981433.38048  20562514.105    20562513.7284   20562523.0834
        -0.000          -0.000
  -4375711.134 9  -3398449.77946  23594060.844    23594060.2024   23594075.0474
        -0.000          -0.000
 -15358391.845 9 -11943753.68349  20361766.795    20361766.1134   20361775.4724
        -0.000          -0.000
 -12425068.224 9  -9669476.41947  22759142.462    22759142.5234   22759153.2134
        -0.000          -0.000
  12396800.755 9   9658507.39446  23028263.724    23028263.9444   23028275.7784
        -0.000          -0.000
 99  3  4 19  6  0.0000000  0  7 19  2 27 15  7 26 13                0.000000041
  13991962.643 8  10800146.60045  24058622.413    24058621.7724   24058639.5924
        -0.000          -0.000
   -991310.451 9   -773537.96649  21185387.437    21185386.7124   21185396.2504
        -0.000          -0.000
  -1224637.951 9   -948286.54448  20570608.924    20570608.5844   20570617.9984
        -0.000          -0.000
  -4361808.948 9  -3387616.93846  23596706.548    23596705.7814   23596720.6884
        -0.000          -0.000
 -15384724.378 9 -11964272.50149  20356755.853    20356755.1624   20356764.5694
        -0.000          -0.000
 -12448831.683 9  -9687993.39047  22754620.479    22754620.5644   22754631.2204
        -0.000          -0.000
  12494584.789 9   9734702.50846  23046871.557    23046871.7634   23046883.6584
        -0.000          -0.000
 99  3  4 19  6 30.0000000  0  7 19  2 27 15  7 26 13                0.000000025
  14088778.467 8  10875587.17445  24077045.762    24077045.1294   24077063.6304
        -0.000          -0.000
   -984044.877 9   -767876.50749  21186770.054    21186769.3154   21186778.8814
        -0.000          -0.000
  -1181590.009 9   -914742.74148  20578800.650    20578800.3534   20578809.8144
        -0.000          -0.000
  -4347316.120 9  -3376323.81746  23599464.513    23599463.6914   23599478.6984
        -0.000          -0.000
 -15410545.594 9 -11984392.89149  20351842.249    20351841.5334   20351850.9264
        -0.000          -0.000
 -12472067.141 9  -9706098.92847  22750199.011    22750199.0454   22750209.6564
        -0.000          -0.000
  12592542.104 9   9811032.66146  23065512.448    23065512.5784   23065524.6564
        -0.000          -0.000
 99  3  4 19  7  0.0000000  0  7 19  2 27 15  7 26 13                0.000000003
  14185789.071 8  10951179.48145  24095506.195    24095506.0294   24095524.2124
        -0.000          -0.000
   -976648.240 9   -762112.91649  21188177.616    21188176.8804   21188186.4614
        -0.000          -0.000
  -1138049.381 9   -880815.01948  20587086.194    20587085.8874   20587095.2854
        -0.000          -0.000
  -4332243.634 9  -3364579.06146  23602332.787    23602331.9454   23602346.9904
        -0.000          -0.000
 -15435859.461 9 -12004117.94249  20347025.187    20347024.4684   20347033.8074
        -0.000          -0.000
 -12494787.227 9  -9723802.87247  22745875.486    22745875.4884   22745886.1964
        -0.000          -0.000
  12690665.467 9   9887492.19246  23084184.746    23084184.9514   23084197.2704
        -0.000          -0.000
 99  3  4 19  7 30.0000000  0  7 19  2 27 15  7 26 13               -0.000000002
  14283017.025 8  11026941.17945  24114008.113    24114009.5594   24114026.9034
        -0.000          -0.000
   -969097.556 9   -756229.28549  21189614.432    21189613.6964   21189623.2714
        -0.000          -0.000
  -1093984.635 9   -846478.89948  20595471.519    20595471.1724   20595480.5704
        -0.000          -0.000
  -4316561.065 9  -3352358.89446  23605316.995    23605316.1604   23605331.3304
        -0.000          -0.000
 -15460642.144 9 -12023429.08849  20342309.180    20342308.4434   20342317.7744
        -0.000          -0.000
 -12516955.632 9  -9741076.95247  22741656.826    22741656.8884   22741667.6424
        -0.000          -0.000
  12788975.068 9   9964096.83646  23102892.751    23102892.9494   23102905.2324
        -0.000          -0.000
 99  3  4 19  8  0.0000000  0  7 19  2 27 15  7 26 13               -0.000000009
  14380425.224 8  11102843.34345  24132544.652    24132545.6974   24132563.2584
        -0.000          -0.000
   -961424.059 9   -750249.95849  21191074.606    21191073.8754   21191083.4954
        -0.000          -0.000
  -1049444.782 9   -811772.56848  20603947.283    20603946.9144   20603956.3434
        -0.000          -0.000
  -4300301.518 9  -3339689.11346  23608411.058    23608410.2184   23608425.3374
        -0.000          -0.000
 -15484939.237 9 -12042361.85549  20337685.560    20337684.8344   20337694.1344
        -0.000          -0.000
 -12538607.372 9  -9757948.41947  22737536.719    22737536.7814   22737547.4534
        -0.000          -0.000
  12887433.354 9  10040817.34446  23121629.001    23121629.0894   23121641.4664
        -0.000          -0.000
 99  3  4 19  8 30.0000000  0  7 19  2 27 15  7 26 13               -0.000000004
  14478031.587 8  11178899.87844  24151119.061    24151119.7564   24151137.3624
        -0.000          -0.000
   -953626.342 9   -744173.83949  21192558.372    21192557.6884   21192567.3294
        -0.000          -0.000
  -1004449.779 9   -776711.57848  20612509.632    20612509.2374   20612518.5934
        -0.000          -0.000
  -4283466.232 9  -3326570.70846  23611614.754    23611613.9404   23611628.9104
        -0.000          -0.000
 -15508754.820 9 -12060919.42349  20333153.605    20333152.8914   20333162.1414
        -0.000          -0.000
 -12559735.148 9  -9774411.60747  22733516.339    22733516.3244   22733526.9894
        -0.000          -0.000
  12986044.336 9  10117656.82346  23140394.076    23140394.1684   23140406.7704
        -0.000          -0.000
 99  3  4 19  9  0.0000000  0  7 19  2 27 15  7 26 13                0.000000005
  14575823.662 8  11255101.13244  24169728.735    24169729.7134   24169747.4174
        -0.000          -0.000
   -945725.908 9   -738017.67449  21194061.761    21194061.0574   21194070.7544
        -0.000          -0.000
   -959010.691 9   -741304.54248  20621156.377    20621156.0014   20621165.3234
        -0.000          -0.000
  -4266071.010 9  -3313016.00646  23614924.996    23614924.1784   23614939.1104
        -0.000          -0.000
 -15532109.390 9 -12079117.75949  20328709.367    20328708.6284   20328717.8814
        -0.000          -0.000
 -12580346.142 9  -9790472.11547  22729594.271    22729594.2204   22729604.8734
        -0.000          -0.000
  13084784.672 9  10194597.08646  23159184.055    23159184.0594   23159196.7394
        -0.000          -0.000
 99  3  4 19  9 30.0000000  0  7 19  2 27 15  7 26 13                0.000000031
  14673802.753 8  11331448.14044  24188374.028    24188374.7074   24188392.9254
        -0.000          -0.000
   -937697.767 9   -731762.00649  21195589.498    21195588.8094   21195598.4454
        -0.000          -0.000
   -913104.444 9   -705533.49148  20629891.980    20629891.6834   20629901.0434
        -0.000          -0.000
  -4248103.260 9  -3299015.16946  23618344.277    23618343.4514   23618358.2914
        -0.000          -0.000
 -15555010.954 9 -12096963.11249  20324351.221    20324350.5054   20324359.7914
        -0.000          -0.000
 -12600420.034 9  -9806114.12447  22725774.234    22725774.2744   22725784.9304
        -0.000          -0.000
  13183675.972 9  10271654.98546  23178002.603    23178002.6524   23178015.3884
        -0.000          -0.000
 99  3  4 19 10  0.0000000  0  7 19  2 27 15  7 26 13                0.000000046
  14771919.374 8  11407902.28544  24207045.172    24207045.7414   24207063.7504
        -0.000          -0.000
   -929583.142 9   -725438.93449  21197133.700    21197132.9904   21197142.6634
        -0.000          -0.000
   -866775.635 9   -669433.16748  20638708.064    20638707.7804   20638717.2444
        -0.000          -0.000
  -4229612.740 9  -3284607.02446  23621862.989    23621862.2464   23621876.8474
        -0.000          -0.000
 -15577513.851 9 -12114497.80749  20320069.030    20320068.3204   20320077.6314
        -0.000          -0.000
 -12619995.021 9  -9821367.34347  22722049.269    22722049.2634   22722060.0154
        -0.000          -0.000
  13282676.268 9  10348797.82046  23196841.799    23196841.9304   23196854.6634
        -0.000          -0.000
 99  3  4 19 10 30.0000000  0  7 19  2 27 15  7 26 13                0.000000041
  14870152.876 8  11484447.52144  24225738.446    24225738.7594   24225757.3634
        -0.000          -0.000
   -921396.623 9   -719059.85149  21198691.572    21198690.8724   21198700.5994
        -0.000          -0.000
   -820005.450 9   -632988.92248  20647608.190    20647607.8984   20647617.3954
        -0.000          -0.000
  -4210607.824 9  -3269798.04146  23625479.491    23625478.6724   23625493.3714
        -0.000          -0.000
 -15599624.989 9 -12131727.23949  20315861.420    20315860.7024   20315870.0204
        -0.000          -0.000
 -12639064.951 9  -9836227.02947  22718420.441    22718420.4154   22718431.1484
        -0.000          -0.000
  13381760.089 9  10426005.72146  23215697.116    23215697.2064   23215709.9314
        -0.000          -0.000
 99  3  4 19 11  0.0000000  0  7 19  2 27 15  7 26 13                0.000000036
  14968532.617 7  11561106.70054  24244459.757    24244459.6514          0.0005
        -0.000          -0.000
   -913082.120 9   -712581.03749  21200273.796    21200273.0764   21200282.7744
        -0.000          -0.000
   -772724.794 9   -596146.89248  20656605.567    20656605.2204   20656614.6464
        -0.000          -0.000
  -4191034.409 9  -3254546.09346  23629204.168    23629203.3534   23629218.0174
        -0.000          -0.000
 -15621283.163 9 -12148603.71249  20311740.053    20311739.3064   20311748.6104
        -0.000          -0.000
 -12657575.151 9  -9850650.54747  22714898.045    22714898.0044   22714908.7454
        -0.000          -0.000
  13480958.705 9  10503303.07646  23234574.333    23234574.3784   23234587.0334
        -0.000          -0.000
 99  3  4 19 11 30.0000000  0  7 19  2 27 15  7 26 13                0.000000024
  15067046.946 7  11637870.73654  24263206.815    24263206.7834          0.0005
        -0.000          -0.000
   -904649.400 9   -706010.10549  21201878.576    21201877.8254   21201887.4714
        -0.000          -0.000
   -724957.233 9   -558925.46948  20665695.466    20665695.0874   20665704.6154
        -0.000          -0.000
  -4170904.296 9  -3238860.32046  23633034.631    23633033.9414   23633048.8494
        -0.000          -0.000
 -15642497.899 9 -12165134.64449  20307702.985    20307702.2404   20307711.5804
        -0.000          -0.000
 -12675535.102 9  -9864645.30347  22711480.364    22711480.3694   22711491.0704
        -0.000          -0.000
  13580250.237 9  10580672.85246  23253469.077    23253469.0794   23253481.8874
        -0.000          -0.000
 99  3  4 19 12  0.0000000  0  7 19  2 27 15  7 26 13                0.000000001
  15165717.66217  11714756.76253         0.000           0.0005          0.0005
        -0.000          -0.000
   -896117.203 9   -699361.66949  21203502.213    21203501.4714   21203511.1104
        -0.000          -0.000
   -676705.892 9   -521327.09448  20674877.396    20674877.0504   20674886.6754
        -0.000          -0.000
  -4150214.688 9  -3222738.57046  23636971.439    23636970.8654   23636986.0524
        -0.000          -0.000
 -15663249.364 9 -12181304.59949  20303754.029    20303753.2944   20303762.7234
        -0.000          -0.000
 -12692955.273 9  -9878219.46647  22708165.387    22708165.4644   22708176.1104
        -0.000          -0.000
  13679610.283 9  10658096.00146  23272376.587    23272376.7194   23272389.8034
        -0.000          -0.000
 99  3  4 19 12 30.0000000  0  7 19  2 27 15  7 26 13               -0.000000021
  15264577.51817  11791789.98253         0.000           0.0005          0.0005
        -0.000          -0.000
   -887467.979 9   -692622.04249  21205148.140    21205147.4024   21205157.0084
        -0.000          -0.000
   -627943.402 9   -483330.40448  20684156.598    20684156.2974   20684165.9164
        -0.000          -0.000
  -4128936.396 9  -3206158.10746  23641020.601    23641019.9424   23641035.2764
        -0.000          -0.000
 -15683503.306 9 -12197086.86749  20299899.848    20299899.1124   20299908.5244
        -0.000          -0.000
 -12709832.993 9  -9891370.93447  22704953.537    22704953.6784   22704964.4324
        -0.000          -0.000
  13779068.361 9  10735595.53046  23291302.956    23291303.1364   23291316.3364
        -0.000          -0.000
 99  3  4 19 13  0.0000000  0  7 19  2 27 15  7 26 13               -0.000000033
  15363653.44517  -1208825.32242         0.000           0.0005          0.0004
        -0.000          -0.000
   -878697.037 9   -685787.57649  21206817.170    21206816.4274   21206826.0764
        -0.000          -0.000
   -578700.035 9   -444959.01248  20693527.394    20693527.0794   20693536.7164
        -0.000          -0.000
  -4107069.993 9  -3189119.41546  23645181.743    23645181.1214   23645196.2294
        -0.000          -0.000
 -15703255.982 9 -12212478.55349  20296141.033    20296140.3244   20296149.6634
        -0.000          -0.000
 -12726187.139 9  -9904114.43247  22701841.477    22701841.5524   22701852.3544
        -0.000          -0.000
  13878646.114 9  10813188.30946  23310252.153    23310252.2774   23310265.5614
        -0.000          -0.000
 99  3  4 19 13 30.0000000  0  6  2 27 15  7 26 13                  -0.000000054
   -869888.623 9   -678923.91049  21208493.414    21208492.6764   21208502.3494
        -0.000          -0.000
   -529068.887 9   -406285.46448  20702971.840    20702971.5214   20702981.2024
        -0.000          -0.000
  -4084704.000 9  -3171691.41046  23649438.061    23649437.3154   23649452.4634
        -0.000          -0.000
 -15722601.708 9 -12227553.13049  20292459.653    20292458.9234   20292468.2154
        -0.000          -0.000
 -12742106.114 9  -9916518.82547  22698812.277    22698812.3294   22698823.0754
        -0.000          -0.000
  13978267.302 9  10890814.93046  23329209.632    23329209.7434   23329223.1544
        -0.000          -0.000
 99  3  4 19 14  0.0000000  0  6  2 27 15  7 26 13                  -0.000000068
   -860903.434 9   -671922.49549  21210203.271    21210202.5424   21210212.2444
        -0.000          -0.000
   -478904.392 9   -367196.31348  20712517.921    20712517.5924   20712527.2074
        -0.000          -0.000
  -4061710.417 9  -3153774.35046  23653813.672    23653812.9364   23653828.2174
        -0.000          -0.000
 -15741399.557 9 -12242200.78849  20288882.488    20288881.7704   20288891.1194
        -0.000          -0.000
 -12757475.023 9  -9928494.61747  22695887.702    22695887.7144   22695898.4704
        -0.000          -0.000
  14078065.084 9  10968579.13446  23348200.730    23348200.8964   23348214.4434
        -0.000          -0.000
 99  3  4 19 14 30.0000000  0  6  2 27 15  7 26 13                  -0.000000071
   -851767.260 9   -664803.43249  21211941.799    21211941.0984   21211950.8054
        -0.000          -0.000
   -428254.840 9   -327729.20048  20722156.370    20722155.9704   20722165.5704
        -0.000          -0.000
  -4038131.515 9  -3135401.20346  23658300.428    23658299.7904   23658315.1244
        -0.000          -0.000
 -15759693.245 9 -12256455.59549  20285401.250    20285400.5294   20285409.9044
        -0.000          -0.000
 -12772325.588 9  -9940066.49347  22693061.614    22693061.7004   22693072.4704
        -0.000          -0.000
  14178011.442 9  11046459.11646  23367220.047    23367220.2694   23367233.9534
        -0.000          -0.000
 99  3  4 19 15  0.0000000  0  6  2 27 15  7 26 13                  -0.000000070
   -842483.258 9   -657569.16949  21213708.566    21213707.8264   21213717.5174
        -0.000          -0.000
   -377137.387 9   -287897.49148  20731883.764    20731883.3364   20731892.9924
        -0.000          -0.000
  -4013982.843 9  -3116584.08346  23662895.697    23662895.1584   23662910.4534
        -0.000          -0.000
 -15777503.280 9 -12270333.52449  20282012.078    20282011.3664   20282020.6794
        -0.000          -0.000
 -12786647.444 9  -9951226.37047  22690336.378    22690336.3874   22690347.1084
        -0.000          -0.000
  14278074.595 9  11124430.09146  23386261.519    23386261.7174   23386275.5794
        -0.000          -0.000
 99  3  4 19 15 30.0000000  0  6  2 27 15  7 26 13                  -0.000000068
   -833055.042 9   -650222.54249  21215502.739    21215502.0334   21215511.6384
        -0.000          -0.000
   -325529.250 9   -247683.42648  20741704.465    20741704.0874   20741713.7154
        -0.000          -0.000
  -3989260.999 8  -3097320.33146  23667600.417    23667599.6824   23667615.1154
        -0.000          -0.000
 -15794829.646 9 -12283834.57349  20278715.043    20278714.2884   20278723.5704
        -0.000          -0.000
 -12800428.246 9  -9961964.66247  22687713.968    22687714.0324   22687724.6324
        -0.000          -0.000
  14378233.938 9  11202476.02246  23405321.392    23405321.5424   23405335.6084
        -0.000          -0.000
 99  3  4 19 16  0.0000000  0  6  2 27 15  7 26 13                  -0.000000064
   -823496.014 9   -642773.97549  21217321.807    21217321.0644   21217330.7454
        -0.000          -0.000
   -273428.959 9   -207085.85048  20751618.791    20751618.4934   20751628.1274
        -0.000          -0.000
  -3963963.959 8  -3077608.39046  23672414.167    23672413.5594   23672428.9994
        -0.000          -0.000
 -15811673.193 9 -12296959.40149  20275509.807    20275509.0874   20275518.4224
        -0.000          -0.000
 -12813664.916 9  -9972278.95847  22685195.077    22685195.1464   22685205.7314
        -0.000          -0.000
  14478482.617 9  11280591.57146  23424398.272    23424398.4764   23424412.5404
        -0.000          -0.000
 99  3  4 19 16 30.0000000  0  6  2 27 15  7 26 13                  -0.000000051
   -813824.660 9   -635237.88149  21219162.261    21219161.5304   21219171.1934
        -0.000          -0.000
   -220848.973 9   -166114.50848  20761624.550    20761624.2364   20761633.9734
        -0.000          -0.000
  -3938096.006 8  -3057451.59145  23677336.532    23677335.9914   23677351.3714
        -0.000          -0.000
 -15828055.541 9 -12309724.84649  20272392.375    20272391.6454   20272401.0124
        -0.000          -0.000
 -12826342.933 9  -9982157.93247  22682782.571    22682782.5864   22682793.1354
        -0.000          -0.000
  14578806.022 9  11358765.33446  23443489.730    23443489.8594   23443503.5434
        -0.000          -0.000
 99  3  4 19 17  0.0000000  0  6  2 27 15  7 26 13                  -0.000000040
   -804062.391 9   -627630.94449  21221019.969    21221019.2044   21221028.8774
        -0.000          -0.000
   -167795.799 9   -124774.45148  20771720.318    20771719.9674   20771729.8284
        -0.000          -0.000
  -3911675.726 8  -3036864.44045  23682364.231    23682363.6614   23682379.1164
        -0.000          -0.000
 -15844001.101 9 -12322149.94149  20269358.004    20269357.2464   20269366.5534
        -0.000          -0.000
 -12838478.162 9  -9991613.95947  22680473.257    22680473.3154   22680483.8534
        -0.000          -0.000
  14679183.705 9  11436981.40646  23462591.216    23462591.3064   23462605.0894
        -0.000          -0.000
 99  3  4 19 17 30.0000000  0  6  2 27 15  7 26 13                  -0.000000037
   -794223.828 9   -619964.55749  21222892.174    21222891.4184   21222901.1724
        -0.000          -0.000
   -114268.993 9    -83065.30748  20781906.209    20781905.8364   20781915.6784
        -0.000          -0.000
  -3884709.130 8  -3015851.55845  23687496.000    23687495.2184   23687510.6634
        -0.000          -0.000
 -15859510.732 9 -12334235.35249  20266406.537    20266405.8094   20266415.1014
        -0.000          -0.000
 -12850100.031 9 -10000669.97247  22678261.683    22678261.7564   22678272.2924
        -0.000          -0.000
  14779617.189 9  11515240.94146  23481703.178    23481703.3744   23481717.4554
        -0.000          -0.000
 99  3  4 19 18  0.0000000  0  6  2 27 15  7 26 13                  -0.000000031
   -784290.399 9   -612224.25349  21224782.427    21224781.6994   21224791.4194
        -0.000          -0.000
    -60261.108 9    -40981.31048  20792183.605    20792183.2314   20792193.0904
        -0.000          -0.000
  -3857184.541 8  -2994403.87945  23692733.933    23692733.1124   23692748.4434
        -0.000          -0.000
 -15874572.126 9 -12345971.48949  20263540.391    20263539.6834   20263548.9914
        -0.000          -0.000
 -12861200.479 9 -10009319.69147  22676149.428    22676149.4584   22676159.9774
        -0.000          -0.000
  14880131.531 9  11593563.45146  23500830.721    23500830.8934   23500845.0724
        -0.000          -0.000
 99  3  4 19 18 30.0000000  0  6  2 27 15  7 26 13                  -0.000000026
   -774247.808 9   -604398.87449  21226693.473    21226692.7564   21226702.4614
        -0.000          -0.000
     -5786.236 9      1466.57648  20802549.982    20802549.5944   20802559.4504
        -0.000          -0.000
  -3829106.778 8  -2972525.19645  23698076.752    23698076.1734   23698091.5604
        -0.000          -0.000
 -15889186.688 9 -12357359.43649  20260759.300    20260758.5794   20260767.9494
        -0.000          -0.000
 -12871784.878 9 -10017567.27147  22674135.381    22674135.3434   22674145.8774
        -0.000          -0.000
  14980724.570 9  11671947.29446  23519973.055    23519973.2714   23519987.6244
        -0.000          -0.000
 99  3  4 19 19  0.0000000  0  6  2 27 15  7 26 13                  -0.000000024
   -764084.899 9   -596479.75449  21228627.489    21228626.7284   21228636.4284
        -0.000          -0.000
     49143.139 9     44268.61548  20813002.819    20813002.3984   20813012.2704
        -0.000          -0.000
  -3800477.489 8  -2950216.75146  23703524.782    23703524.1214   23703539.6124
        -0.000          -0.000
 -15903343.962 9 -12368391.06049  20258065.215    20258064.5044   20258073.9184
        -0.000          -0.000
 -12881873.222 9 -10025428.32847  22672215.530    22672215.4724   22672226.1534
        -0.000          -0.000
  15081404.873 9  11750399.12246  23539132.178    23539132.3384   23539146.9414
        -0.000          -0.000
 99  3  4 19 19 30.0000000  0  6  2 27 15  7 26 13                  -0.000000019
   -753780.255 9   -588450.18949  21230588.336    21230587.6004   21230597.3394
        -0.000          -0.000
    104528.073 9     87425.63548  20823542.121    20823541.7924   20823551.6394
        -0.000          -0.000
  -3771282.339 8  -2927467.35946  23709080.745    23709079.8664   23709095.1754
        -0.000          -0.000
 -15917029.349 9 -12379054.97649  20255460.958    20255460.2274   20255469.6464
        -0.000          -0.000
 -12891445.374 9 -10032887.15847  22670393.884    22670393.8534   22670404.7004
        -0.000          -0.000
  15182175.107 9  11828921.03546  23558307.946    23558308.2234   23558323.1784
        -0.000          -0.000
 99  3  4 19 20  0.0000000  0  6  2 27 15  7 26 13                  -0.000000010
   -743327.325 9   -580305.07449  21232577.501    21232576.7834   21232586.4474
        -0.000          -0.000
    160348.116 9    130921.71648  20834164.467    20834164.1384   20834173.8544
        -0.000          -0.000
  -3741528.399 8  -2904282.49846  23714742.529    23714741.7864   23714757.3284
        -0.000          -0.000
 -15930251.805 9 -12389358.17149  20252944.784    20252944.0884   20252953.4544
        -0.000          -0.000
 -12900490.587 9 -10039935.37947  22668672.737    22668672.7044   22668683.4674
        -0.000          -0.000
  15283021.988 9  11907502.65946  23577498.852    23577499.1564   23577513.6934
        -0.000          -0.000
 99  3  4 19 20 30.0000000  0  6  2 27 15  7 26 13                   0.000000001
   -732720.495 9   -572040.04449  21234596.039    21234595.2664   21234604.9504
        -0.000          -0.000
    216601.750 9    174755.66548  20844869.313    20844868.8984   20844878.5874
        -0.000          -0.000
  -3711214.590 9  -2880661.40846  23720511.209    23720510.5224   23720526.0204
        -0.000          -0.000
 -15943010.281 9 -12399299.82949  20250516.999    20250516.2794   20250525.5844
        -0.000          -0.000
 -12908998.568 9 -10046564.99647  22667053.675    22667053.6454   22667064.4814
        -0.000          -0.000
  15383929.101 9  11986131.23246  23596701.308    23596701.4734   23596715.9234
        -0.000          -0.000
 99  3  4 19 21  0.0000000  0  6  2 27 15  7 26 13                   0.000000009
   -721969.189 9   -563662.43149  21236641.877    21236641.1494   21236650.9574
        -0.000          -0.000
    273308.962 9    218943.03248  20855660.287    20855659.8774   20855669.6884
        -0.000          -0.000
  -3680339.510 9  -2856602.96246  23726386.837    23726386.0054   23726401.3314
        -0.000          -0.000
 -15955307.237 9 -12408881.85349  20248177.032    20248176.2794   20248185.5584
        -0.000          -0.000
 -12916972.695 9 -10052778.61047  22665536.304    22665536.1764   22665547.0764
        -0.000          -0.000
  15484884.398 9  12064797.33246  23615912.997    23615913.0524   23615927.4934
        -0.000          -0.000
 99  3  4 19 21 30.0000000  0  6  2 27 15  7 26 13                   0.000000013
   -711095.885 9   -555189.75749  21238711.042    21238710.3174   21238720.1934
        -0.000          -0.000
    330480.034 9    263491.85448  20866539.593    20866539.2354   20866549.0644
        -0.000          -0.000
  -3648908.035 9  -2832110.90445  23732368.041    23732367.1644   23732382.5124
        -0.000          -0.000
 -15967153.803 9 -12418112.92949  20245922.705    20245921.9504   20245931.2504
        -0.000          -0.000
 -12924403.851 9 -10058569.14547  22664122.154    22664122.0954   22664132.9884
        -0.000          -0.000
  15585866.664 9  12143484.44146  23635129.921    23635129.7904   23635144.1824
        -0.000          -0.000
 99  3  4 19 22  0.0000000  0  6  2 27 15  7 26 13                   0.000000011
   -700115.539 9   -546633.66149  21240800.536    21240799.7914   21240809.6584
        -0.000          -0.000
    388138.395 9    308420.39248  20877511.697    20877511.3304   20877521.1474
        -0.000          -0.000
  -3616914.331 9  -2807180.76845  23738456.234    23738455.4494   23738470.6334
        -0.000          -0.000
 -15978541.119 9 -12426986.14749  20243755.690    20243754.9504   20243764.3044
        -0.000          -0.000
 -12931300.456 9 -10063943.13047  22662809.813    22662809.7544   22662820.5974
        -0.000          -0.000
  15686882.467 9  12222197.68246  23654352.462    23654352.5224   23654367.2634
        -0.000          -0.000
 99  3  4 19 22 30.0000000  0  6  2 27 15  7 26 13                   0.000000011
   -689027.677 9   -537993.80349  21242910.434    21242909.7204   21242919.6684
        -0.000          -0.000
    446308.044 9    353747.32248  20888581.062    20888580.6564   20888590.5244
        -0.000          -0.000
  -3584351.167 9  -2781806.87445  23744652.789    23744651.9704   23744667.0964
        -0.000          -0.000
 -15989460.828 9 -12435495.00849  20241677.767    20241677.0584   20241686.3624
        -0.000          -0.000
 -12937658.293 9 -10068897.30347  22661599.938    22661599.9114   22661610.7644
        -0.000          -0.000
  15787942.452 9  12300945.34046  23673583.612    23673583.7894   23673598.8724
        -0.000          -0.000
 99  3  4 19 23  0.0000000  0  6  2 27 15  7 26 13                   0.000000010
   -677837.875 9   -529274.50649  21245039.780    21245039.0954   21245049.0274
        -0.000          -0.000
    504973.283 9    399460.45048  20899744.781    20899744.3284   20899754.2114
        -0.000          -0.000
  -3551227.158 9  -2755995.97845  23750956.225    23750955.4054   23750970.3234
        -0.000          -0.000
 -15999912.175 9 -12443638.90249  20239689.012    20239688.2554   20239697.5414
        -0.000          -0.000
 -12943490.326 9 -10073441.75147  22660490.137    22660490.1694   22660501.0374
        -0.000          -0.000
  15889052.237 9  12379731.78946  23692824.145    23692824.4294   23692839.7294
        -0.000          -0.000
 99  3  4 19 23 30.0000000  0  6  2 27 15  7 26 13                   0.000000012
   -666539.485 9   -520470.59649  21247189.861    21247189.1274   21247199.0564
        -0.000          -0.000
    564111.735 9    445542.30248  20910998.447    20910998.0174   20911007.9804
        -0.000          -0.000
  -3517544.131 9  -2729749.49845  23757365.942    23757365.2384   23757379.9484
        -0.000          -0.000
 -16009895.004 9 -12451417.72849  20237789.307    20237788.5714   20237797.8714
        -0.000          -0.000
 -12948791.909 9 -10077572.86547  22659481.372    22659481.3974   22659492.2134
        -0.000          -0.000
  15990211.725 9  12458556.92746  23712074.698    23712074.9614   23712090.1634
        -0.000          -0.000
 99  3  4 19 24  0.0000000  0  6  2 27 15  7 26 13                   0.000000017
   -655102.979 9   -511559.07549  21249366.124    21249365.4404   21249375.4204
        -0.000          -0.000
    623722.282 9    491991.99748  20922341.868    20922341.5344   20922351.6174
        -0.000          -0.000
  -3483298.070 9  -2703064.25445  23763882.717    23763882.0564   23763896.8364
        -0.000          -0.000
 -16019405.579 9 -12458828.56249  20235979.497    20235978.7634   20235988.0414
        -0.000          -0.000
 -12953570.904 9 -10081296.76647  22658571.941    22658572.0374   22658582.7214
        -0.000          -0.000
  16091427.187 9  12537425.71946  23731335.909    23731335.9574   23731351.1274
        -0.000          -0.000
 99  3  4 19 24 30.0000000  0  6  2 27 15  7 26 13                   0.000000022
   -643508.711 9   -502524.61349  21251572.483    21251571.7634   21251581.7514
        -0.000          -0.000
    683786.498 9    538795.21348  20933771.762    20933771.4114   20933781.4614
        -0.000          -0.000
  -3448492.251 9  -2675942.85045  23770506.066    23770505.3824   23770520.3074
        -0.000          -0.000
 -16028446.081 9 -12465873.10649  20234259.167    20234258.4244   20234267.6754
        -0.000          -0.000
 -12957825.410 9 -10084611.97447  22657762.340    22657762.4674   22657773.0304
        -0.000          -0.000
  16192695.197 9  12616335.43046  23750606.777    23750606.9164   23750621.9994
        -0.000          -0.000
 99  3  4 19 25  0.0000000  0  6  2 27 15  7 26 13                   0.000000025
   -631769.895 9   -493377.52249  21253806.331    21253805.6074   21253815.6434
        -0.000          -0.000
    744284.544 9    585936.48848  20945284.297    20945283.8824   20945293.8274
        -0.000          -0.000
  -3413135.198 8  -2648391.90045  23777234.117    23777233.3854   23777248.5294
        -0.000          -0.000
 -16037040.913 9 -12472570.37849  20232623.607    20232622.8674   20232632.1284
        -0.000          -0.000
 -12961564.736 9 -10087525.73747  22657050.794    22657050.8704   22657061.4374
        -0.000          -0.000
  16293995.391 9  12695270.21946  23769883.998    23769884.0914   23769899.2614
        -0.000          -0.000
 99  3  4 19 25 30.0000000  0  6  2 27 15  7 26 13                   0.000000041
   -619881.566 9   -484113.92949  21256068.615    21256067.9104   21256077.9334
        -0.000          -0.000
    805249.329 9    633441.44448  20956885.590    20956885.1604   20956895.0874
        -0.000          -0.000
  -3377212.669 8  -2620400.35945  23784069.820    23784069.0924   23784084.4524
        -0.000          -0.000
 -16045201.545 9 -12478929.31449  20231070.719    20231069.9924   20231079.1924
        -0.000          -0.000
 -12964767.521 9 -10090021.41947  22656441.217    22656441.3724   22656452.0714
        -0.000          -0.000
  16395332.419 9  12774233.69946  23789168.329    23789168.4304   23789183.7944
        -0.000          -0.000
 99  3  4 19 26  0.0000000  0  7  2  4 27 15  7 26 13                0.000000051
   -607879.312 9   -474761.56149  21258352.602    21258351.8894   21258361.9074
        -0.000          -0.000
   -447692.10518   -336746.83045         0.000           0.0005   24123165.9274
        -0.000          -0.000
    866665.282 9    681297.94448  20968572.637    20968572.2794   20968582.2724
        -0.000          -0.000
  -3340756.962 8  -2591993.34345  23791007.198    23791006.3494   23791021.8704
        -0.000          -0.000
 -16052947.419 9 -12484965.05749  20229596.751    20229596.0024   20229605.2204
        -0.000          -0.000
 -12967458.750 9 -10092118.48347  22655929.045    22655929.1864   22655940.0074
        -0.000          -0.000
  16496686.281 9  12853210.29546  23808455.769    23808455.8384   23808471.1934
        -0.000          -0.000
 99  3  4 19 26 30.0000000  0  7  2  4 27 15  7 26 13                0.000000060
   -595785.196 9   -465337.60149  21260654.079    21260653.3764   21260663.3844
        -0.000          -0.000
   -550606.752 8   -416939.20945  24103558.197    24103559.9934   24103579.5374
        -0.000          -0.000
    928519.436 9    729495.90148  20980343.198    20980342.8414   20980352.8674
        -0.000          -0.000
  -3303773.595 9  -2563175.19145  23798044.904    23798044.0864   23798059.6834
        -0.000          -0.000
 -16060277.290 9 -12490676.63949  20228201.883    20228201.1384   20228210.4364
        -0.000          -0.000
 -12969622.578 9 -10093804.58747  22655517.352    22655517.4614   22655528.3014
        -0.000          -0.000
  16598054.243 9  12932197.86246  23827745.846    23827745.8144   23827761.0914
        -0.000          -0.000
 99  3  4 19 27  0.0000000  0  7  2  4 27 15  7 26 13                0.000000064
   -583638.588 9   -455872.73749  21262965.555    21262964.8364   21262974.8484
        -0.000          -0.000
   -653602.630 8   -497194.89445  24083959.174    24083959.0524   24083980.5404
        -0.000          -0.000
    990790.293 9    778018.56348  20992193.078    20992192.6074   20992202.6714
        -0.000          -0.000
  -3266291.339 9  -2533968.31145  23805177.623    23805176.8394   23805192.2424
        -0.000          -0.000
 -16067220.113 9 -12496086.61649  20226880.699    20226879.9624   20226889.2584
        -0.000          -0.000
 -12971279.756 9 -10095095.90947  22655202.047    22655202.1204   22655212.9434
        -0.000          -0.000
  16699412.746 9  13011178.07045  23847033.683    23847033.6934   23847049.3744
        -0.000          -0.000
 99  3  4 19 27 30.0000000  0  7  2  4 27 15  7 26 13                0.000000065
   -571400.512 9   -446336.60149  21265294.450    21265293.7234   21265303.7224
        -0.000          -0.000
   -756644.596 8   -577486.53345  24064350.430    24064350.5274   24064372.1454
        -0.000          -0.000
   1053512.063 9    826892.60048  21004128.677    21004128.1954   21004138.2604
        -0.000          -0.000
  -3228280.810 9  -2504349.75846  23812410.824    23812410.0524   23812425.4494
        -0.000          -0.000
 -16073714.407 9 -12501147.09349  20225644.870    20225644.1484   20225653.3864
        -0.000          -0.000
 -12972406.171 9 -10095973.65447  22654987.756    22654987.8284   22654998.6304
        -0.000          -0.000
  16800796.413 9  13090177.85045  23866326.670    23866326.7554   23866342.3864
        -0.000          -0.000
 99  3  4 19 28  0.0000000  0  7  2  4 27 15  7 26 13                0.000000052
   -559064.003 9   -436723.76949  21267642.043    21267641.3084   21267651.2684
        -0.000          -0.000
   -859747.756 9   -657825.92245  24044730.416    24044730.5104   24044752.0144
        -0.000          -0.000
   1116677.982 9    876112.71948  21016148.763    21016148.3434   21016158.4624
        -0.000          -0.000
  -3189742.583 9  -2474320.03046  23819744.629    23819743.7944   23819759.0204
        -0.000          -0.000
 -16079738.172 9 -12505840.93249  20224498.658    20224497.8714   20224507.0914
        -0.000          -0.000
 -12973012.468 9 -10096446.11547  22654872.371    22654872.4084   22654883.3264
        -0.000          -0.000
  16902198.786 9  13169192.23945  23885623.308    23885623.3774   23885638.9054
        -0.000          -0.000
 99  3  4 19 28 30.0000000  0  7  2  4 27 15  7 26 13                0.000000048
   -546580.448 9   -426996.34049  21270017.655    21270016.9234   21270026.8794
        -0.000          -0.000
   -962895.831 9   -738200.33645  24025102.003    24025101.8984   24025123.1094
        -0.000          -0.000
   1180323.630 9    925706.62948  21028260.093    21028259.7194   21028269.9864
        -0.000          -0.000
  -3150632.968 9  -2443845.07046  23827187.057    23827186.2724   23827201.3774
        -0.000          -0.000
 -16085276.778 9 -12510156.71449  20223444.661    20223443.8914   20223453.0954
        -0.000          -0.000
 -12973068.706 9 -10096489.94147  22654861.600    22654861.6364   22654872.6144
        -0.000          -0.000
  17003648.215 9  13248243.28546  23904928.609    23904928.9414   23904944.5914
        -0.000          -0.000
 99  3  4 19 29  0.0000000  0  7  2  4 27 15  7 26 13                0.000000034
   -533961.617 9   -417163.50849  21272418.963    21272418.2514   21272428.2044
        -0.000          -0.000
  -1066104.572 9   -818622.05245  24005462.072    24005462.1444   24005482.6214
        -0.000          -0.000
   1244436.169 9    975664.34348  21040460.324    21040459.8834   21040470.3144
        -0.000          -0.000
  -3110973.172 9  -2412941.40346  23834734.285    23834733.4074   23834748.4094
        -0.000          -0.000
 -16090357.308 9 -12514115.56149  20222477.873    20222477.1204   20222486.3144
        -0.000          -0.000
 -12972618.458 9 -10096139.12847  22654947.275    22654947.3364   22654958.3664
        -0.000          -0.000
  17105114.358 9  13327307.32346  23924237.683    23924237.8944   23924253.4114
        -0.000          -0.000
 99  3  4 19 29 30.0000000  0  7  2  4 27 15  7 26 13                0.000000018
   -521184.037 9   -407206.97949  21274850.413    21274849.7584   21274859.6514
        -0.000          -0.000
  -1169342.174 9   -899066.28245  23985816.537    23985816.4654   23985836.6844
        -0.000          -0.000
   1309035.179 9   1026001.14248  21052753.199    21052752.7424   21052763.1104
        -0.000          -0.000
  -3070745.214 9  -2381594.99746  23842389.448    23842388.5284   23842403.5284
        -0.000          -0.000
 -16094961.846 9 -12517703.51449  20221601.662    20221600.9074   20221610.0914
        -0.000          -0.000
 -12971653.397 9 -10095387.15947  22655130.939    22655131.0384   22655141.9494
        -0.000          -0.000
  17206602.328 9  13406388.34946  23943550.465    23943550.7044   23943566.3564
        -0.000          -0.000
 99  3  4 19 30  0.0000000  0  7  2  4 27 15  7 26 13                0.000000006
   -508250.269 9   -397128.74449  21277311.775    21277311.0644   21277320.9274
        -0.000          -0.000
  -1272601.400 9   -979527.37545  23966166.659    23966166.5194   23966186.7294
        -0.000          -0.000
   1374110.044 9   1076708.75848  21065136.635    21065136.2094   21065146.3504
        -0.000          -0.000
  -3029952.238 9  -2349808.33746  23850152.061    23850151.3334   23850166.2044
        -0.000          -0.000
 -16099115.851 9 -12520940.39549  20220811.190    20220810.4344   20220819.6174
        -0.000          -0.000
 -12970170.012 9 -10094231.28847  22655413.373    22655413.4534   22655424.2684
        -0.000          -0.000
  17308104.323 9  13485480.28146  23962866.398    23962866.5614   23962882.1114
        -0.000          -0.000
 99  3  4 19 30 30.0000000  0  7  2  4 27 15  7 26 13                0.000000004
   -495167.122 9   -386934.09449  21279801.439    21279800.7304   21279810.5564
        -0.000          -0.000
  -1375867.644 9  -1059993.93645  23946515.301    23946515.2044   23946535.2484
        -0.000          -0.000
   1439648.748 9   1127777.78348  21077608.315    21077607.8954   21077618.0344
        -0.000          -0.000
  -2988597.379 9  -2317583.83846  23858021.502    23858020.8964   23858035.8764
        -0.000          -0.000
 -16102825.607 9 -12523831.10749  20220105.197    20220104.4334   20220113.6404
        -0.000          -0.000
 -12968165.781 9 -10092669.56347  22655794.854    22655794.9394   22655805.5734
        -0.000          -0.000
  17409614.600 9  13564578.69746  23982183.729    23982183.7894   23982199.4334
        -0.000          -0.000
 99  3  4 19 31  0.0000000  0  7  2  4 27 15  7 26 13                0.000000004
   -481950.390 9   -376635.35849  21282316.560    21282315.8394   21282325.6704
        -0.000          -0.000
  -1479134.914 9  -1140461.28945  23926863.813    23926863.6884   23926883.5004
        -0.000          -0.000
   1505638.129 9   1179197.97448  21090165.806    21090165.3824   21090175.5504
        -0.000          -0.000
  -2946696.745 9  -2284934.04846  23865994.919    23865994.3854   23866009.3714
        -0.000          -0.000
 -16106089.043 9 -12526374.03349  20219484.203    20219483.4534   20219492.6584
        -0.000          -0.000
 -12965647.259 9 -10090707.09947  22656274.127    22656274.1584   22656284.8454
        -0.000          -0.000
  17511120.174 9  13643673.38746  24001500.061    24001500.1064   24001515.6314
        -0.000          -0.000
 99  3  4 19 31 30.0000000  0  7  2  4 27 15  7 26 13                0.000000011
   -468600.678 9   -366233.00648  21284856.886    21284856.1904   21284865.9704
        -0.000          -0.000
  -1582408.775 9  -1220933.76545  23907210.670    23907210.6634   23907230.3474
        -0.000          -0.000
   1572063.249 9   1230957.69548  21102806.205    21102805.7914   21102816.0104
        -0.000          -0.000
  -2904254.464 9  -2251862.20646  23874071.952    23874071.0844   23874086.0194
        -0.000          -0.000
 -16108910.235 9 -12528572.36249  20218947.364    20218946.5954   20218955.8824
        -0.000          -0.000
 -12962601.927 9 -10088334.14847  22656853.515    22656853.6074   22656864.3394
        -0.000          -0.000
  17612622.492 9  13722765.57246  24020815.342    24020815.4964   24020831.4894
        -0.000          -0.000
 99  3  4 19 32  0.0000000  0  7  2  4 27 15  7 26 13                0.000000021
   -455130.168 9   -355736.53048  21287420.242    21287419.5564   21287429.3444
        -0.000          -0.000
  -1685702.630 9  -1301421.82745  23887554.116    23887554.0024   23887573.6994
        -0.000          -0.000
   1638899.803 9   1283038.03848  21115524.800    21115524.4074   21115534.6894
        -0.000          -0.000
  -2861286.787 9  -2218380.96746  23882248.555    23882247.5544   23882262.5744
        -0.000          -0.000
 -16111306.019 9 -12530439.20849  20218491.449    20218490.6904   20218499.9564
        -0.000          -0.000
 -12959033.910 9 -10085553.89947  22657532.491    22657532.6364   22657543.3564
        -0.000          -0.000
  17714110.571 9  13801846.61345  24040127.984    24040128.2954   24040144.6784
        -0.000          -0.000
 99  3  4 19 32 30.0000000  0  7  2  4 27 15  7 26 13                0.000000029
   -441543.941 9   -345149.88249  21290005.617    21290004.9164   21290014.7864
        -0.000          -0.000
  -1789015.275 9  -1381924.54045  23867893.865    23867893.6624   23867913.4944
        -0.000          -0.000
   1706148.342 9   1335439.41548  21128321.760    21128321.3474   21128331.6784
        -0.000          -0.000
  -2817800.072 9  -2184495.27146  23890523.720    23890522.7364   23890537.9634
        -0.000          -0.000
 -16113274.969 9 -12531973.45649  20218116.835    20218116.0694   20218125.2104
        -0.000          -0.000
 -12954950.409 9 -10082371.98047  22658309.698    22658309.7884   22658320.4964
        -0.000          -0.000
  17815581.429 8  13880914.21945  24059437.834    24059437.9174   24059454.4344
        -0.000          -0.000
 99  3  4 19 33  0.0000000  0  8  2  4 27 15  9  7 26 13             0.000000034
   -427833.731 9   -334466.62249  21292614.639    21292613.9604   21292623.8024
        -0.000          -0.000
  -1892341.102 9  -1462437.51845  23848230.909    23848230.9354   23848250.8024
        -0.000          -0.000
   1773808.202 9   1388161.29648  21141197.105    21141196.6844   21141207.0414
        -0.000          -0.000
  -2773799.481 9  -2150209.15246  23898896.376    23898895.5704   23898910.9334
        -0.000          -0.000
  -4973486.812 8  -3175228.61445  24529679.589    24529678.8274   24529693.9544
        -0.000          -0.000
 -16114821.620 9 -12533178.63049  20217822.535    20217821.7434   20217830.8624
        -0.000          -0.000
 -12950361.649 9 -10078796.34247  22659182.962    22659183.0344   22659193.7944
        -0.000          -0.000
  17917036.798 9  13959969.75745  24078744.329    24078744.6904   24078761.2874
        -0.000          -0.000
 99  3  4 19 33 30.0000000  0  8  2  4 27 15  9  7 26 13             0.000000032
   -414003.210 9   -323689.62049  21295246.553    21295245.8384   21295255.7034
        -0.000          -0.000
  -1995681.103 9  -1542961.56245  23828565.389    23828565.4194   23828585.2314
        -0.000          -0.000
   1841881.563 9   1441205.38048  21154151.088    21154150.6964   21154161.1314
        -0.000          -0.000
  -2729283.904 9  -2115521.76346  23907367.379    23907366.7234   23907382.0154
        -0.000          -0.000
  -5072964.451 8  -3252743.56545  24510749.642    24510749.0314   24510763.8944
        -0.000          -0.000
 -16115931.526 9 -12534043.49649  20217611.258    20217610.4804   20217619.6954
        -0.000          -0.000
 -12945275.434 9 -10074833.09847  22660150.864    22660150.9244   22660161.6984
        -0.000          -0.000
  18018474.196 9  14039011.23345  24098048.226    24098048.5874   24098064.5964
        -0.000          -0.000
 99  3  4 19 34  0.0000000  0  8  2  4 27 15  9  7 26 13             0.000000036
   -400029.003 9   -312800.65349  21297905.713    21297905.0274   21297914.8854
        -0.000          -0.000
  -2098997.840 9  -1623467.46945  23808904.093    23808904.3004   23808924.0044
        -0.000          -0.000
   1910423.343 9   1494614.45648  21167194.258    21167193.8274   21167204.3514
        -0.000          -0.000
  -2684221.753 9  -2080408.44346  23915942.622    23915941.7384   23915957.2674
        -0.000          -0.000
  -5172386.035 9  -3330214.81945  24491830.357    24491829.6194   24491844.5904
        -0.000          -0.000
 -16116567.414 9 -12534538.99249  20217490.221    20217489.4634   20217498.7234
        -0.000          -0.000
 -12939676.525 9 -10070470.34147  22661216.372    22661216.3364   22661227.1544
        -0.000          -0.000
  18119913.238 8  14118054.04045  24117351.879    24117352.0044   24117368.2324
        -0.000          -0.000
 99  3  4 19 34 30.0000000  0  8  2  4 27 15  9  7 26 13             0.000000039
   -385916.844 9   -301804.18749  21300591.209    21300590.4884   21300600.3674
        -0.000          -0.000
  -2202304.020 9  -1703965.16845  23789245.050    23789245.2794   23789264.9254
        -0.000          -0.000
   1979433.777 9   1548388.73148  21180326.555    21180326.1254   21180336.6434
        -0.000          -0.000
  -2638615.577 9  -2044871.23245  23924620.956    23924620.2304   23924635.9174
        -0.000          -0.000
  -5271765.878 9  -3407653.57345  24472918.999    24472918.3614   24472933.3424
        -0.000          -0.000
 -16116744.502 9 -12534676.97949  20217456.500    20217455.7374   20217465.0264
        -0.000          -0.000
 -12933578.399 9 -10065718.57247  22662376.722    22662376.6934   22662387.5634
        -0.000          -0.000
  18221346.600 9  14197092.38545  24136654.315    24136654.5204   24136670.6474
        -0.000          -0.000
 99  3  4 19 35  0.0000000  0  8  2  4 27 15  9  7 26 13             0.000000037
   -371663.297 9   -290697.55749  21303303.620    21303302.8604   21303312.7764
        -0.000          -0.000
  -2305603.907 9  -1784457.97845  23769587.393    23769587.5684   23769606.8654
        -0.000          -0.000
   2048906.691 9   1602523.39148  21193546.918    21193546.4834   21193556.9114
        -0.000          -0.000
  -2592464.490 9  -2008909.42945  23933403.392    23933402.7004   23933417.9804
        -0.000          -0.000
  -5371126.327 9  -3485077.18045  24454011.210    24454010.6514   24454025.5144
        -0.000          -0.000
 -16116470.830 9 -12534463.73249  20217508.555    20217507.8014   20217517.0524
        -0.000          -0.000
 -12926979.863 9 -10060576.87747  22663632.440    22663632.4044   22663643.1794
        -0.000          -0.000
  18322763.455 9  14276117.87545  24155953.662    24155953.8814   24155970.2734
        -0.000          -0.000
 99  3  4 19 35 30.0000000  0  8  2  4 27 15  9  7 26 13             0.000000033
   -357264.974 9   -279478.10249  21306043.574    21306042.8134   21306052.7744
        -0.000          -0.000
  -2408892.111 9  -1864941.70146  23749932.101    23749932.0254   23749951.1414
        -0.000          -0.000
   2118863.988 9   1657035.49248  21206859.503    21206859.0874   21206869.4664
        -0.000          -0.000
  -2545757.103 9  -1972514.13045  23942291.676    23942290.8974   23942306.1964
        -0.000          -0.000
  -5470454.590 9  -3562475.72245  24435109.447    24435109.0064   24435123.8984
        -0.000          -0.000
 -16115737.148 9 -12533892.03349  20217648.245    20217647.4744   20217656.7094
        -0.000          -0.000
 -12919862.184 9 -10055030.65247  22664987.045    22664987.0254   22664997.6574
        -0.000          -0.000
  18424165.709 9  14355131.98745  24175250.434    24175250.4614   24175267.4324
        -0.000          -0.000
 99  3  4 19 36  0.0000000  0  8  2  4 27 15  9  7 26 13             0.000000042
   -342704.352 9   -268132.19849  21308814.416    21308813.6154   21308823.6144
        -0.000          -0.000
  -2512158.743 9  -1945408.63046  23730280.835    23730280.7094   23730299.4834
        -0.000          -0.000
   2189302.085 9   1711922.21948  21220263.555    21220263.0984   21220273.5604
        -0.000          -0.000
  -2498490.567 9  -1935683.13045  23951286.316    23951285.5504   23951300.9434
        -0.000          -0.000
  -5569725.401 8  -3639829.49045  24416218.628    24416218.3944   24416233.2124
        -0.000          -0.000
 -16114572.065 9 -12532984.18249  20217869.959    20217869.1904   20217878.4774
        -0.000          -0.000
 -12912204.117 9 -10049063.35647  22666444.403    22666444.3674   22666455.0064
        -0.000          -0.000
  18525552.014 9  14434133.61545  24194544.391    24194544.4044   24194561.2014
        -0.000          -0.000
 99  3  4 19 36 30.0000000  0  8  2  4 27 15  9  7 26 13             0.000000043
   -328014.107 9   -256685.27549  21311609.904    21311609.1004   21311619.0564
        -0.000          -0.000
  -2615438.728 9  -2025885.98746  23710627.303    23710626.9254   23710645.3584
        -0.000          -0.000
   2260153.342 9   1767130.88448  21233746.067    21233745.6744   21233756.1404
        -0.000          -0.000
  -2450706.278 9  -1898448.68345  23960379.518    23960378.6844   23960394.1934
        -0.000          -0.000
  -5668962.476 9  -3717156.97145  24397334.309    24397334.0174   24397348.8804
        -0.000          -0.000
 -16113026.691 9 -12531779.99949  20218163.978    20218163.2274   20218172.5584
        -0.000          -0.000
 -12904029.795 9 -10042693.77347  22667999.854    22667999.8804   22668010.4844
        -0.000          -0.000
  18626883.205 9  14513092.28045  24213827.688    24213827.5954   24213844.0964
        -0.000          -0.000
 99  3  4 19 37  0.0000000  0  8  2  4 27 15  9  7 26 13             0.000000038
   -313204.854 9   -245145.62049  21314427.990    21314427.2194   21314437.1514
        -0.000          -0.000
  -2718716.913 9  -2106361.93846  23690973.833    23690973.4314   23690991.4764
        -0.000          -0.000
   2331416.910 9   1822660.85848  21247307.240    21247306.8254   21247317.2034
        -0.000          -0.000
  -2402409.609 9  -1860814.97245  23969570.283    23969569.3324   23969584.8504
        -0.000          -0.000
  -5768143.037 9  -3794440.41545  24378460.781    24378460.5334   24378475.3664
        -0.000          -0.000
 -16111084.174 9 -12530266.34949  20218533.637    20218532.9014   20218542.1744
        -0.000          -0.000
 -12895337.879 9 -10035920.88647  22669653.877    22669653.9054   22669664.4944
        -0.000          -0.000
  18728147.273 8  14591998.62945  24233098.053    24233097.8944   24233114.8554
        -0.000          -0.000
 99  3  4 19 37 30.0000000  0  8  2  4 27 15  9  7 26 13             0.000000030
   -298277.479 9   -233513.93049  21317268.616    21317267.8334   21317277.7984
        -0.000          -0.000
  -2821999.118 9  -2186841.05446  23671319.345    23671319.1484   23671336.8634
        -0.000          -0.000
   2403100.493 9   1878518.11648  21260948.215    21260947.8124   21260958.2204
        -0.000          -0.000
  -2353600.982 8  -1822782.37045  23978858.192    23978857.3524   23978872.9304
        -0.000          -0.000
  -5867235.253 8  -3871655.00445  24359604.245    24359603.9484   24359618.5824
        -0.000          -0.000
 -16108734.386 9 -12528435.35249  20218980.794    20218980.0314   20218989.3414
        -0.000          -0.000
 -12886132.680 9 -10028748.03247  22671405.553    22671405.5634   22671416.2394
        -0.000          -0.000
  18829343.255 8  14670851.89045  24252355.308    24252355.2134   24252372.3254
        -0.000          -0.000
 99  3  4 19 38  0.0000000  0  8  2  4 27 15  9  7 26 13             0.000000021
   -283231.697 9   -221789.97049  21320131.696    21320130.9704   21320140.9094
        -0.000          -0.000
  -2925286.413 9  -2267324.15746  23651663.879    23651663.7654   23651681.3374
        -0.000          -0.000
   2475185.362 9   1934688.03548  21274665.525    21274665.0964   21274675.6414
        -0.000          -0.000
  -2304284.243 9  -1784353.80345  23988242.829    23988242.1364   23988257.8154
        -0.000          -0.000
  -5966235.223 8  -3948797.68345  24340764.899    24340764.4904   24340779.1944
        -0.000          -0.000
 -16105981.075 9 -12526289.91649  20219504.712    20219503.9694   20219513.3344
        -0.000          -0.000
 -12876418.016 9 -10021178.20547  22673254.094    22673254.1534   22673264.9254
        -0.000          -0.000
  18930474.259 8  14749654.51445  24271600.056    24271600.1414   24271617.5824
        -0.000          -0.000
 99  3  4 19 38 30.0000000  0  8  2  4 27 15  9  7 26 13             0.000000007
   -268074.378 9   -209979.09149  21323016.111    21323015.3544   21323025.2854
        -0.000          -0.000
  -3028569.570 9  -2347804.05846  23632009.390    23632009.3314   23632026.6314
        -0.000          -0.000
   2547672.784 9   1991171.62348  21288459.515    21288459.0264   21288469.6644
        -0.000          -0.000
  -2254462.190 9  -1745531.51345  23997723.724    23997723.1724   23997738.7694
        -0.000          -0.000
  -6065146.800 9  -4025871.51045  24321942.283    24321941.9604   24321956.6474
        -0.000          -0.000
 -16102795.604 9 -12523807.73649  20220110.912    20220110.1594   20220119.5144
        -0.000          -0.000
 -12866211.592 9 -10013225.19047  22675196.320    22675196.4384   22675207.1804
        -0.000          -0.000
  19031550.095 8  14828414.12445  24290834.643    24290834.7944   24290852.7704
        -0.000          -0.000
 99  3  4 19 39  0.0000000  0  8  2  4 27 15  9  7 26 13            -0.000000001
   -252784.055 9   -198064.58248  21325925.671    21325924.9494   21325934.9404
        -0.000          -0.000
  -3131820.882 9  -2428259.15446  23612360.898    23612360.7844   23612378.0974
        -0.000          -0.000
   2620609.126 9   2048005.04948  21302338.959    21302338.4984   21302349.1184
        -0.000          -0.000
  -2204114.502 9  -1706299.62445  24007304.623    24007303.8884   24007319.6624
        -0.000          -0.000
  -6163954.730 9  -4102864.59245  24303139.676    24303139.5274   24303153.8784
        -0.000          -0.000
 -16099138.222 9 -12520957.82749  20220806.884    20220806.1074   20220815.5264
        -0.000          -0.000
 -12855504.331 9 -10004881.90347  22677233.941    22677234.0084   22677244.7104
        -0.000          -0.000
  19132601.550 8  14907154.71145  24310064.772    24310064.8714   24310083.0814
        -0.000          -0.000
 99  3  4 19 39 30.0000000  0  8  2  4 27 15  9  7 26 13            -0.000000002
   -237341.363 9   -186031.34048  21328864.316    21328863.5954   21328873.5114
        -0.000          -0.000
  -3235035.999 9  -2508686.07646  23592719.204    23592719.0924   23592736.5544
        -0.000          -0.000
   2693994.303 9   2105188.22848  21316303.863    21316303.3704   21316313.8754
        -0.000          -0.000
  -2153238.046 8  -1666655.68945  24016986.176    24016985.5574   24017001.2624
        -0.000          -0.000
  -6262677.327 9  -4179791.13445  24284353.277    24284353.0824   24284367.5084
        -0.000          -0.000
 -16095008.070 9 -12517739.53349  20221592.798    20221592.0334   20221601.4364
        -0.000          -0.000
 -12844283.919 9  -9996138.76247  22679369.133    22679369.0704   22679379.8234
        -0.000          -0.000
  19233656.457 9  14985897.99945  24329295.119    24329295.3184   24329313.9614
        -0.000          -0.000
 99  3  4 19 40  0.0000000  0  8  2  4 27 15  9  7 26 13             0.000000005
   -221756.848 9   -173887.58448  21331830.002    21331829.2824   21331839.1834
        -0.000          -0.000
  -3338195.321 9  -2589069.54346  23573088.158    23573088.0514   23573105.5774
        -0.000          -0.000
   2767813.442 9   2162709.54148  21330351.226    21330350.7354   21330361.2854
        -0.000          -0.000
  -2101838.902 8  -1626604.46745  24026767.130    24026766.3764   24026782.1754
        -0.000          -0.000
  -6361336.699 9  -4256668.41345  24265578.904    24265578.6604   24265593.1934
        -0.000          -0.000
 -16090418.997 9 -12514163.62649  20222466.125    20222465.3584   20222474.6654
        -0.000          -0.000
 -12832552.189 9  -9986997.17147  22681601.607    22681601.5834   22681612.3874
        -0.000          -0.000
  19334717.433 9  15064645.98345  24348527.266    24348527.4534   24348546.2024
        -0.000          -0.000
 99  3  4 19 40 30.0000000  0  8  2  4 27 15  9  7 26 13             0.000000010
   -206047.954 9   -161646.91648  21334819.360    21334818.6224   21334828.4814
        -0.000          -0.000
  -3441307.135 9  -2669415.99846  23553466.407    23553466.2454   23553483.5984
        -0.000          -0.000
   2842069.532 9   2220571.31448  21344481.649    21344481.2434   21344491.8754
        -0.000          -0.000
  -2049930.857 8  -1586156.69445  24036645.014    24036643.8584   24036659.9274
        -0.000          -0.000
  -6459949.623 9  -4333509.50545  24246813.462    24246813.2204   24246827.5564
        -0.000          -0.000
 -16085390.271 9 -12510245.14049  20223423.138    20223422.3364   20223431.6304
        -0.000          -0.000
 -12820330.593 9  -9977473.89547  22683927.364    22683927.3034   22683938.0934
        -0.000          -0.000
  19435763.848 9  15143382.63245  24367756.579    24367756.6824   24367775.5094
        -0.000          -0.000
 99  3  4 19 41  0.0000000  0  8  2  4 27 15  9  7 26 13             0.000000022
   -190192.764 9   -149292.24348  21337836.587    21337835.8244   21337845.6144
        -0.000          -0.000
  -3544363.297 9  -2749719.08946  23533855.225    23533855.1024   23533872.1274
        -0.000          -0.000
   2916783.730 9   2278790.06748  21358699.420    21358698.9804   21358709.6774
        -0.000          -0.000
  -1997496.441 8  -1545298.79045  24046622.823    24046621.9914   24046638.1914
        -0.000          -0.000
  -6558503.414 9  -4410304.50945  24228059.294    24228058.7944   24228073.1324
        -0.000          -0.000
 -16079927.409 9 -12505988.36349  20224462.657    20224461.8764   20224471.1704
        -0.000          -0.000
 -12807592.088 9  -9967547.81347  22686351.426    22686351.4064   22686362.2124
        -0.000          -0.000
  19536795.773 9  15222107.96645  24386982.903    24386983.1724   24387001.9554
        -0.000          -0.000
 99  3  4 19 41 30.0000000  0  8  2  4 27 15  9  7 26 13             0.000000033
   -174206.329 9   -136835.30248  21340878.746    21340877.9584   21340887.7774
        -0.000          -0.000
  -3647383.538 9  -2829994.20446  23514251.015    23514250.7044   23514267.6764
        -0.000          -0.000
   2991917.641 9   2337335.87148  21372997.052    21372996.5524   21373007.2964
        -0.000          -0.000
  -1944548.552 8  -1504040.81945  24056698.101    24056697.2654   24056713.9874
        -0.000          -0.000
  -6657000.026 9  -4487054.95745  24209315.830    24209315.3604   24209329.8864
        -0.000          -0.000
 -16074067.986 9 -12501422.56949  20225577.652    20225576.8644   20225586.1444
        -0.000          -0.000
 -12794349.640 9  -9957229.07147  22688871.372    22688871.3614   22688882.2664
        -0.000          -0.000
  19637774.088 9  15300791.52245  24406198.933    24406199.1594   24406218.1784
        -0.000          -0.000
 99  3  4 19 42  0.0000000  0  8  2  4 27 15  9  7 26 13             0.000000048
   -158101.205 9   -124285.87648  21343943.528    21343942.7364   21343952.5424
        -0.000          -0.000
  -3750366.725 9  -2910240.47046  23494653.516    23494653.2414   23494670.2354
        -0.000          -0.000
   3067472.958 9   2396210.04248  21387374.714    21387374.2594   21387385.0014
        -0.000          -0.000
  -1891087.093 8  -1462382.62045  24066871.721    24066870.7524   24066887.3964
        -0.000          -0.000
  -6755418.150 9  -4563744.23645  24190587.136    24190586.7464   24190601.4494
        -0.000          -0.000
 -16067830.716 9 -12496562.35549  20226764.603    20226763.8034   20226773.0294
        -0.000          -0.000
 -12780617.580 9  -9946528.81247  22691484.682    22691484.6124   22691495.4464
        -0.000          -0.000
  19738668.262 9  15379409.44845  24425399.224    24425399.2464   24425418.4114
        -0.000          -0.000
 99  3  4 19 42 30.0000000  0  8  2  4 27 15  9  7 26 13             0.000000058
   -141875.651 9   -111642.60648  21347031.102    21347030.3094   21347040.1804
        -0.000          -0.000
  -3853325.047 9  -2990467.35746  23475060.688    23475060.5354   23475077.4364
        -0.000          -0.000
   3143450.416 9   2455413.17748  21401832.828    21401832.3794   21401843.0184
        -0.000          -0.000
  -1837119.435 8  -1420329.95245  24077141.435    24077140.6434   24077156.7364
        -0.000          -0.000
  -6853756.738 9  -4640371.54045  24171873.446    24171873.3314   24171888.2474
        -0.000          -0.000
 -16061213.360 9 -12491405.96749  20228023.850    20228023.0414   20228032.2884
        -0.000          -0.000
 -12766396.327 9  -9935447.36447  22694190.984    22694190.8694   22694201.7454
        -0.000          -0.000
  19839467.015 9  15457953.03445  24444581.526    24444581.5174   24444600.4424
        -0.000          -0.000
 99  3  4 19 43  0.0000000  0  8  2  4 27 15  9  7 26 13             0.000000061
   -125523.163 9    -98900.43248  21350142.872    21350142.1344   21350151.9554
        -0.000          -0.000
  -3956251.473 9  -3070669.40046  23455474.007    23455473.9944   23455490.6354
        -0.000          -0.000
   3219827.826 9   2514927.93848  21416367.198    21416366.6774   21416377.2544
        -0.000          -0.000
  -1782647.915 8  -1377884.67545  24087506.914    24087506.3364   24087522.4134
        -0.000          -0.000
  -6952007.511 8  -4716930.41545  24153176.620    24153176.7244   24153191.7344
        -0.000          -0.000
 -16054203.102 9 -12485943.42649  20229357.789    20229356.9984   20229366.3114
        -0.000          -0.000
 -12751674.824 9  -9923976.11747  22696992.509    22696992.3894   22697003.2674
        -0.000          -0.000
  19940157.483 9  15536412.20545  24463742.670    24463742.6114   24463762.1414
        -0.000          -0.000
 99  3  4 19 43 30.0000000  0  8  2  4 27 15  9  7 26 13             0.000000063
   -109047.649 9    -86062.39048  21353278.097    21353277.3244   21353287.1264
        -0.000          -0.000
  -4059134.447 9  -3150837.59646  23435895.773    23435895.7784   23435912.2244
        -0.000          -0.000
   3296602.450 9   2574752.20848  21430977.056    21430976.5544   21430987.1734
        -0.000          -0.000
  -1727674.188 8  -1335048.04045  24097968.352    24097967.3064   24097983.7774
        -0.000          -0.000
  -7050158.883 8  -4793411.83845  24134498.961    24134498.9544   24134514.1524
        -0.000          -0.000
 -16046782.458 9 -12480161.10349  20230769.869    20230769.1204   20230778.4964
        -0.000          -0.000
 -12736455.009 9  -9912116.57547  22699888.862    22699888.7534   22699899.5494
        -0.000          -0.000
  20040753.560 8  15614797.82145  24482886.272    24482886.1704   24482906.1094
        -0.000          -0.000
 99  3  4 19 44  0.0000000  0  8  2  4 27 15  9  7 26 13             0.000000058
    -92446.864 9    -73126.73448  21356437.103    21356436.3574   21356446.1924
        -0.000          -0.000
  -4161965.487 9  -3230965.30546  23416327.543    23416327.4644   23416343.7084
        -0.000          -0.000
   3373783.447 9   2634893.12448  21445664.191    21445663.6864   21445674.3754
        -0.000          -0.000
  -1672206.261 8  -1291826.31945  24108523.807    24108522.4774   24108538.8064
        -0.000          -0.000
  -7148227.916 8  -4869829.09345  24115836.998    24115836.9044   24115852.2444
        -0.000          -0.000
 -16038936.194 9 -12474047.12949  20232262.975    20232262.1964   20232271.5544
        -0.000          -0.000
 -12720728.359 9  -9899862.09147  22702881.720    22702881.5724   22702892.3254
        -0.000          -0.000
  20141271.713 8  15693122.68545  24502014.746    24502014.6474   24502034.8484
        -0.000          -0.000
 99  3  4 19 44 30.0000000  0  8  2  4 27 15  9  7 26 13             0.000000056
    -75674.735 9    -60057.56848  21359628.752    21359627.9674   21359637.8684
        -0.000          -0.000
  -4264709.822 9  -3311025.47246  23396775.933    23396775.7604   23396791.7774
        -0.000          -0.000
   3451399.339 9   2695372.93948  21460434.143    21460433.6514   21460444.3044
        -0.000          -0.000
  -1616217.042 8  -1248198.46145  24119178.204    24119176.9014   24119193.4414
        -0.000          -0.000
  -7246197.782 8  -4946169.09445  24097194.034    24097193.8304   24097209.0594
        -0.000          -0.000
 -16030615.312 9 -12467563.33249  20233846.383    20233845.6104   20233854.9514
        -0.000          -0.000
 -12704469.293 9  -9887192.74047  22705975.741    22705975.6604   22705986.4014
        -0.000          -0.000
  20241734.359 8  15771404.25945  24521132.917    24521132.8724   24521153.3614
        -0.000          -0.000
 99  3  4 19 45  0.0000000  0  8  2  4 27 15  9  7 26 13             0.000000046
    -58744.923 9    -46865.53948  21362850.360    21362849.5674   21362859.5314
        -0.000          -0.000
  -4367381.203 9  -3391028.79746  23377237.924    23377237.8354   23377253.6494
        -0.000          -0.000
   3529426.260 9   2756173.05948  21475282.222    21475281.7814   21475292.3954
        -0.000          -0.000
  -1559727.360 8  -1204180.63345  24129927.940    24129926.6994   24129943.2044
        -0.000          -0.000
  -7344085.190 9  -5022444.82245  24078566.578    24078566.4854   24078581.5924
        -0.000          -0.000
 -16021847.365 9 -12460731.18149  20235514.865    20235514.1154   20235523.3964
        -0.000          -0.000
 -12687705.166 9  -9874129.83947  22709165.877    22709165.7924   22709176.5594
        -0.000          -0.000
  20342122.198 8  15849627.52445  24540236.708    24540236.5364   24540257.5794
        -0.000          -0.000
 99  3  4 19 45 30.0000000  0  8  2  4 27 15  9  7 26 13             0.000000048
    -41636.117 9    -33534.02748  21366106.103    21366105.2934   21366115.2504
        -0.000          -0.000
  -4469954.327 9  -3470955.54946  23357718.655    23357718.5684   23357734.2904
        -0.000          -0.000
   3607894.864 9   2817317.33148  21490214.430    21490213.9254   21490224.5994
        -0.000          -0.000
  -1502716.948 8  -1159756.95645  24140777.130    24140775.6184   24140791.6754
        -0.000          -0.000
  -7441862.348 9  -5098634.65245  24059960.229    24059960.1264   24059975.1474
        -0.000          -0.000
 -16012622.967 9 -12453543.35449  20237270.305    20237269.5004   20237278.7354
        -0.000          -0.000
 -12670430.528 9  -9860669.14247  22712453.050    22712452.9964   22712463.8814
        -0.000          -0.000
  20442464.541 8  15927815.28845  24559332.067    24559331.8384   24559352.6564
        -0.000          -0.000
 99  3  4 19 46  0.0000000  0  8  2  4 27 15  9  7 26 13             0.000000050
    -24360.654 9    -20072.66148  21369393.621    21369392.7774   21369402.7804
        -0.000          -0.000
  -4572444.135 9  -3550817.37946  23338215.004    23338214.9214   23338230.6934
        -0.000          -0.000
   3686791.370 9   2878795.01248  21505227.966    21505227.4904   21505238.2584
        -0.000          -0.000
  -1445202.446 8  -1114940.50245  24151721.771    24151720.7314   24151736.5084
        -0.000          -0.000
  -7539542.931 9  -5174749.22445  24041372.556    24041372.2844   24041386.9264
        -0.000          -0.000
 -16002979.866 9 -12446029.26349  20239105.262    20239104.5004   20239113.7584
        -0.000          -0.000
 -12652672.525 9  -9846831.79347  22715832.199    22715832.1674   22715843.2314
        -0.000          -0.000
  20542728.334 8  16005941.90445  24578411.717    24578411.8484   24578433.4464
        -0.000          -0.000
 99  3  4 19 46 30.0000000  0  8  2  4 27 15  9  7 26 13             0.000000053
     -6919.337 9     -6482.05348  21372712.639    21372711.7994   21372721.7314
        -0.000          -0.000
  -4674854.799 9  -3630617.55346  23318726.245    23318726.3534   23318742.2134
        -0.000          -0.000
   3766095.490 9   2940590.30548  21520319.090    21520318.6334   21520329.5204
        -0.000          -0.000
  -1387190.610 8  -1069736.50845  24162760.524    24162760.1584   24162776.1284
        -0.000          -0.000
  -7637115.052 9  -5250779.29245  24022805.483    24022805.1284   24022819.3284
        -0.000          -0.000
 -15992949.498 9 -12438213.40149  20241014.022    20241013.2584   20241022.4614
        -0.000          -0.000
 -12634450.193 9  -9832632.62947  22719299.733    22719299.7364   22719310.8534
        -0.000          -0.000
  20642896.027 8  16083993.52645  24597473.531    24597474.0504   24597495.6344
        -0.000          -0.000
 99  3  4 19 47  0.0000000  0  8  2  4 27 15  9  7 26 13             0.000000056
     10651.445 9      7209.43648  21376056.292    21376055.4654   21376065.3384
        -0.000          -0.000
  -4777210.780 9  -3710375.10846  23299248.222    23299248.2274   23299264.1414
        -0.000          -0.000
   3845778.810 9   3002681.08548  21535482.424    21535481.9464   21535492.8514
        -0.000          -0.000
  -1328705.096 8  -1024163.44945  24173890.340    24173889.6354   24173905.9034
        -0.000          -0.000
  -7734586.965 9  -5326731.26445  24004257.181    24004256.8394   24004270.8894
        -0.000          -0.000
 -15982572.587 9 -12430127.51049  20242988.742    20242987.9414   20242997.1254
        -0.000          -0.000
 -12615783.228 9  -9818086.99247  22722852.036    22722851.9674   22722863.0424
        -0.000          -0.000
  20742967.253 8  16161969.99545  24616517.134    24616517.5784   24616539.3714
        -0.000          -0.000
 99  3  4 19 47 30.0000000  0  8  2  4 27 15  9  7 26 13             0.000000061
     28353.429 9     21003.15148  21379424.929    21379424.1234   21379434.0124
        -0.000          -0.000
  -4879500.451 9  -3790080.98546  23279782.813    23279782.8534   23279798.5784
        -0.000          -0.000
   3925847.525 9   3065072.17548  21550719.057    21550718.5984   21550729.4664
        -0.000          -0.000
  -1269737.430 8   -978214.61345  24185111.342    24185110.5874   24185126.8954
        -0.000          -0.000
  -7831944.050 9  -5402593.76645  23985730.700    23985730.3444   23985744.3004
        -0.000          -0.000
 -15971832.071 9 -12421758.29649  20245032.642    20245031.8164   20245041.0244
        -0.000          -0.000
 -12596669.066 9  -9803192.87847  22726489.496    22726489.3394   22726500.3584
        -0.000          -0.000
  20842944.426 8  16239873.21045  24635542.849    24635543.2974   24635565.2354
        -0.000          -0.000
 99  3  4 19 48  0.0000000  0  8  2  4 27 15  9  7 26 13             0.000000064
     46184.472 9     34897.43148  21382817.994    21382817.2244   21382827.1874
        -0.000          -0.000
  -4981731.680 9  -3869741.30046  23260328.579    23260328.5704   23260344.2104
        -0.000          -0.000
   4006296.738 9   3127759.78247  21566027.996    21566027.5604   21566038.4204
        -0.000          -0.000
  -1210292.708 8   -931894.15345  24196423.576    24196422.5444   24196438.7624
        -0.000          -0.000
  -7929197.243 9  -5478375.32145  23967224.131    23967223.6764   23967237.2764
        -0.000          -0.000
 -15960725.701 9 -12413103.99749  20247146.136    20247145.3134   20247154.5124
        -0.000          -0.000
 -12577102.273 9  -9787946.07747  22730212.961    22730212.7914   22730223.8244
        -0.000          -0.000
  20942821.339 8  16317698.21745  24654549.790    24654550.2194   24654572.1634
        -0.000          -0.000
 99  3  4 19 48 30.0000000  0  8  2  4 27 15  9  7 26 13             0.000000056
     64137.750 9     48886.95548  21386234.408    21386233.6684   21386243.6614
        -0.000          -0.000
  -5083908.502 9  -3949359.26346  23240884.753    23240884.7414   23240900.2564
        -0.000          -0.000
   4087120.964 9   3190739.59048  21581408.371    21581407.9124   21581418.8064
        -0.000          -0.000
  -1150378.312 8   -885207.59145  24207825.208    24207824.0914   24207839.9104
        -0.000          -0.000
  -8026357.310 9  -5554084.31746  23948735.196    23948734.6464   23948747.9974
        -0.000          -0.000
 -15949236.091 9 -12404151.07249  20249332.580    20249331.7594   20249340.9544
        -0.000          -0.000
 -12557080.329 9  -9772344.60447  22734023.065    22734022.9134   22734033.8434
        -0.000          -0.000
  21042594.878 8  16395442.69045  24673536.788    24673537.1334   24673559.5244
        -0.000          -0.000
 99  3  4 19 49  0.0000000  0  8  2  4 27 15  9  7 26 13             0.000000051
     82229.133 9     62984.10548  21389677.172    21389676.3554   21389686.4634
        -0.000          -0.000
  -5186000.259 9  -4028910.93746  23221457.036    23221457.0804   23221472.5914
        -0.000          -0.000
   4168362.447 9   3254044.52148  21596868.167    21596867.7404   21596878.7134
        -0.000          -0.000
  -1089966.226 8   -838133.25245  24219320.809    24219320.0954   24219335.9814
        -0.000          -0.000
  -8123396.166 9  -5629698.86346  23930269.169    23930268.7204   23930281.7704
        -0.000          -0.000
 -15937308.277 9 -12394856.68049  20251602.269    20251601.4684   20251610.7334
        -0.000          -0.000
 -12536571.898 9  -9756364.04647  22737925.707    22737925.5324   22737936.3734
        -0.000          -0.000
  21142290.007 8  16473125.95545  24692509.518    24692509.6994   24692531.9254
        -0.000          -0.000
 99  3  4 19 49 30.0000000  0  7  2  4 27 15  9  7 26                0.000000055
    100488.548 9     77212.19048  21393151.790    21393151.0004   21393161.1174
        -0.000          -0.000
  -5287989.257 9  -4108382.54246  23202048.843    23202048.9864   23202064.3694
        -0.000          -0.000
   4250045.109 9   3317693.23648  21612411.959    21612411.5694   21612422.6444
        -0.000          -0.000
  -1029045.080 8   -790662.27545  24230913.760    24230912.6994   24230929.1744
        -0.000          -0.000
  -8220310.296 9  -5705216.21746  23911826.701    23911826.3674   23911839.4504
        -0.000          -0.000
 -15924924.174 9 -12385206.73349  20253958.965    20253958.1664   20253967.4114
        -0.000          -0.000
 -12515552.544 9  -9739985.37147  22741925.544    22741925.4134   22741936.2264
        -0.000          -0.000
 99  3  4 19 50  0.0000000  0  7  2  4 27 15  9  7 26                0.000000043
    118905.281 9     91562.85648  21396656.377    21396655.6044   21396665.6954
        -0.000          -0.000
  -5389892.953 9  -4187787.69446  23182657.067    23182657.0614   23182672.3744
        -0.000          -0.000
   4332159.185 9   3381678.10748  21628037.911    21628037.4714   21628048.6184
        -0.000          -0.000
   -967633.632 8   -742809.27945  24242599.551    24242598.8474   24242615.4534
        -0.000          -0.000
  -8317118.379 9  -5780650.94546  23893404.440    23893404.1514   23893417.3234
        -0.000          -0.000
 -15912112.454 9 -12375223.58949  20256396.995    20256396.1694   20256405.4154
        -0.000          -0.000
 -12494028.385 9  -9723213.36747  22746021.437    22746021.3574   22746032.2864
        -0.000          -0.000
 99  3  4 19 50 30.0000000  0  7  2  4 27 15  9  7 26                0.000000036
    137484.195 9    106039.89148  21400191.813    21400191.0464   21400201.2264
        -0.000          -0.000
  -5491688.333 9  -4267108.45346  23163285.817    23163285.8114   23163301.0344
        -0.000          -0.000
   4414698.361 9   3445994.22348  21643744.700    21643744.2674   21643755.3854
        -0.000          -0.000
   -905731.883 8   -694574.15245  24254379.486    24254378.6844   24254395.0364
        -0.000          -0.000
  -8413810.091 9  -5855994.97146  23875004.405    23875004.0994   23875017.4004
        -0.000          -0.000
 -15898881.238 9 -12364913.55849  20258914.728    20258913.9764   20258923.2014
        -0.000          -0.000
 -12472001.728 9  -9706049.80747  22750212.999    22750212.9354   22750224.0124
        -0.000          -0.000
 99  3  4 19 51  0.0000000  0  7  2  4 27 15  9  7 26                0.000000029
    156202.565 9    120625.59648  21403753.835    21403753.1104   21403763.2724
        -0.000          -0.000
  -5593387.000 9  -4346353.85546  23143933.067    23143932.9794   23143948.1894
        -0.000          -0.000
   4497642.822 9   3510626.14748  21659528.615    21659528.1714   21659539.2874
        -0.000          -0.000
   -843355.824 8   -645969.44445  24266249.450    24266248.6354   24266264.9294
        -0.000          -0.000
  -8510394.184 9  -5931255.14646  23856624.977    23856624.6134   23856637.8594
        -0.000          -0.000
 -15885262.514 9 -12354301.57649  20261506.352    20261505.5714   20261514.7804
        -0.000          -0.000
 -12449491.995 9  -9688509.81147  22754496.479    22754496.4504   22754507.6024
        -0.000          -0.000
 99  3  4 19 51 30.0000000  0  7  2  4 27 15  9  7 26                0.000000028
    175073.922 9    135330.51948  21407345.036    21407344.2444   21407354.4124
        -0.000          -0.000
  -5694978.812 9  -4425516.02646  23124600.499    23124600.4734   23124615.7314
        -0.000          -0.000
   4580997.238 9   3575577.52148  21675390.477    21675390.0304   21675401.2174
        -0.000          -0.000
   -780498.160 8   -596989.43145  24278210.715    24278210.1254   24278226.0284
        -0.000          -0.000
  -8606862.858 9  -6006425.36846  23838267.412    23838266.9524   23838280.4124
        -0.000          -0.000
 -15871260.943 9 -12343391.26649  20264170.835    20264170.0374   20264179.2714
        -0.000          -0.000
 -12426493.078 9  -9670588.64147  22758873.074    22758873.0304   22758884.2064
        -0.000          -0.000
 99  3  4 19 52  0.0000000  0  7  2  4 27 15  9  7 26                0.000000029
    194065.256 9    150128.92448  21410958.995    21410958.2124   21410968.4854
        -0.000          -0.000
  -5796470.515 9  -4504600.18046  23105287.068    23105286.9844   23105302.3214
        -0.000          -0.000
   4664739.382 9   3640831.01648  21691326.161    21691325.6974   21691336.9234
        -0.000          -0.000
   -717173.532 8   -547645.56145  24290261.359    24290260.6214   24290276.1744
        -0.000          -0.000
  -8703214.205 9  -6081504.17946  23819932.108    23819931.6954   23819945.2244
        -0.000          -0.000
 -15856882.971 9 -12332187.65649  20266906.855    20266906.0534   20266915.3094
        -0.000          -0.000
 -12403031.918 9  -9652307.27347  22763337.781    22763337.7094   22763348.8294
        -0.000          -0.000
 99  3  4 19 52 30.0000000  0  7  2  4 27 15  9  7 26                0.000000030
    213170.595 9    165016.16348  21414594.694    21414593.8454   21414604.1494
        -0.000          -0.000
  -5897856.513 9  -4583601.97546  23085993.604    23085993.6704   23086008.9264
        -0.000          -0.000
   4748855.084 9   3706375.59047  21707332.943    21707332.4764   21707343.6794
        -0.000          -0.000
   -653381.638 8   -497937.59045  24302400.648    24302399.8184   24302415.4794
        -0.000          -0.000
  -8799439.843 9  -6156485.02546  23801620.774    23801620.4714   23801633.8844
        -0.000          -0.000
 -15842118.892 9 -12320683.17949  20269716.390    20269715.5984   20269724.8324
        -0.000          -0.000
 -12379119.880 9  -9633674.56847  22767888.252    22767888.1494   22767899.2854
        -0.000          -0.000
 99  3  4 19 53  0.0000000  0  6  2  4 27  9  7 26                  -0.000000005
    232417.290 9    180013.55748  21418257.197    21418256.3904   21418266.6814
        -0.000          -0.000
  -5999119.023 9  -4662507.53346  23066723.935    23066723.8304   23066739.0484
        -0.000          -0.000
   4833368.298 9   3772229.92347  21723415.286    21723414.8924   21723426.0964
        -0.000          -0.000
  -8895514.062 9  -6231347.89146  23783338.256    23783338.0384   23783351.4304
        -0.000          -0.000
 -15826931.755 9 -12308849.05449  20272606.488    20272605.6674   20272614.8994
        -0.000          -0.000
 -12354737.962 9  -9614675.73547  22772528.006    22772527.9674   22772539.1664
        -0.000          -0.000
 99  3  4 19 53 30.0000000  0  6  2  4 27  9  7 26                   0.000000022
    251876.385 9    195176.44948  21421960.190    21421959.4064   21421969.7124
        -0.000          -0.000
  -6100201.710 9  -4741272.99146  23047488.260    23047488.2074   23047503.2854
        -0.000          -0.000
   4918310.005 9   3838418.13847  21739579.335    21739578.9034   21739590.1594
        -0.000          -0.000
  -8991388.513 9  -6306055.08246  23765093.865    23765093.6484   23765107.0514
        -0.000          -0.000
 -15811273.271 9 -12296647.65249  20275586.111    20275585.3244   20275594.6494
        -0.000          -0.000
 -12329843.490 9  -9595277.52347  22777265.323    22777265.2974   22777276.5544
        -0.000          -0.000
 99  3  4 19 54  0.0000000  0  6  2  4 27  9  7 26                   0.000000049
    271499.905 9    210467.47448  21425694.367    21425693.6114   21425703.9784
        -0.000          -0.000
  -6201158.563 9  -4819940.38546  23028276.559    23028276.4274   23028291.4974
        -0.000          -0.000
   5003604.485 9   3904881.23948  21755810.471    21755810.0064   21755821.3724
        -0.000          -0.000
  -9087121.534 9  -6380652.06546  23746876.380    23746876.1604   23746889.6044
        -0.000          -0.000
 -15795209.636 9 -12284130.53849  20278642.947    20278642.1484   20278651.4274
        -0.000          -0.000
 -12304499.223 9  -9575528.80247  22782088.134    22782088.1294   22782099.4664
        -0.000          -0.000
 99  3  4 19 54 30.0000000  0  6  2  4 27  9  7 26                   0.000000083
    291320.959 9    225912.42148  21429466.148    21429465.4504   21429475.8294
        -0.000          -0.000
  -6301981.116 9  -4898503.14346  23009090.439    23009090.2794   23009105.2854
        -0.000          -0.000
   5089251.674 9   3971619.16947  21772108.667    21772108.2334   21772119.6524
        -0.000          -0.000
  -9182711.360 9  -6455137.49746  23728686.304    23728685.9934   23728699.3944
        -0.000          -0.000
 -15778746.732 9 -12271302.30249  20281775.740    20281774.9194   20281784.1764
        -0.000          -0.000
 -12278695.057 9  -9555421.71747  22786998.474    22786998.4794   22787009.7734
        -0.000          -0.000
 99  3  4 19 55  0.0000000  0  6  2  4 27  9  7 26                   0.000000117
    311330.360 9    241504.13348  21433273.914    21433273.1644   21433283.5864
        -0.000          -0.000
  -6402696.390 9  -4976982.31046  22989924.836    22989924.7564   22989939.5954
        -0.000          -0.000
   5175249.412 9   4038630.26047  21788473.560    21788473.1344   21788484.5624
        -0.000          -0.000
  -9278175.740 9  -6529525.17146  23710520.087    23710519.6694   23710533.0794
        -0.000          -0.000
 -15761919.730 9 -12258190.35549  20284977.754    20284976.9534   20284986.2484
        -0.000          -0.000
 -12252432.126 9  -9534957.13047  22791996.216    22791996.1104   22792007.3894
        -0.000          -0.000
 99  3  4 19 55 30.0000000  0  6  2  4 27  9  7 26                   0.000000136
    331497.379 9    257218.66148  21437111.600    21437110.8474   21437121.2584
        -0.000          -0.000
  -6503336.791 9  -5055403.12846  22970773.566    22970773.4554   22970788.2094
        -0.000          -0.000
   5261584.632 9   4105904.32947  21804902.687    21804902.2604   21804913.7064
        -0.000          -0.000
  -9373530.917 9  -6603827.76346  23692374.464    23692374.0914   23692387.4724
        -0.000          -0.000
 -15744758.008 9 -12244817.59349  20288243.610    20288242.7924   20288252.0244
        -0.000          -0.000
 -12225727.032 9  -9514148.01947  22797077.913    22797077.8814   22797089.1734
        -0.000          -0.000
 99  3  4 19 56  0.0000000  0  6  2  4 27  9  7 26                   0.000000132
    351791.804 9    273032.46948  21440973.611    21440972.8034   21440983.2114
        -0.000          -0.000
  -6603909.286 9  -5133771.02647  22951635.241    22951635.0444   22951649.6894
        -0.000          -0.000
   5348272.008 9   4173452.82047  21821398.831    21821398.4304   21821409.8264
        -0.000          -0.000
  -9468779.467 9  -6678047.25546  23674249.101    23674248.6594   23674262.1454
        -0.000          -0.000
 -15727262.951 9 -12231185.07949  20291572.800    20291571.9874   20291581.2074
        -0.000          -0.000
 -12198581.748 9  -9492995.88247  22802243.682    22802243.6354   22802254.7284
        -0.000          -0.000
 99  3  4 19 56 30.0000000  0  6  2  4 27  9  7 26                   0.000000119
    372225.697 9    288954.94248  21444862.081    21444861.2614   21444871.7144
        -0.000          -0.000
  -6704382.637 9  -5212061.68147  22932515.540    22932515.3614   22932529.9664
        -0.000          -0.000
   5435360.725 9   4241314.01947  21837971.403    21837970.9574   21837982.3884
        -0.000          -0.000
  -9563890.567 9  -6752159.64546  23656149.872    23656149.5194   23656162.8794
        -0.000          -0.000
 -15709402.690 9 -12217268.00249  20294971.459    20294970.6744   20294979.8544
        -0.000          -0.000
 -12170957.548 9  -9471470.56847  22807500.556    22807500.4564   22807511.5254
        -0.000          -0.000
 99  3  4 19 57  0.0000000  0  6  2  4 27  9  7 26                   0.000000091
    392769.114 9    304962.76648  21448771.375    21448770.5654   21448780.9774
        -0.000          -0.000
  -6804744.029 9  -5290265.08046  22913417.034    22913416.9424   22913431.5464
        -0.000          -0.000
   5522847.836 9   4309485.63947  21854619.762    21854619.2924   21854630.8154
        -0.000          -0.000
  -9658864.196 9  -6826164.89646  23638076.809    23638076.5314   23638089.7894
        -0.000          -0.000
 -15691171.905 9 -12203062.20249  20298440.626    20298439.8234   20298448.9734
        -0.000          -0.000
 -12142861.015 9  -9449577.21247  22812847.138    22812847.0654   22812858.2464
        -0.000          -0.000
 99  3  4 19 57 30.0000000  0  6  2  4 27  9  7 26                   0.000000062
    413441.440 9    321071.03448  21452705.160    21452704.3924   21452714.8674
        -0.000          -0.000
  -6904944.529 9  -5368343.11646  22894349.214    22894349.1224   22894363.7844
        -0.000          -0.000
   5610740.563 9   4377973.31247  21871345.301    21871344.8134   21871356.4004
        -0.000          -0.000
  -9753685.142 9  -6900051.16846  23620032.651    23620032.4724   23620045.7764
        -0.000          -0.000
 -15672547.132 9 -12188549.40149  20301984.781    20301984.0094   20301993.1764
        -0.000          -0.000
 -12114288.258 9  -9427312.77547  22818284.273    22818284.2514   22818295.5434
        -0.000          -0.000
 99  3  4 19 58  0.0000000  0  6  2  4 27  9  7 26                   0.000000046
    434269.768 9    337300.86748  21456668.671    21456667.9584   21456678.4374
        -0.000          -0.000
  -7004950.522 9  -5446269.56946  22875318.403    22875318.3184   22875333.0574
        -0.000          -0.000
   5699040.201 9   4446778.07247  21888148.231    21888147.7904   21888159.4254
        -0.000          -0.000
  -9848346.599 9  -6973813.15046  23602018.881    23602018.7934   23602032.1444
        -0.000          -0.000
 -15653527.868 9 -12173729.19449  20305604.073    20305603.2634   20305612.5224
        -0.000          -0.000
 -12085217.740 9  -9404660.45147  22823816.162    22823816.1114   22823827.4994
        -0.000          -0.000
 99  3  4 19 58 30.0000000  0  6  2  4 27  9  7 26                   0.000000025
    455230.246 9    353633.67748  21460657.378    21460656.5674   21460667.0384
        -0.000          -0.000
  -7104791.326 9  -5524067.32546  22856319.077    22856319.0204   22856333.7594
        -0.000          -0.000
   5787684.594 9   4515851.48447  21905016.683    21905016.3024   21905027.9614
        -0.000          -0.000
  -9942874.923 9  -7047471.38746  23584030.632    23584030.4564   23584043.9094
        -0.000          -0.000
 -15634153.103 9 -12158631.98849  20309291.020    20309290.2114   20309299.4384
        -0.000          -0.000
 -12055695.414 9  -9381656.09247  22829434.162    22829434.1614   22829445.5574
        -0.000          -0.000
 99  3  4 19 59  0.0000000  0  6  2  4 27  9  7 26                   0.000000020
    476347.919 9    370088.96848  21464675.941    21464675.0854   21464685.5854
        -0.000          -0.000
  -7204439.053 9  -5601714.62446  22837356.531    22837356.4984   22837371.1334
        -0.000          -0.000
   5876664.536 9   4585186.37147  21921949.101    21921948.7204   21921960.3544
        -0.000          -0.000
 -10037245.195 9  -7121006.45746  23566072.500    23566072.1584   23566085.9004
        -0.000          -0.000
 -15614415.304 9 -12143251.89449  20313046.982    20313046.1814   20313055.3614
        -0.000          -0.000
 -12025725.127 9  -9358302.68047  22835137.493    22835137.4234   22835148.7714
        -0.000          -0.000
 99  3  4 19 59 30.0000000  0  6  2  4 27  9  7 26                   0.000000013
    497610.170 9    386656.93248  21468722.043    21468721.2244   21468731.7804
        -0.000          -0.000
  -7303934.343 9  -5679243.16546  22818423.034    22818422.9944   22818437.4084
        -0.000          -0.000
   5965959.616 9   4654766.80347  21938941.531    21938941.1574   21938952.7584
        -0.000          -0.000
 -10131478.577 9  -7194434.88446  23548140.387    23548140.0024   23548153.8214
        -0.000          -0.000
 -15594341.764 9 -12127610.18449  20316866.926    20316866.1164   20316875.2834
        -0.000          -0.000
 -11995333.238 9  -9334620.73247  22840921.023    22840920.9194   22840932.1934
        -0.000          -0.000
 99  3  4 20  0  0.0000000  0  6  2  4 27  9  7 26                   0.000000005
    519022.542 9    403341.86048  21472796.597    21472795.8534   21472806.4024
        -0.000          -0.000
  -7403273.212 9  -5756649.81747  22799519.243    22799519.2624   22799533.4714
        -0.000          -0.000
   6055579.865 9   4724600.60547  21955995.782    21955995.4404   21956007.0724
        -0.000          -0.000
 -10225555.075 9  -7267741.05846  23530238.087    23530237.6164   23530251.5794
        -0.000          -0.000
 -15573909.629 9 -12111689.05249  20320755.023    20320754.2054   20320763.3884
        -0.000          -0.000
 -11964519.186 9  -9310609.82847  22846784.722    22846784.6004   22846795.9114
        -0.000          -0.000
 99  3  4 20  0 30.0000000  0  6  2  4 27  9  7 26                   0.000000003
    540606.436 9    420160.45048  21476903.950    21476903.1694   21476913.6424
        -0.000          -0.000
  -7502425.924 9  -5833911.40447  22780650.968    22780650.9534   22780665.0194
        -0.000          -0.000
   6145564.916 9   4794718.65847  21973119.522    21973119.1364   21973130.8484
        -0.000          -0.000
 -10319444.787 9  -7340901.71646  23512371.274    23512370.7054   23512384.6474
        -0.000          -0.000
 -15553071.663 9 -12095451.68749  20324720.299    20324719.5194   20324728.7194
        -0.000          -0.000
 -11933267.575 9  -9286257.97847  22852731.536    22852731.5034   22852742.8844
        -0.000          -0.000
 99  3  4 20  1  0.0000000  0  6  2  4 27  9  7 26                   0.000000004
    562364.189 9    437114.51948  21481044.375    21481043.5534   21481054.0144
        -0.000          -0.000
  -7601406.749 9  -5911039.05347  22761815.271    22761815.2944   22761829.3754
        -0.000          -0.000
   6235936.549 9   4865137.95047  21990316.897    21990316.5004   21990328.2224
        -0.000          -0.000
 -10413158.852 9  -7413925.49846  23494537.803    23494537.2714   23494551.1604
        -0.000          -0.000
 -15531840.371 9 -12078907.82949  20328760.552    20328759.7334   20328768.9374
        -0.000          -0.000
 -11901574.598 9  -9261562.19447  22858762.498    22858762.5484   22858773.9734
        -0.000          -0.000
 99  3  4 20  1 30.0000000  0  6  2  4 27  9  7 26                   0.000000007
    584314.763 9    454218.82248  21485221.408    21485220.6014   21485231.0654
        -0.000          -0.000
  -7700218.194 9  -5988034.71747  22743011.825    22743011.8024   22743025.9674
        -0.000          -0.000
   6326725.085 9   4935882.09247  22007593.612    22007593.1804   22007604.8934
        -0.000          -0.000
 -10506688.722 9  -7486805.76246  23476739.305    23476738.8034   23476752.6574
        -0.000          -0.000
 -15510195.907 9 -12062042.03049  20332879.347    20332878.5314   20332887.7894
        -0.000          -0.000
 -11869427.239 9  -9236512.34947  22864880.049    22864880.0434   22864891.5284
        -0.000          -0.000
 99  3  4 20  2  0.0000000  0  6  2  4 27  9  7 26                   0.000000009
    606449.604 9    471466.71248  21489433.570    21489432.7554   21489443.1954
        -0.000          -0.000
  -7798865.428 9  -6064902.43046  22724239.633    22724239.6374   22724253.7574
        -0.000          -0.000
   6417914.843 9   5006938.89547  22024946.570    22024946.1274   22024957.8574
        -0.000          -0.000
 -10600045.509 9  -7559551.15746  23458973.823    23458973.3714   23458987.1484
        -0.000          -0.000
 -15488160.288 9 -12044871.43549  20337072.575    20337071.7484   20337081.0484
        -0.000          -0.000
 -11836841.411 9  -9211120.85147  22871080.928    22871080.8804   22871092.4544
        -0.000          -0.000
 99  3  4 20  2 30.0000000  0  6  2  4 27  9  7 26                   0.000000017
    628765.145 9    488855.41748  21493680.127    21493679.2964   21493689.7714
        -0.000          -0.000
  -7897353.930 9  -6141646.44246  22705497.662    22705497.6914   22705511.7254
        -0.000          -0.000
   6509501.930 9   5078305.29847  22042375.111    22042374.5924   22042386.4274
        -0.000          -0.000
 -10693231.166 9  -7632163.20246  23441241.016    23441240.6374   23441254.2794
        -0.000          -0.000
 -15465752.940 9 -12027411.18049  20341336.572    20341335.7564   20341345.0274
        -0.000          -0.000
 -11803814.419 9  -9185385.57647  22877365.789    22877365.8094   22877377.3454
        -0.000          -0.000
 99  3  4 20  3  0.0000000  0  6  2  4 27  9  7 26                   0.000000022
    651217.681 9    506350.85748  21497952.691    21497951.9074   21497962.4194
        -0.000          -0.000
  -7995711.202 9  -6218288.23046  22686780.824    22686780.7894   22686794.5404
        -0.000          -0.000
   6601443.944 9   5149948.25947  22059871.159    22059870.6594   22059882.5404
        -0.000          -0.000
 -10786268.036 9  -7704659.30246  23423536.562    23423536.2734   23423549.7394
        -0.000          -0.000
 -15443023.922 9 -12009700.27449  20345661.797    20345660.9524   20345670.1714
        -0.000          -0.000
 -11770395.382 9  -9159344.82547  22883725.304    22883725.2674   22883736.8024
        -0.000          -0.000
 99  3  4 20  3 30.0000000  0  6  2  4 27  9  7 26                   0.000000035
    673814.147 9    523958.45248  21502252.749    21502251.9514   21502262.4534
        -0.000          -0.000
  -8093894.547 9  -6294794.51446  22668097.050    22668097.0044   22668110.5254
        -0.000          -0.000
   6693749.734 9   5221874.67847  22077436.381    22077435.9894   22077447.9104
        -0.000          -0.000
 -10879136.819 9  -7777024.43746  23405864.251    23405864.0074   23405877.1624
        -0.000          -0.000
 -15419949.363 9 -11991720.11649  20350052.662    20350051.8424   20350061.1084
        -0.000          -0.000
 -11736568.316 9  -9132986.12947  22890162.375    22890162.3514   22890173.9324
        -0.000          -0.000
 99  3  4 20  4  0.0000000  0  6  2  4 27  9  7 26                   0.000000059
    696554.610 9    541678.25848  21506580.141    21506579.3454   21506589.7964
        -0.000          -0.000
  -8191883.928 9  -6371149.65246  22649450.235    22649450.1824   22649463.4614
        -0.000          -0.000
   6786407.244 9   5294075.17647  22095068.695    22095068.2824   22095080.2194
        -0.000          -0.000
 -10971831.700 9  -7849254.06646  23388225.170    23388224.8584   23388237.8544
        -0.000          -0.000
 -15396532.730 9 -11973473.40749  20354508.665    20354507.8874   20354517.1574
        -0.000          -0.000
 -11702324.893 9  -9106302.99847  22896678.766    22896678.7094   22896690.3234
        -0.000          -0.000
 99  3  4 20  4 30.0000000  0  6  2  4 27  9  7 26                   0.000000083
    719427.581 9    559501.30748  21510932.828    21510931.9624   21510942.4934
        -0.000          -0.000
  -8289684.816 9  -6447357.92246  22630839.263    22630839.0774   22630852.3604
        -0.000          -0.000
   6879397.928 9   5366535.25947  22112764.514    22112764.0424   22112775.9804
        -0.000          -0.000
 -11064359.719 9  -7921353.66846  23370617.896    23370617.4384   23370630.4144
        -0.000          -0.000
 -15372783.770 9 -11954967.74149  20359028.033    20359027.2394   20359036.4724
        -0.000          -0.000
 -11667673.265 9  -9079301.78647  22903272.829    22903272.7944   22903284.3274
        -0.000          -0.000
 99  3  4 20  5  0.0000000  0  6  2  4 27  9  7 26                   0.000000123
    742475.529 9    577460.70948  21515318.726    21515317.8464   21515328.4884
        -0.000          -0.000
  -8387271.467 9  -6523399.22447  22612268.807    22612268.7434   22612282.0684
        -0.000          -0.000
   6972739.600 9   5439268.84947  22130526.996    22130526.5554   22130538.5284
        -0.000          -0.000
 -11156681.609 9  -7993292.64646  23353049.626    23353049.1314   23353062.1384
        -0.000          -0.000
 -15348667.226 9 -11936175.63249  20363617.280    20363616.4824   20363625.7834
        -0.000          -0.000
 -11632576.264 9  -9051953.53047  22909951.647    22909951.6304   22909963.0404
        -0.000          -0.000
 99  3  4 20  5 30.0000000  0  6  2  4 27  9  7 26                   0.000000149
    765688.253 9    595548.50648  21519735.987    21519735.1574   21519745.6874
        -0.000          -0.000
  -8484687.567 9  -6599307.65447  22593730.980    22593730.8664   22593744.1904
        -0.000          -0.000
   7066383.855 9   5512238.19447  22148347.067    22148346.5284   22148358.6124
        -0.000          -0.000
 -11248824.641 9  -8065092.25546  23335515.389    23335514.7994   23335527.8174
        -0.000          -0.000
 -15324210.046 9 -11917118.11449  20368271.334    20368270.5794   20368279.8334
        -0.000          -0.000
 -11597041.784 9  -9024264.37947  22916713.608    22916713.5994   22916725.0004
        -0.000          -0.000
 99  3  4 20  6  0.0000000  0  6  2  4 27  9  7 26                   0.000000164
    789092.722 9    613785.70748  21524189.763    21524188.9344   21524199.4634
        -0.000          -0.000
  -8581918.626 9  -6675071.87847  22575228.374    22575228.2654   22575241.5164
        -0.000          -0.000
   7160330.916 9   5585443.51047  22166224.637    22166224.1124   22166236.2474
        -0.000          -0.000
 -11340769.435 9  -8136737.38946  23318018.781    23318018.2124   23318031.1874
        -0.000          -0.000
 -15299391.533 9 -11897779.02649  20372994.194    20372993.4104   20373002.6614
        -0.000          -0.000
 -11561057.186 9  -8996224.48647  22923561.205    22923561.2584   22923572.7224
        -0.000          -0.000
 99  3  4 20  6 30.0000000  0  6  2  4 27  9  7 26                   0.000000149
    812676.026 9    632162.26748  21528677.595    21528676.7574   21528687.3094
        -0.000          -0.000
  -8678983.723 9  -6750706.80347  22556757.368    22556757.2424   22556770.4544
        -0.000          -0.000
   7254568.509 9   5658875.24147  22184157.424    22184156.9674   22184169.2024
        -0.000          -0.000
 -11432530.512 9  -8208239.37846  23300557.103    23300556.5714   23300569.5054
        -0.000          -0.000
 -15274216.848 9 -11878162.39849  20377784.796    20377784.0244   20377793.2874
        -0.000          -0.000
 -11524634.967 9  -8967843.59447  22930492.288    22930492.3104   22930503.7834
        -0.000          -0.000
 99  3  4 20  7  0.0000000  0  6  2  4 27  9  7 26                   0.000000114
    836480.767 9    650711.37648  21533207.599    21533206.7314   21533217.2114
        -0.000          -0.000
  -8775842.036 9  -6826180.60747  22538325.671    22538325.5624   22538338.6964
        -0.000          -0.000
   7349123.810 9   5732554.52947  22202150.873    22202150.3604   22202162.7094
        -0.000          -0.000
 -11524088.124 9  -8279582.81646  23283134.121    23283133.6324   23283146.5824
        -0.000          -0.000
 -15248651.728 9 -11858241.53849  20382649.713    20382648.8964   20382658.2004
        -0.000          -0.000
 -11487747.020 9  -8939099.79447  22937512.051    22937512.0004   22937523.3954
        -0.000          -0.000
 99  3  4 20  7 30.0000000  0  6  2  4 27  9  7 26                   0.000000062
    860505.527 9    669431.92448  21537779.354    21537778.5264   21537788.9754
        -0.000          -0.000
  -8872473.618 9  -6901477.75447  22519937.042    22519937.0324   22519950.0674
        -0.000          -0.000
   7444018.405 9   5806498.18447  22220208.826    22220208.3394   22220220.7984
        -0.000          -0.000
 -11615444.851 9  -8350769.71746  23265749.417    23265748.8784   23265761.8664
        -0.000          -0.000
 -15222689.545 9 -11838011.28349  20387590.175    20387589.3564   20387598.6304
        -0.000          -0.000
 -11450401.051 9  -8909999.09247  22944618.782    22944618.7214   22944630.1374
        -0.000          -0.000
 99  3  4 20  8  0.0000000  0  6  2  4 27  9  7 26                   0.000000007
    884749.954 9    688323.63648  21542392.981    21542392.1124   21542402.5794
        -0.000          -0.000
  -8968858.731 9  -6976582.87447  22501595.469    22501595.4404   22501608.3644
        -0.000          -0.000
   7539283.147 9   5880730.24847  22238337.244    22238336.7904   22238349.3594
        -0.000          -0.000
 -11706586.954 9  -8421789.37746  23248405.485    23248404.9644   23248417.9714
        -0.000          -0.000
 -15196324.098 9 -11817466.79149  20392607.334    20392606.5224   20392615.7604
        -0.000          -0.000
 -11412604.206 9  -8880547.06147  22951811.261    22951811.1924   22951822.7634
        -0.000          -0.000
 99  3  4 20  8 30.0000000  0  6  2  4 27  9  7 26                  -0.000000038
    909200.275 9    707375.79948  21547045.724    21547044.8814   21547055.3604
        -0.000          -0.000
  -9065017.816 9  -7051511.85347  22483296.946    22483296.8784   22483309.6624
        -0.000          -0.000
   7634913.691 9   5955247.35147  22256535.356    22256534.8414   22256547.5084
        -0.000          -0.000
 -11797511.913 9  -8492639.83746  23231102.684    23231102.3134   23231115.2854
        -0.000          -0.000
 -15169584.374 9 -11796630.65549  20397695.712    20397694.8804   20397704.1484
        -0.000          -0.000
 -11374370.156 9  -8850754.36147  22959086.871    22959086.7954   22959098.4954
        -0.000          -0.000
 99  3  4 20  9  0.0000000  0  6  2  4 27  9  7 26                  -0.000000064
    933827.416 9    726565.73448  21551732.053    21551731.2374   21551741.6964
        -0.000          -0.000
  -9160961.343 9  -7126272.86947  22465039.317    22465039.2684   22465051.9604
        -0.000          -0.000
   7730893.008 9   6030036.21947  22274799.787    22274799.3064   22274811.9264
        -0.000          -0.000
 -11888222.255 9  -8563323.07546  23213840.653    23213840.4434   23213853.3144
        -0.000          -0.000
 -15142504.424 9 -11775529.42249  20402848.837    20402848.0224   20402857.2944
        -0.000          -0.000
 -11335730.761 9  -8820645.78547  22966439.727    22966439.6854   22966451.4194
        -0.000          -0.000
 99  3  4 20  9 30.0000000  0  6  2  4 27  9  7 26                  -0.000000066
    958582.673 9    745855.50648  21556442.802    21556441.9764   21556452.5324
        -0.000          -0.000
  -9256721.101 9  -7200890.68547  22446816.603    22446816.5734   22446829.3294
        -0.000          -0.000
   7827194.980 9   6105076.53747  22293125.662    22293125.1804   22293137.7664
        -0.000          -0.000
 -11978723.635 9  -8633843.47146  23196618.709    23196618.4954   23196631.2154
        -0.000          -0.000
 -15115128.443 9 -11754197.50449  20408058.377    20408057.5564   20408066.8134
        -0.000          -0.000
 -11296732.536 9  -8790257.62647  22973860.943    22973860.8274   22973872.6774
        -0.000          -0.000
 99  3  4 20 10  0.0000000  0  6  2  4 27  9  7 26                  -0.000000044
    983459.752 9    765240.20348  21561176.730    21561175.9384   21561186.6024
        -0.000          -0.000
  -9352304.541 9  -7275371.10647  22428627.421    22428627.4354   22428640.3314
        -0.000          -0.000
   7923789.271 9   6180344.63747  22311507.066    22311506.5654   22311519.1374
        -0.000          -0.000
 -12069023.657 9  -8704206.96946  23179435.290    23179434.9214   23179447.3724
        -0.000          -0.000
 -15087480.510 9 -11732653.68049  20413319.684    20413318.8334   20413328.0224
        -0.000          -0.000
 -11257388.012 9  -8759599.61847  22981347.996    22981347.9344   22981359.6704
        -0.000          -0.000
 99  3  4 20 10 30.0000000  0  6  2  4 27  9  7 26                  -0.000000015
   1008450.877 9    784713.75248  21565932.396    21565931.5564   21565942.3654
        -0.000          -0.000
  -9447723.227 9  -7349723.15147  22410469.683    22410469.6754   22410482.6784
        -0.000          -0.000
   8020641.059 9   6255813.37547  22329937.431    22329936.9464   22329949.5764
        -0.000          -0.000
 -12159146.595 9  -8774432.49046  23162285.504    23162285.0344   23162297.3014
        -0.000          -0.000
 -15059586.178 9 -11710917.86149  20418627.807    20418626.9594   20418636.1464
        -0.000          -0.000
 -11217712.167 9  -8728683.42547  22988898.324    22988898.1664   22988909.6494
        -0.000          -0.000
 99  3  4 20 11  0.0000000  0  6  2  4 27  9  7 26                   0.000000007
   1033554.804 9    804275.22348  21570709.468    21570708.6594   21570719.4794
        -0.000          -0.000
  -9542966.988 9  -7423938.89947  22392345.287    22392345.2724   22392358.2264
        -0.000          -0.000
   8117758.226 9   6331488.88947  22348418.321    22348417.8524   22348430.5234
        -0.000          -0.000
 -12249104.688 9  -8844529.55546  23145166.960    23145166.4454   23145178.6934
        -0.000          -0.000
 -15031435.420 9 -11688982.23249  20423984.778    20423983.9504   20423993.1924
        -0.000          -0.000
 -11177710.219 9  -8697513.15347  22996510.375    22996510.2974   22996521.8304
        -0.000          -0.000
 99  3  4 20 11 30.0000000  0  6  2  4 27  9  7 26                   0.000000009
   1058790.235 9    823939.15748  21575511.635    21575510.8744   21575521.6644
        -0.000          -0.000
  -9638019.326 9  -7498005.50747  22374257.334    22374257.2744   22374270.1234
        -0.000          -0.000
   8215151.787 9   6407379.76947  22366951.854    22366951.3614   22366964.0844
        -0.000          -0.000
 -12338899.206 9  -8914499.17046  23128079.408    23128079.0154   23128091.2094
        -0.000          -0.000
 -15003006.405 9 -11666829.78149  20429394.630    20429393.7954   20429403.1084
        -0.000          -0.000
 -11137358.806 9  -8666070.56847  23004189.095    23004189.0324   23004200.5214
        -0.000          -0.000
 99  3  4 20 12  0.0000000  0  6  2  4 27  9  7 26                  -0.000000001
   1084200.938 9    843739.66448  21580347.214    21580346.4074   21580357.2534
        -0.000          -0.000
  -9732832.922 9  -7571886.06547  22356214.736    22356214.7154   22356227.4404
        -0.000          -0.000
   8312863.221 9   6483518.35147  22385545.846    22385545.3794   22385558.1404
        -0.000          -0.000
 -12428493.455 9  -8984312.72046  23111030.145    23111029.7774   23111041.9144
        -0.000          -0.000
 -14974242.244 9 -11644416.16649  20434868.323    20434867.4564   20434876.7364
        -0.000          -0.000
 -11096595.987 9  -8634307.41847  23011946.000    23011945.9314   23011957.5904
        -0.000          -0.000
 99  3  4 20 12 30.0000000  0  6  2  4 27  9  7 26                  -0.000000029
   1109788.210 9    863677.75248  21585216.448    21585215.6164   21585226.3694
        -0.000          -0.000
  -9827390.081 9  -7645566.82447  22338220.975    22338220.9824   22338233.6024
        -0.000          -0.000
   8410916.475 9   6559923.27547  22404204.881    22404204.4624   22404217.2764
        -0.000          -0.000
 -12517871.091 9  -9053957.48846  23094022.174    23094021.7614   23094033.8294
        -0.000          -0.000
 -14945111.360 9 -11621716.79949  20440411.680    20440410.8584   20440420.1384
        -0.000          -0.000
 -11055405.325 9  -8602210.88047  23019784.313    23019784.2854   23019796.0364
        -0.000          -0.000
